<?xml version="1.0" encoding="UTF-8" standalone="no" ?>
<gpx xmlns="http://www.topografix.com/GPX/1/1" xmlns:xsi="http://www.w3.org/2001/XMLSchema-instance" xsi:schemaLocation="http://www.topografix.com/GPX/1/1 http://www.topografix.com/GPX/1/1/gpx.xsd" version="1.1" creator="VisuGPX - https://www.visugpx.com">
  <metadata>
    <name>14945360-Chênes_Col Garde_Ollioules_ND Mai</name>
  </metadata>
  <trk>
    <name><![CDATA[14945360-Chênes_Col Garde_Ollioules_ND Mai]]></name>
    <extensions>
      <line xmlns="http://www.topografix.com/GPX/gpx_style/0/2">
        <color>0000FF</color>
        <width>4</width>
      </line>
    </extensions>
    <trkseg>
      <trkpt lat="43.12656" lon="5.91417">
        <ele>6</ele>
        <time>2022-06-11T19:52:59Z</time>
      </trkpt>
      <trkpt lat="43.12651" lon="5.9148">
        <ele>6</ele>
        <time>2022-06-11T19:53:07Z</time>
      </trkpt>
      <trkpt lat="43.12641" lon="5.91528">
        <ele>6</ele>
        <time>2022-06-11T19:53:14Z</time>
      </trkpt>
      <trkpt lat="43.12639" lon="5.91559">
        <ele>7</ele>
        <time>2022-06-11T19:53:18Z</time>
      </trkpt>
      <trkpt lat="43.12642" lon="5.91575">
        <ele>7</ele>
        <time>2022-06-11T19:53:20Z</time>
      </trkpt>
      <trkpt lat="43.12641" lon="5.91605">
        <ele>8</ele>
        <time>2022-06-11T19:53:24Z</time>
      </trkpt>
      <trkpt lat="43.12639" lon="5.91631">
        <ele>8</ele>
        <time>2022-06-11T19:53:27Z</time>
      </trkpt>
      <trkpt lat="43.12634" lon="5.91639">
        <ele>8</ele>
        <time>2022-06-11T19:53:29Z</time>
      </trkpt>
      <trkpt lat="43.12633" lon="5.91643">
        <ele>8</ele>
        <time>2022-06-11T19:53:29Z</time>
      </trkpt>
      <trkpt lat="43.12628" lon="5.91645">
        <ele>8</ele>
        <time>2022-06-11T19:53:30Z</time>
      </trkpt>
      <trkpt lat="43.12625" lon="5.91649">
        <ele>8</ele>
        <time>2022-06-11T19:53:31Z</time>
      </trkpt>
      <trkpt lat="43.12623" lon="5.91655">
        <ele>8</ele>
        <time>2022-06-11T19:53:32Z</time>
      </trkpt>
      <trkpt lat="43.12624" lon="5.91662">
        <ele>8</ele>
        <time>2022-06-11T19:53:33Z</time>
      </trkpt>
      <trkpt lat="43.12629" lon="5.9167">
        <ele>9</ele>
        <time>2022-06-11T19:53:34Z</time>
      </trkpt>
      <trkpt lat="43.12633" lon="5.91671">
        <ele>9</ele>
        <time>2022-06-11T19:53:35Z</time>
      </trkpt>
      <trkpt lat="43.12638" lon="5.9167">
        <ele>9</ele>
        <time>2022-06-11T19:53:36Z</time>
      </trkpt>
      <trkpt lat="43.12646" lon="5.91703">
        <ele>10</ele>
        <time>2022-06-11T19:53:40Z</time>
      </trkpt>
      <trkpt lat="43.12652" lon="5.91748">
        <ele>9</ele>
        <time>2022-06-11T19:53:46Z</time>
      </trkpt>
      <trkpt lat="43.12663" lon="5.91765">
        <ele>10</ele>
        <time>2022-06-11T19:53:49Z</time>
      </trkpt>
      <trkpt lat="43.12686" lon="5.91851">
        <ele>9</ele>
        <time>2022-06-11T19:54:01Z</time>
      </trkpt>
      <trkpt lat="43.127" lon="5.91894">
        <ele>8</ele>
        <time>2022-06-11T19:54:07Z</time>
      </trkpt>
      <trkpt lat="43.12701" lon="5.9192">
        <ele>8</ele>
        <time>2022-06-11T19:54:10Z</time>
      </trkpt>
      <trkpt lat="43.127" lon="5.91944">
        <ele>8</ele>
        <time>2022-06-11T19:54:13Z</time>
      </trkpt>
      <trkpt lat="43.12695" lon="5.91971">
        <ele>9</ele>
        <time>2022-06-11T19:54:17Z</time>
      </trkpt>
      <trkpt lat="43.12687" lon="5.91995">
        <ele>9</ele>
        <time>2022-06-11T19:54:21Z</time>
      </trkpt>
      <trkpt lat="43.12597" lon="5.9221">
        <ele>7</ele>
        <time>2022-06-11T19:54:53Z</time>
      </trkpt>
      <trkpt lat="43.12609" lon="5.92219">
        <ele>8</ele>
        <time>2022-06-11T19:54:55Z</time>
      </trkpt>
      <trkpt lat="43.12612" lon="5.9222">
        <ele>8</ele>
        <time>2022-06-11T19:54:56Z</time>
      </trkpt>
      <trkpt lat="43.1262" lon="5.92217">
        <ele>8</ele>
        <time>2022-06-11T19:54:57Z</time>
      </trkpt>
      <trkpt lat="43.12623" lon="5.92213">
        <ele>8</ele>
        <time>2022-06-11T19:54:58Z</time>
      </trkpt>
      <trkpt lat="43.12627" lon="5.92217">
        <ele>8</ele>
        <time>2022-06-11T19:54:59Z</time>
      </trkpt>
      <trkpt lat="43.12633" lon="5.92221">
        <ele>9</ele>
        <time>2022-06-11T19:55:00Z</time>
      </trkpt>
      <trkpt lat="43.12672" lon="5.92253">
        <ele>11</ele>
        <time>2022-06-11T19:55:08Z</time>
      </trkpt>
      <trkpt lat="43.12633" lon="5.92221">
        <ele>9</ele>
        <time>2022-06-11T19:55:16Z</time>
      </trkpt>
      <trkpt lat="43.12627" lon="5.92217">
        <ele>8</ele>
        <time>2022-06-11T19:55:17Z</time>
      </trkpt>
      <trkpt lat="43.12623" lon="5.92213">
        <ele>8</ele>
        <time>2022-06-11T19:55:18Z</time>
      </trkpt>
      <trkpt lat="43.12662" lon="5.92128">
        <ele>8</ele>
        <time>2022-06-11T19:55:31Z</time>
      </trkpt>
      <trkpt lat="43.12671" lon="5.92118">
        <ele>9</ele>
        <time>2022-06-11T19:55:33Z</time>
      </trkpt>
      <trkpt lat="43.12678" lon="5.92116">
        <ele>10</ele>
        <time>2022-06-11T19:55:35Z</time>
      </trkpt>
      <trkpt lat="43.12686" lon="5.92124">
        <ele>10</ele>
        <time>2022-06-11T19:55:36Z</time>
      </trkpt>
      <trkpt lat="43.12691" lon="5.9214">
        <ele>11</ele>
        <time>2022-06-11T19:55:39Z</time>
      </trkpt>
      <trkpt lat="43.12676" lon="5.92232">
        <ele>11</ele>
        <time>2022-06-11T19:55:51Z</time>
      </trkpt>
      <trkpt lat="43.12677" lon="5.9227">
        <ele>12</ele>
        <time>2022-06-11T19:55:56Z</time>
      </trkpt>
      <trkpt lat="43.12679" lon="5.92288">
        <ele>12</ele>
        <time>2022-06-11T19:55:58Z</time>
      </trkpt>
      <trkpt lat="43.12629" lon="5.92541">
        <ele>10</ele>
        <time>2022-06-11T19:56:32Z</time>
      </trkpt>
      <trkpt lat="43.12621" lon="5.92585">
        <ele>9</ele>
        <time>2022-06-11T19:56:38Z</time>
      </trkpt>
      <trkpt lat="43.12545" lon="5.9297">
        <ele>13</ele>
        <time>2022-06-11T19:57:30Z</time>
      </trkpt>
      <trkpt lat="43.12446" lon="5.9347">
        <ele>21</ele>
        <time>2022-06-11T19:58:37Z</time>
      </trkpt>
      <trkpt lat="43.12419" lon="5.93605">
        <ele>19</ele>
        <time>2022-06-11T19:58:55Z</time>
      </trkpt>
      <trkpt lat="43.12414" lon="5.93624">
        <ele>19</ele>
        <time>2022-06-11T19:58:58Z</time>
      </trkpt>
      <trkpt lat="43.12404" lon="5.93624">
        <ele>18</ele>
        <time>2022-06-11T19:59:00Z</time>
      </trkpt>
      <trkpt lat="43.12391" lon="5.93655">
        <ele>18</ele>
        <time>2022-06-11T19:59:04Z</time>
      </trkpt>
      <trkpt lat="43.12263" lon="5.93896">
        <ele>14</ele>
        <time>2022-06-11T19:59:43Z</time>
      </trkpt>
      <trkpt lat="43.12248" lon="5.93913">
        <ele>14</ele>
        <time>2022-06-11T19:59:47Z</time>
      </trkpt>
      <trkpt lat="43.1217" lon="5.93913">
        <ele>11</ele>
        <time>2022-06-11T20:00:00Z</time>
      </trkpt>
      <trkpt lat="43.12158" lon="5.93915">
        <ele>11</ele>
        <time>2022-06-11T20:00:03Z</time>
      </trkpt>
      <trkpt lat="43.12149" lon="5.93919">
        <ele>11</ele>
        <time>2022-06-11T20:00:04Z</time>
      </trkpt>
      <trkpt lat="43.12143" lon="5.93928">
        <ele>10</ele>
        <time>2022-06-11T20:00:06Z</time>
      </trkpt>
      <trkpt lat="43.12139" lon="5.93943">
        <ele>10</ele>
        <time>2022-06-11T20:00:08Z</time>
      </trkpt>
      <trkpt lat="43.12136" lon="5.93967">
        <ele>10</ele>
        <time>2022-06-11T20:00:11Z</time>
      </trkpt>
      <trkpt lat="43.12129" lon="5.94049">
        <ele>12</ele>
        <time>2022-06-11T20:00:22Z</time>
      </trkpt>
      <trkpt lat="43.12115" lon="5.94061">
        <ele>12</ele>
        <time>2022-06-11T20:00:25Z</time>
      </trkpt>
      <trkpt lat="43.12111" lon="5.94068">
        <ele>12</ele>
        <time>2022-06-11T20:00:26Z</time>
      </trkpt>
      <trkpt lat="43.12111" lon="5.94084">
        <ele>13</ele>
        <time>2022-06-11T20:00:28Z</time>
      </trkpt>
      <trkpt lat="43.12104" lon="5.94105">
        <ele>13</ele>
        <time>2022-06-11T20:00:31Z</time>
      </trkpt>
      <trkpt lat="43.12104" lon="5.94115">
        <ele>12</ele>
        <time>2022-06-11T20:00:32Z</time>
      </trkpt>
      <trkpt lat="43.1211" lon="5.94134">
        <ele>12</ele>
        <time>2022-06-11T20:00:35Z</time>
      </trkpt>
      <trkpt lat="43.12108" lon="5.94149">
        <ele>11</ele>
        <time>2022-06-11T20:00:37Z</time>
      </trkpt>
      <trkpt lat="43.1209" lon="5.94193">
        <ele>9</ele>
        <time>2022-06-11T20:00:43Z</time>
      </trkpt>
      <trkpt lat="43.1209" lon="5.94201">
        <ele>9</ele>
        <time>2022-06-11T20:00:45Z</time>
      </trkpt>
      <trkpt lat="43.12087" lon="5.94206">
        <ele>9</ele>
        <time>2022-06-11T20:00:45Z</time>
      </trkpt>
      <trkpt lat="43.12102" lon="5.94206">
        <ele>10</ele>
        <time>2022-06-11T20:00:48Z</time>
      </trkpt>
      <trkpt lat="43.12106" lon="5.9421">
        <ele>10</ele>
        <time>2022-06-11T20:00:49Z</time>
      </trkpt>
      <trkpt lat="43.12108" lon="5.9422">
        <ele>10</ele>
        <time>2022-06-11T20:00:50Z</time>
      </trkpt>
      <trkpt lat="43.12107" lon="5.94237">
        <ele>10</ele>
        <time>2022-06-11T20:00:52Z</time>
      </trkpt>
      <trkpt lat="43.12088" lon="5.94309">
        <ele>8</ele>
        <time>2022-06-11T20:01:02Z</time>
      </trkpt>
      <trkpt lat="43.12038" lon="5.94542">
        <ele>6</ele>
        <time>2022-06-11T20:01:34Z</time>
      </trkpt>
      <trkpt lat="43.12022" lon="5.94608">
        <ele>5</ele>
        <time>2022-06-11T20:01:43Z</time>
      </trkpt>
      <trkpt lat="43.11999" lon="5.94665">
        <ele>4</ele>
        <time>2022-06-11T20:01:51Z</time>
      </trkpt>
      <trkpt lat="43.11977" lon="5.94702">
        <ele>5</ele>
        <time>2022-06-11T20:01:58Z</time>
      </trkpt>
      <trkpt lat="43.11967" lon="5.94716">
        <ele>6</ele>
        <time>2022-06-11T20:02:00Z</time>
      </trkpt>
      <trkpt lat="43.11959" lon="5.94746">
        <ele>7</ele>
        <time>2022-06-11T20:02:04Z</time>
      </trkpt>
      <trkpt lat="43.11958" lon="5.94754">
        <ele>7</ele>
        <time>2022-06-11T20:02:05Z</time>
      </trkpt>
      <trkpt lat="43.1196" lon="5.94773">
        <ele>8</ele>
        <time>2022-06-11T20:02:08Z</time>
      </trkpt>
      <trkpt lat="43.11966" lon="5.94803">
        <ele>9</ele>
        <time>2022-06-11T20:02:12Z</time>
      </trkpt>
      <trkpt lat="43.11992" lon="5.94865">
        <ele>9</ele>
        <time>2022-06-11T20:02:21Z</time>
      </trkpt>
      <trkpt lat="43.11995" lon="5.94885">
        <ele>9</ele>
        <time>2022-06-11T20:02:24Z</time>
      </trkpt>
      <trkpt lat="43.11991" lon="5.94908">
        <ele>8</ele>
        <time>2022-06-11T20:02:27Z</time>
      </trkpt>
      <trkpt lat="43.11994" lon="5.94948">
        <ele>9</ele>
        <time>2022-06-11T20:02:32Z</time>
      </trkpt>
      <trkpt lat="43.11995" lon="5.94979">
        <ele>9</ele>
        <time>2022-06-11T20:02:36Z</time>
      </trkpt>
      <trkpt lat="43.11997" lon="5.95002">
        <ele>9</ele>
        <time>2022-06-11T20:02:39Z</time>
      </trkpt>
      <trkpt lat="43.12014" lon="5.95081">
        <ele>7</ele>
        <time>2022-06-11T20:02:50Z</time>
      </trkpt>
      <trkpt lat="43.12033" lon="5.95129">
        <ele>8</ele>
        <time>2022-06-11T20:02:57Z</time>
      </trkpt>
      <trkpt lat="43.1204" lon="5.95152">
        <ele>8</ele>
        <time>2022-06-11T20:03:00Z</time>
      </trkpt>
      <trkpt lat="43.12053" lon="5.95229">
        <ele>8</ele>
        <time>2022-06-11T20:03:10Z</time>
      </trkpt>
      <trkpt lat="43.12063" lon="5.95265">
        <ele>8</ele>
        <time>2022-06-11T20:03:15Z</time>
      </trkpt>
      <trkpt lat="43.12077" lon="5.95301">
        <ele>7</ele>
        <time>2022-06-11T20:03:21Z</time>
      </trkpt>
      <trkpt lat="43.1213" lon="5.95416">
        <ele>9</ele>
        <time>2022-06-11T20:03:38Z</time>
      </trkpt>
      <trkpt lat="43.12154" lon="5.95488">
        <ele>10</ele>
        <time>2022-06-11T20:03:49Z</time>
      </trkpt>
      <trkpt lat="43.12175" lon="5.95555">
        <ele>11</ele>
        <time>2022-06-11T20:03:58Z</time>
      </trkpt>
      <trkpt lat="43.12177" lon="5.9556">
        <ele>11</ele>
        <time>2022-06-11T20:03:59Z</time>
      </trkpt>
      <trkpt lat="43.12188" lon="5.95557">
        <ele>11</ele>
        <time>2022-06-11T20:04:01Z</time>
      </trkpt>
      <trkpt lat="43.12192" lon="5.95556">
        <ele>11</ele>
        <time>2022-06-11T20:04:02Z</time>
      </trkpt>
      <trkpt lat="43.1222" lon="5.95553">
        <ele>11</ele>
        <time>2022-06-11T20:04:07Z</time>
      </trkpt>
      <trkpt lat="43.12224" lon="5.95555">
        <ele>11</ele>
        <time>2022-06-11T20:04:07Z</time>
      </trkpt>
      <trkpt lat="43.12282" lon="5.95531">
        <ele>15</ele>
        <time>2022-06-11T20:04:18Z</time>
      </trkpt>
      <trkpt lat="43.12396" lon="5.9548">
        <ele>20</ele>
        <time>2022-06-11T20:04:40Z</time>
      </trkpt>
      <trkpt lat="43.12417" lon="5.95466">
        <ele>19</ele>
        <time>2022-06-11T20:04:44Z</time>
      </trkpt>
      <trkpt lat="43.12676" lon="5.96103">
        <ele>28</ele>
        <time>2022-06-11T20:06:18Z</time>
      </trkpt>
      <trkpt lat="43.12708" lon="5.96185">
        <ele>29</ele>
        <time>2022-06-11T20:06:30Z</time>
      </trkpt>
      <trkpt lat="43.12759" lon="5.96309">
        <ele>34</ele>
        <time>2022-06-11T20:06:49Z</time>
      </trkpt>
      <trkpt lat="43.12797" lon="5.96416">
        <ele>35</ele>
        <time>2022-06-11T20:07:04Z</time>
      </trkpt>
      <trkpt lat="43.12914" lon="5.96779">
        <ele>40</ele>
        <time>2022-06-11T20:07:56Z</time>
      </trkpt>
      <trkpt lat="43.12977" lon="5.96968">
        <ele>46</ele>
        <time>2022-06-11T20:08:23Z</time>
      </trkpt>
      <trkpt lat="43.13111" lon="5.973">
        <ele>46</ele>
        <time>2022-06-11T20:09:12Z</time>
      </trkpt>
      <trkpt lat="43.13139" lon="5.97373">
        <ele>45</ele>
        <time>2022-06-11T20:09:23Z</time>
      </trkpt>
      <trkpt lat="43.13156" lon="5.9741">
        <ele>45</ele>
        <time>2022-06-11T20:09:29Z</time>
      </trkpt>
      <trkpt lat="43.13194" lon="5.97505">
        <ele>49</ele>
        <time>2022-06-11T20:09:43Z</time>
      </trkpt>
      <trkpt lat="43.13206" lon="5.97557">
        <ele>49</ele>
        <time>2022-06-11T20:09:50Z</time>
      </trkpt>
      <trkpt lat="43.13215" lon="5.97575">
        <ele>49</ele>
        <time>2022-06-11T20:09:53Z</time>
      </trkpt>
      <trkpt lat="43.13236" lon="5.97601">
        <ele>50</ele>
        <time>2022-06-11T20:09:58Z</time>
      </trkpt>
      <trkpt lat="43.13249" lon="5.97618">
        <ele>51</ele>
        <time>2022-06-11T20:10:01Z</time>
      </trkpt>
      <trkpt lat="43.13264" lon="5.97635">
        <ele>51</ele>
        <time>2022-06-11T20:10:04Z</time>
      </trkpt>
      <trkpt lat="43.13275" lon="5.97644">
        <ele>52</ele>
        <time>2022-06-11T20:10:07Z</time>
      </trkpt>
      <trkpt lat="43.13398" lon="5.97705">
        <ele>57</ele>
        <time>2022-06-11T20:10:30Z</time>
      </trkpt>
      <trkpt lat="43.13501" lon="5.97753">
        <ele>61</ele>
        <time>2022-06-11T20:10:49Z</time>
      </trkpt>
      <trkpt lat="43.13529" lon="5.97764">
        <ele>63</ele>
        <time>2022-06-11T20:10:54Z</time>
      </trkpt>
      <trkpt lat="43.13532" lon="5.97777">
        <ele>62</ele>
        <time>2022-06-11T20:10:56Z</time>
      </trkpt>
      <trkpt lat="43.13539" lon="5.97784">
        <ele>63</ele>
        <time>2022-06-11T20:10:58Z</time>
      </trkpt>
      <trkpt lat="43.13543" lon="5.97786">
        <ele>63</ele>
        <time>2022-06-11T20:10:58Z</time>
      </trkpt>
      <trkpt lat="43.13553" lon="5.97783">
        <ele>64</ele>
        <time>2022-06-11T20:11:00Z</time>
      </trkpt>
      <trkpt lat="43.13556" lon="5.97779">
        <ele>64</ele>
        <time>2022-06-11T20:11:01Z</time>
      </trkpt>
      <trkpt lat="43.1356" lon="5.97768">
        <ele>65</ele>
        <time>2022-06-11T20:11:03Z</time>
      </trkpt>
      <trkpt lat="43.1357" lon="5.97751">
        <ele>66</ele>
        <time>2022-06-11T20:11:05Z</time>
      </trkpt>
      <trkpt lat="43.13574" lon="5.97748">
        <ele>66</ele>
        <time>2022-06-11T20:11:06Z</time>
      </trkpt>
      <trkpt lat="43.13646" lon="5.97752">
        <ele>71</ele>
        <time>2022-06-11T20:11:19Z</time>
      </trkpt>
      <trkpt lat="43.13674" lon="5.97756">
        <ele>72</ele>
        <time>2022-06-11T20:11:24Z</time>
      </trkpt>
      <trkpt lat="43.13746" lon="5.97776">
        <ele>76</ele>
        <time>2022-06-11T20:11:37Z</time>
      </trkpt>
      <trkpt lat="43.13776" lon="5.9779">
        <ele>76</ele>
        <time>2022-06-11T20:11:43Z</time>
      </trkpt>
      <trkpt lat="43.13846" lon="5.97831">
        <ele>76</ele>
        <time>2022-06-11T20:11:56Z</time>
      </trkpt>
      <trkpt lat="43.13863" lon="5.97838">
        <ele>76</ele>
        <time>2022-06-11T20:11:59Z</time>
      </trkpt>
      <trkpt lat="43.13903" lon="5.97846">
        <ele>78</ele>
        <time>2022-06-11T20:12:07Z</time>
      </trkpt>
      <trkpt lat="43.13952" lon="5.97845">
        <ele>80</ele>
        <time>2022-06-11T20:12:15Z</time>
      </trkpt>
      <trkpt lat="43.13978" lon="5.97849">
        <ele>81</ele>
        <time>2022-06-11T20:12:20Z</time>
      </trkpt>
      <trkpt lat="43.14065" lon="5.97893">
        <ele>87</ele>
        <time>2022-06-11T20:12:37Z</time>
      </trkpt>
      <trkpt lat="43.14082" lon="5.97903">
        <ele>89</ele>
        <time>2022-06-11T20:12:40Z</time>
      </trkpt>
      <trkpt lat="43.14123" lon="5.97934">
        <ele>90</ele>
        <time>2022-06-11T20:12:48Z</time>
      </trkpt>
      <trkpt lat="43.14136" lon="5.97941">
        <ele>90</ele>
        <time>2022-06-11T20:12:51Z</time>
      </trkpt>
      <trkpt lat="43.14163" lon="5.97949">
        <ele>91</ele>
        <time>2022-06-11T20:12:56Z</time>
      </trkpt>
      <trkpt lat="43.14192" lon="5.97955">
        <ele>92</ele>
        <time>2022-06-11T20:13:01Z</time>
      </trkpt>
      <trkpt lat="43.14257" lon="5.97957">
        <ele>98</ele>
        <time>2022-06-11T20:13:12Z</time>
      </trkpt>
      <trkpt lat="43.1432" lon="5.97972">
        <ele>101</ele>
        <time>2022-06-11T20:13:24Z</time>
      </trkpt>
      <trkpt lat="43.14442" lon="5.98016">
        <ele>104</ele>
        <time>2022-06-11T20:13:46Z</time>
      </trkpt>
      <trkpt lat="43.14459" lon="5.98014">
        <ele>105</ele>
        <time>2022-06-11T20:13:49Z</time>
      </trkpt>
      <trkpt lat="43.14482" lon="5.97999">
        <ele>106</ele>
        <time>2022-06-11T20:13:54Z</time>
      </trkpt>
      <trkpt lat="43.1451" lon="5.97971">
        <ele>111</ele>
        <time>2022-06-11T20:14:00Z</time>
      </trkpt>
      <trkpt lat="43.14552" lon="5.97917">
        <ele>114</ele>
        <time>2022-06-11T20:14:10Z</time>
      </trkpt>
      <trkpt lat="43.14574" lon="5.97892">
        <ele>117</ele>
        <time>2022-06-11T20:14:15Z</time>
      </trkpt>
      <trkpt lat="43.14594" lon="5.97874">
        <ele>117</ele>
        <time>2022-06-11T20:14:19Z</time>
      </trkpt>
      <trkpt lat="43.14671" lon="5.97821">
        <ele>114</ele>
        <time>2022-06-11T20:14:35Z</time>
      </trkpt>
      <trkpt lat="43.14703" lon="5.97801">
        <ele>114</ele>
        <time>2022-06-11T20:14:41Z</time>
      </trkpt>
      <trkpt lat="43.14709" lon="5.97804">
        <ele>113</ele>
        <time>2022-06-11T20:14:42Z</time>
      </trkpt>
      <trkpt lat="43.14717" lon="5.97811">
        <ele>112</ele>
        <time>2022-06-11T20:14:44Z</time>
      </trkpt>
      <trkpt lat="43.14725" lon="5.97819">
        <ele>111</ele>
        <time>2022-06-11T20:14:46Z</time>
      </trkpt>
      <trkpt lat="43.14729" lon="5.97832">
        <ele>109</ele>
        <time>2022-06-11T20:14:47Z</time>
      </trkpt>
      <trkpt lat="43.14736" lon="5.97842">
        <ele>108</ele>
        <time>2022-06-11T20:14:49Z</time>
      </trkpt>
      <trkpt lat="43.14747" lon="5.97844">
        <ele>108</ele>
        <time>2022-06-11T20:14:51Z</time>
      </trkpt>
      <trkpt lat="43.14752" lon="5.97843">
        <ele>108</ele>
        <time>2022-06-11T20:14:52Z</time>
      </trkpt>
      <trkpt lat="43.14758" lon="5.97837">
        <ele>108</ele>
        <time>2022-06-11T20:14:53Z</time>
      </trkpt>
      <trkpt lat="43.14763" lon="5.97827">
        <ele>109</ele>
        <time>2022-06-11T20:14:55Z</time>
      </trkpt>
      <trkpt lat="43.14764" lon="5.97821">
        <ele>109</ele>
        <time>2022-06-11T20:14:56Z</time>
      </trkpt>
      <trkpt lat="43.14763" lon="5.97809">
        <ele>110</ele>
        <time>2022-06-11T20:14:57Z</time>
      </trkpt>
      <trkpt lat="43.14765" lon="5.97798">
        <ele>111</ele>
        <time>2022-06-11T20:14:59Z</time>
      </trkpt>
      <trkpt lat="43.14786" lon="5.97744">
        <ele>115</ele>
        <time>2022-06-11T20:15:07Z</time>
      </trkpt>
      <trkpt lat="43.14791" lon="5.97722">
        <ele>116</ele>
        <time>2022-06-11T20:15:10Z</time>
      </trkpt>
      <trkpt lat="43.14808" lon="5.97672">
        <ele>118</ele>
        <time>2022-06-11T20:15:17Z</time>
      </trkpt>
      <trkpt lat="43.14845" lon="5.97579">
        <ele>126</ele>
        <time>2022-06-11T20:15:31Z</time>
      </trkpt>
      <trkpt lat="43.14857" lon="5.97541">
        <ele>128</ele>
        <time>2022-06-11T20:15:36Z</time>
      </trkpt>
      <trkpt lat="43.14878" lon="5.97458">
        <ele>134</ele>
        <time>2022-06-11T20:15:48Z</time>
      </trkpt>
      <trkpt lat="43.1489" lon="5.97422">
        <ele>136</ele>
        <time>2022-06-11T20:15:53Z</time>
      </trkpt>
      <trkpt lat="43.14904" lon="5.97389">
        <ele>137</ele>
        <time>2022-06-11T20:15:58Z</time>
      </trkpt>
      <trkpt lat="43.14945" lon="5.97317">
        <ele>140</ele>
        <time>2022-06-11T20:16:09Z</time>
      </trkpt>
      <trkpt lat="43.15005" lon="5.97223">
        <ele>148</ele>
        <time>2022-06-11T20:16:26Z</time>
      </trkpt>
      <trkpt lat="43.15017" lon="5.97194">
        <ele>150</ele>
        <time>2022-06-11T20:16:30Z</time>
      </trkpt>
      <trkpt lat="43.15058" lon="5.9708">
        <ele>154</ele>
        <time>2022-06-11T20:16:47Z</time>
      </trkpt>
      <trkpt lat="43.15081" lon="5.97025">
        <ele>155</ele>
        <time>2022-06-11T20:16:55Z</time>
      </trkpt>
      <trkpt lat="43.15106" lon="5.96954">
        <ele>159</ele>
        <time>2022-06-11T20:17:05Z</time>
      </trkpt>
      <trkpt lat="43.15119" lon="5.96923">
        <ele>160</ele>
        <time>2022-06-11T20:17:10Z</time>
      </trkpt>
      <trkpt lat="43.15157" lon="5.96862">
        <ele>159</ele>
        <time>2022-06-11T20:17:20Z</time>
      </trkpt>
      <trkpt lat="43.15179" lon="5.96832">
        <ele>161</ele>
        <time>2022-06-11T20:17:26Z</time>
      </trkpt>
      <trkpt lat="43.15201" lon="5.96797">
        <ele>166</ele>
        <time>2022-06-11T20:17:32Z</time>
      </trkpt>
      <trkpt lat="43.15211" lon="5.96777">
        <ele>167</ele>
        <time>2022-06-11T20:17:35Z</time>
      </trkpt>
      <trkpt lat="43.15233" lon="5.96722">
        <ele>169</ele>
        <time>2022-06-11T20:17:43Z</time>
      </trkpt>
      <trkpt lat="43.15239" lon="5.96701">
        <ele>170</ele>
        <time>2022-06-11T20:17:46Z</time>
      </trkpt>
      <trkpt lat="43.15244" lon="5.96667">
        <ele>171</ele>
        <time>2022-06-11T20:17:50Z</time>
      </trkpt>
      <trkpt lat="43.15261" lon="5.96527">
        <ele>180</ele>
        <time>2022-06-11T20:18:09Z</time>
      </trkpt>
      <trkpt lat="43.15268" lon="5.96484">
        <ele>183</ele>
        <time>2022-06-11T20:18:14Z</time>
      </trkpt>
      <trkpt lat="43.15277" lon="5.96436">
        <ele>187</ele>
        <time>2022-06-11T20:18:21Z</time>
      </trkpt>
      <trkpt lat="43.15283" lon="5.96418">
        <ele>187</ele>
        <time>2022-06-11T20:18:23Z</time>
      </trkpt>
      <trkpt lat="43.15404" lon="5.96162">
        <ele>211</ele>
        <time>2022-06-11T20:19:03Z</time>
      </trkpt>
      <trkpt lat="43.15413" lon="5.96148">
        <ele>211</ele>
        <time>2022-06-11T20:19:05Z</time>
      </trkpt>
      <trkpt lat="43.15423" lon="5.96137">
        <ele>212</ele>
        <time>2022-06-11T20:19:08Z</time>
      </trkpt>
      <trkpt lat="43.15432" lon="5.96132">
        <ele>213</ele>
        <time>2022-06-11T20:19:09Z</time>
      </trkpt>
      <trkpt lat="43.15443" lon="5.9613">
        <ele>213</ele>
        <time>2022-06-11T20:19:11Z</time>
      </trkpt>
      <trkpt lat="43.15455" lon="5.96131">
        <ele>212</ele>
        <time>2022-06-11T20:19:14Z</time>
      </trkpt>
      <trkpt lat="43.15466" lon="5.96135">
        <ele>211</ele>
        <time>2022-06-11T20:19:16Z</time>
      </trkpt>
      <trkpt lat="43.15522" lon="5.96168">
        <ele>208</ele>
        <time>2022-06-11T20:19:26Z</time>
      </trkpt>
      <trkpt lat="43.15531" lon="5.9617">
        <ele>208</ele>
        <time>2022-06-11T20:19:28Z</time>
      </trkpt>
      <trkpt lat="43.15539" lon="5.96168">
        <ele>209</ele>
        <time>2022-06-11T20:19:29Z</time>
      </trkpt>
      <trkpt lat="43.15544" lon="5.96165">
        <ele>209</ele>
        <time>2022-06-11T20:19:30Z</time>
      </trkpt>
      <trkpt lat="43.15553" lon="5.96153">
        <ele>209</ele>
        <time>2022-06-11T20:19:33Z</time>
      </trkpt>
      <trkpt lat="43.15557" lon="5.96141">
        <ele>208</ele>
        <time>2022-06-11T20:19:34Z</time>
      </trkpt>
      <trkpt lat="43.15568" lon="5.96071">
        <ele>207</ele>
        <time>2022-06-11T20:19:44Z</time>
      </trkpt>
      <trkpt lat="43.15579" lon="5.96041">
        <ele>208</ele>
        <time>2022-06-11T20:19:48Z</time>
      </trkpt>
      <trkpt lat="43.15589" lon="5.96024">
        <ele>208</ele>
        <time>2022-06-11T20:19:51Z</time>
      </trkpt>
      <trkpt lat="43.15601" lon="5.96011">
        <ele>208</ele>
        <time>2022-06-11T20:19:54Z</time>
      </trkpt>
      <trkpt lat="43.15684" lon="5.95919">
        <ele>203</ele>
        <time>2022-06-11T20:20:13Z</time>
      </trkpt>
      <trkpt lat="43.1571" lon="5.95887">
        <ele>199</ele>
        <time>2022-06-11T20:20:19Z</time>
      </trkpt>
      <trkpt lat="43.15729" lon="5.95854">
        <ele>195</ele>
        <time>2022-06-11T20:20:24Z</time>
      </trkpt>
      <trkpt lat="43.15765" lon="5.95768">
        <ele>191</ele>
        <time>2022-06-11T20:20:37Z</time>
      </trkpt>
      <trkpt lat="43.15786" lon="5.95694">
        <ele>188</ele>
        <time>2022-06-11T20:20:47Z</time>
      </trkpt>
      <trkpt lat="43.15793" lon="5.95678">
        <ele>186</ele>
        <time>2022-06-11T20:20:50Z</time>
      </trkpt>
      <trkpt lat="43.15804" lon="5.95663">
        <ele>185</ele>
        <time>2022-06-11T20:20:53Z</time>
      </trkpt>
      <trkpt lat="43.15874" lon="5.95584">
        <ele>181</ele>
        <time>2022-06-11T20:21:09Z</time>
      </trkpt>
      <trkpt lat="43.15892" lon="5.95556">
        <ele>179</ele>
        <time>2022-06-11T20:21:14Z</time>
      </trkpt>
      <trkpt lat="43.15907" lon="5.95528">
        <ele>178</ele>
        <time>2022-06-11T20:21:18Z</time>
      </trkpt>
      <trkpt lat="43.15944" lon="5.95438">
        <ele>177</ele>
        <time>2022-06-11T20:21:32Z</time>
      </trkpt>
      <trkpt lat="43.15951" lon="5.95424">
        <ele>177</ele>
        <time>2022-06-11T20:21:34Z</time>
      </trkpt>
      <trkpt lat="43.16033" lon="5.95293">
        <ele>166</ele>
        <time>2022-06-11T20:21:56Z</time>
      </trkpt>
      <trkpt lat="43.16067" lon="5.95244">
        <ele>163</ele>
        <time>2022-06-11T20:22:05Z</time>
      </trkpt>
      <trkpt lat="43.1609" lon="5.95217">
        <ele>161</ele>
        <time>2022-06-11T20:22:10Z</time>
      </trkpt>
      <trkpt lat="43.16115" lon="5.95195">
        <ele>159</ele>
        <time>2022-06-11T20:22:16Z</time>
      </trkpt>
      <trkpt lat="43.16166" lon="5.95154">
        <ele>153</ele>
        <time>2022-06-11T20:22:26Z</time>
      </trkpt>
      <trkpt lat="43.1619" lon="5.95131">
        <ele>151</ele>
        <time>2022-06-11T20:22:31Z</time>
      </trkpt>
      <trkpt lat="43.16207" lon="5.95106">
        <ele>150</ele>
        <time>2022-06-11T20:22:36Z</time>
      </trkpt>
      <trkpt lat="43.16226" lon="5.95066">
        <ele>148</ele>
        <time>2022-06-11T20:22:42Z</time>
      </trkpt>
      <trkpt lat="43.16234" lon="5.95041">
        <ele>146</ele>
        <time>2022-06-11T20:22:45Z</time>
      </trkpt>
      <trkpt lat="43.16252" lon="5.94962">
        <ele>142</ele>
        <time>2022-06-11T20:22:56Z</time>
      </trkpt>
      <trkpt lat="43.16255" lon="5.94941">
        <ele>141</ele>
        <time>2022-06-11T20:22:59Z</time>
      </trkpt>
      <trkpt lat="43.16257" lon="5.94878">
        <ele>142</ele>
        <time>2022-06-11T20:23:07Z</time>
      </trkpt>
      <trkpt lat="43.16261" lon="5.94841">
        <ele>142</ele>
        <time>2022-06-11T20:23:12Z</time>
      </trkpt>
      <trkpt lat="43.16279" lon="5.9475">
        <ele>140</ele>
        <time>2022-06-11T20:23:24Z</time>
      </trkpt>
      <trkpt lat="43.16285" lon="5.94701">
        <ele>137</ele>
        <time>2022-06-11T20:23:31Z</time>
      </trkpt>
      <trkpt lat="43.16284" lon="5.9464">
        <ele>137</ele>
        <time>2022-06-11T20:23:39Z</time>
      </trkpt>
      <trkpt lat="43.16285" lon="5.94625">
        <ele>136</ele>
        <time>2022-06-11T20:23:41Z</time>
      </trkpt>
      <trkpt lat="43.16289" lon="5.94609">
        <ele>135</ele>
        <time>2022-06-11T20:23:43Z</time>
      </trkpt>
      <trkpt lat="43.16296" lon="5.94592">
        <ele>134</ele>
        <time>2022-06-11T20:23:45Z</time>
      </trkpt>
      <trkpt lat="43.1631" lon="5.94567">
        <ele>131</ele>
        <time>2022-06-11T20:23:49Z</time>
      </trkpt>
      <trkpt lat="43.16318" lon="5.94548">
        <ele>130</ele>
        <time>2022-06-11T20:23:52Z</time>
      </trkpt>
      <trkpt lat="43.16362" lon="5.94364">
        <ele>129</ele>
        <time>2022-06-11T20:24:17Z</time>
      </trkpt>
      <trkpt lat="43.16369" lon="5.94342">
        <ele>128</ele>
        <time>2022-06-11T20:24:21Z</time>
      </trkpt>
      <trkpt lat="43.16387" lon="5.943">
        <ele>125</ele>
        <time>2022-06-11T20:24:27Z</time>
      </trkpt>
      <trkpt lat="43.16394" lon="5.94278">
        <ele>124</ele>
        <time>2022-06-11T20:24:30Z</time>
      </trkpt>
      <trkpt lat="43.16399" lon="5.94249">
        <ele>123</ele>
        <time>2022-06-11T20:24:34Z</time>
      </trkpt>
      <trkpt lat="43.16409" lon="5.94217">
        <ele>120</ele>
        <time>2022-06-11T20:24:38Z</time>
      </trkpt>
      <trkpt lat="43.16434" lon="5.94157">
        <ele>115</ele>
        <time>2022-06-11T20:24:47Z</time>
      </trkpt>
      <trkpt lat="43.16467" lon="5.9404">
        <ele>106</ele>
        <time>2022-06-11T20:25:04Z</time>
      </trkpt>
      <trkpt lat="43.16479" lon="5.94005">
        <ele>103</ele>
        <time>2022-06-11T20:25:09Z</time>
      </trkpt>
      <trkpt lat="43.16508" lon="5.93948">
        <ele>100</ele>
        <time>2022-06-11T20:25:18Z</time>
      </trkpt>
      <trkpt lat="43.16515" lon="5.93923">
        <ele>100</ele>
        <time>2022-06-11T20:25:21Z</time>
      </trkpt>
      <trkpt lat="43.16533" lon="5.93818">
        <ele>98</ele>
        <time>2022-06-11T20:25:35Z</time>
      </trkpt>
      <trkpt lat="43.16537" lon="5.93777">
        <ele>96</ele>
        <time>2022-06-11T20:25:40Z</time>
      </trkpt>
      <trkpt lat="43.16536" lon="5.93698">
        <ele>93</ele>
        <time>2022-06-11T20:25:51Z</time>
      </trkpt>
      <trkpt lat="43.16531" lon="5.93655">
        <ele>92</ele>
        <time>2022-06-11T20:25:56Z</time>
      </trkpt>
      <trkpt lat="43.16521" lon="5.93585">
        <ele>90</ele>
        <time>2022-06-11T20:26:06Z</time>
      </trkpt>
      <trkpt lat="43.16506" lon="5.93513">
        <ele>86</ele>
        <time>2022-06-11T20:26:15Z</time>
      </trkpt>
      <trkpt lat="43.165" lon="5.93488">
        <ele>86</ele>
        <time>2022-06-11T20:26:19Z</time>
      </trkpt>
      <trkpt lat="43.16485" lon="5.93444">
        <ele>87</ele>
        <time>2022-06-11T20:26:25Z</time>
      </trkpt>
      <trkpt lat="43.1645" lon="5.93382">
        <ele>88</ele>
        <time>2022-06-11T20:26:35Z</time>
      </trkpt>
      <trkpt lat="43.16429" lon="5.93334">
        <ele>87</ele>
        <time>2022-06-11T20:26:43Z</time>
      </trkpt>
      <trkpt lat="43.16396" lon="5.93222">
        <ele>82</ele>
        <time>2022-06-11T20:26:58Z</time>
      </trkpt>
      <trkpt lat="43.16377" lon="5.93131">
        <ele>79</ele>
        <time>2022-06-11T20:27:10Z</time>
      </trkpt>
      <trkpt lat="43.16368" lon="5.93099">
        <ele>79</ele>
        <time>2022-06-11T20:27:15Z</time>
      </trkpt>
      <trkpt lat="43.16348" lon="5.93049">
        <ele>78</ele>
        <time>2022-06-11T20:27:22Z</time>
      </trkpt>
      <trkpt lat="43.16342" lon="5.93029">
        <ele>78</ele>
        <time>2022-06-11T20:27:25Z</time>
      </trkpt>
      <trkpt lat="43.16323" lon="5.92936">
        <ele>76</ele>
        <time>2022-06-11T20:27:38Z</time>
      </trkpt>
      <trkpt lat="43.16302" lon="5.92868">
        <ele>76</ele>
        <time>2022-06-11T20:27:47Z</time>
      </trkpt>
      <trkpt lat="43.16298" lon="5.92851">
        <ele>75</ele>
        <time>2022-06-11T20:27:50Z</time>
      </trkpt>
      <trkpt lat="43.16297" lon="5.92835">
        <ele>74</ele>
        <time>2022-06-11T20:27:52Z</time>
      </trkpt>
      <trkpt lat="43.16298" lon="5.92807">
        <ele>72</ele>
        <time>2022-06-11T20:27:55Z</time>
      </trkpt>
      <trkpt lat="43.16303" lon="5.92786">
        <ele>69</ele>
        <time>2022-06-11T20:27:58Z</time>
      </trkpt>
      <trkpt lat="43.16311" lon="5.92767">
        <ele>67</ele>
        <time>2022-06-11T20:28:01Z</time>
      </trkpt>
      <trkpt lat="43.16332" lon="5.92734">
        <ele>63</ele>
        <time>2022-06-11T20:28:07Z</time>
      </trkpt>
      <trkpt lat="43.16337" lon="5.92724">
        <ele>63</ele>
        <time>2022-06-11T20:28:08Z</time>
      </trkpt>
      <trkpt lat="43.16344" lon="5.92717">
        <ele>63</ele>
        <time>2022-06-11T20:28:10Z</time>
      </trkpt>
      <trkpt lat="43.16346" lon="5.92712">
        <ele>63</ele>
        <time>2022-06-11T20:28:11Z</time>
      </trkpt>
      <trkpt lat="43.16346" lon="5.92699">
        <ele>63</ele>
        <time>2022-06-11T20:28:12Z</time>
      </trkpt>
      <trkpt lat="43.16341" lon="5.9269">
        <ele>62</ele>
        <time>2022-06-11T20:28:14Z</time>
      </trkpt>
      <trkpt lat="43.16333" lon="5.92685">
        <ele>61</ele>
        <time>2022-06-11T20:28:15Z</time>
      </trkpt>
      <trkpt lat="43.16324" lon="5.92673">
        <ele>62</ele>
        <time>2022-06-11T20:28:17Z</time>
      </trkpt>
      <trkpt lat="43.163" lon="5.92649">
        <ele>64</ele>
        <time>2022-06-11T20:28:23Z</time>
      </trkpt>
      <trkpt lat="43.16219" lon="5.92561">
        <ele>66</ele>
        <time>2022-06-11T20:28:41Z</time>
      </trkpt>
      <trkpt lat="43.16207" lon="5.92544">
        <ele>66</ele>
        <time>2022-06-11T20:28:44Z</time>
      </trkpt>
      <trkpt lat="43.1615" lon="5.92452">
        <ele>65</ele>
        <time>2022-06-11T20:29:00Z</time>
      </trkpt>
      <trkpt lat="43.16047" lon="5.92293">
        <ele>65</ele>
        <time>2022-06-11T20:29:28Z</time>
      </trkpt>
      <trkpt lat="43.16026" lon="5.92259">
        <ele>64</ele>
        <time>2022-06-11T20:29:33Z</time>
      </trkpt>
      <trkpt lat="43.16005" lon="5.92233">
        <ele>64</ele>
        <time>2022-06-11T20:29:38Z</time>
      </trkpt>
      <trkpt lat="43.15948" lon="5.92174">
        <ele>62</ele>
        <time>2022-06-11T20:29:51Z</time>
      </trkpt>
      <trkpt lat="43.15938" lon="5.92161">
        <ele>62</ele>
        <time>2022-06-11T20:29:53Z</time>
      </trkpt>
      <trkpt lat="43.15925" lon="5.92139">
        <ele>60</ele>
        <time>2022-06-11T20:29:57Z</time>
      </trkpt>
      <trkpt lat="43.15922" lon="5.9213">
        <ele>60</ele>
        <time>2022-06-11T20:29:58Z</time>
      </trkpt>
      <trkpt lat="43.15921" lon="5.92105">
        <ele>58</ele>
        <time>2022-06-11T20:30:02Z</time>
      </trkpt>
      <trkpt lat="43.15924" lon="5.92095">
        <ele>57</ele>
        <time>2022-06-11T20:30:03Z</time>
      </trkpt>
      <trkpt lat="43.15928" lon="5.92086">
        <ele>56</ele>
        <time>2022-06-11T20:30:04Z</time>
      </trkpt>
      <trkpt lat="43.15941" lon="5.92067">
        <ele>56</ele>
        <time>2022-06-11T20:30:08Z</time>
      </trkpt>
      <trkpt lat="43.15952" lon="5.92045">
        <ele>56</ele>
        <time>2022-06-11T20:30:11Z</time>
      </trkpt>
      <trkpt lat="43.1596" lon="5.92019">
        <ele>57</ele>
        <time>2022-06-11T20:30:15Z</time>
      </trkpt>
      <trkpt lat="43.15962" lon="5.91998">
        <ele>57</ele>
        <time>2022-06-11T20:30:18Z</time>
      </trkpt>
      <trkpt lat="43.15948" lon="5.91901">
        <ele>57</ele>
        <time>2022-06-11T20:30:31Z</time>
      </trkpt>
      <trkpt lat="43.15942" lon="5.91871">
        <ele>57</ele>
        <time>2022-06-11T20:30:35Z</time>
      </trkpt>
      <trkpt lat="43.15923" lon="5.91798">
        <ele>59</ele>
        <time>2022-06-11T20:30:45Z</time>
      </trkpt>
      <trkpt lat="43.1592" lon="5.91787">
        <ele>60</ele>
        <time>2022-06-11T20:30:46Z</time>
      </trkpt>
      <trkpt lat="43.15919" lon="5.9178">
        <ele>60</ele>
        <time>2022-06-11T20:30:47Z</time>
      </trkpt>
      <trkpt lat="43.15919" lon="5.91775">
        <ele>60</ele>
        <time>2022-06-11T20:30:48Z</time>
      </trkpt>
      <trkpt lat="43.15912" lon="5.91762">
        <ele>61</ele>
        <time>2022-06-11T20:30:50Z</time>
      </trkpt>
      <trkpt lat="43.15909" lon="5.9176">
        <ele>61</ele>
        <time>2022-06-11T20:30:50Z</time>
      </trkpt>
      <trkpt lat="43.15904" lon="5.9176">
        <ele>61</ele>
        <time>2022-06-11T20:30:51Z</time>
      </trkpt>
      <trkpt lat="43.1589" lon="5.91769">
        <ele>60</ele>
        <time>2022-06-11T20:30:54Z</time>
      </trkpt>
      <trkpt lat="43.15853" lon="5.91782">
        <ele>57</ele>
        <time>2022-06-11T20:31:01Z</time>
      </trkpt>
      <trkpt lat="43.15826" lon="5.91784">
        <ele>56</ele>
        <time>2022-06-11T20:31:06Z</time>
      </trkpt>
      <trkpt lat="43.15809" lon="5.91781">
        <ele>55</ele>
        <time>2022-06-11T20:31:09Z</time>
      </trkpt>
      <trkpt lat="43.15784" lon="5.91764">
        <ele>53</ele>
        <time>2022-06-11T20:31:14Z</time>
      </trkpt>
      <trkpt lat="43.15707" lon="5.91673">
        <ele>50</ele>
        <time>2022-06-11T20:31:32Z</time>
      </trkpt>
      <trkpt lat="43.15687" lon="5.91658">
        <ele>51</ele>
        <time>2022-06-11T20:31:36Z</time>
      </trkpt>
      <trkpt lat="43.15669" lon="5.9165">
        <ele>51</ele>
        <time>2022-06-11T20:31:39Z</time>
      </trkpt>
      <trkpt lat="43.15638" lon="5.91643">
        <ele>50</ele>
        <time>2022-06-11T20:31:45Z</time>
      </trkpt>
      <trkpt lat="43.15613" lon="5.91632">
        <ele>49</ele>
        <time>2022-06-11T20:31:49Z</time>
      </trkpt>
      <trkpt lat="43.15592" lon="5.91621">
        <ele>48</ele>
        <time>2022-06-11T20:31:53Z</time>
      </trkpt>
      <trkpt lat="43.15564" lon="5.91594">
        <ele>47</ele>
        <time>2022-06-11T20:32:00Z</time>
      </trkpt>
      <trkpt lat="43.15537" lon="5.91573">
        <ele>49</ele>
        <time>2022-06-11T20:32:05Z</time>
      </trkpt>
      <trkpt lat="43.15498" lon="5.91559">
        <ele>49</ele>
        <time>2022-06-11T20:32:12Z</time>
      </trkpt>
      <trkpt lat="43.15453" lon="5.91545">
        <ele>47</ele>
        <time>2022-06-11T20:32:20Z</time>
      </trkpt>
      <trkpt lat="43.15389" lon="5.91519">
        <ele>44</ele>
        <time>2022-06-11T20:32:32Z</time>
      </trkpt>
      <trkpt lat="43.15329" lon="5.91498">
        <ele>37</ele>
        <time>2022-06-11T20:32:43Z</time>
      </trkpt>
      <trkpt lat="43.15315" lon="5.91497">
        <ele>37</ele>
        <time>2022-06-11T20:32:46Z</time>
      </trkpt>
      <trkpt lat="43.15303" lon="5.91501">
        <ele>37</ele>
        <time>2022-06-11T20:32:48Z</time>
      </trkpt>
      <trkpt lat="43.1529" lon="5.9151">
        <ele>38</ele>
        <time>2022-06-11T20:32:51Z</time>
      </trkpt>
      <trkpt lat="43.1528" lon="5.91511">
        <ele>38</ele>
        <time>2022-06-11T20:32:52Z</time>
      </trkpt>
      <trkpt lat="43.15212" lon="5.91512">
        <ele>39</ele>
        <time>2022-06-11T20:33:05Z</time>
      </trkpt>
      <trkpt lat="43.15182" lon="5.91505">
        <ele>40</ele>
        <time>2022-06-11T20:33:10Z</time>
      </trkpt>
      <trkpt lat="43.1515" lon="5.91491">
        <ele>39</ele>
        <time>2022-06-11T20:33:16Z</time>
      </trkpt>
      <trkpt lat="43.15114" lon="5.91471">
        <ele>36</ele>
        <time>2022-06-11T20:33:23Z</time>
      </trkpt>
      <trkpt lat="43.15095" lon="5.91462">
        <ele>35</ele>
        <time>2022-06-11T20:33:26Z</time>
      </trkpt>
      <trkpt lat="43.15087" lon="5.91459">
        <ele>34</ele>
        <time>2022-06-11T20:33:28Z</time>
      </trkpt>
      <trkpt lat="43.15088" lon="5.91452">
        <ele>34</ele>
        <time>2022-06-11T20:33:29Z</time>
      </trkpt>
      <trkpt lat="43.15116" lon="5.91393">
        <ele>34</ele>
        <time>2022-06-11T20:33:38Z</time>
      </trkpt>
      <trkpt lat="43.15126" lon="5.91369">
        <ele>35</ele>
        <time>2022-06-11T20:33:42Z</time>
      </trkpt>
      <trkpt lat="43.1516" lon="5.91357">
        <ele>38</ele>
        <time>2022-06-11T20:33:48Z</time>
      </trkpt>
      <trkpt lat="43.15165" lon="5.91352">
        <ele>38</ele>
        <time>2022-06-11T20:33:49Z</time>
      </trkpt>
      <trkpt lat="43.15177" lon="5.91331">
        <ele>40</ele>
        <time>2022-06-11T20:33:52Z</time>
      </trkpt>
      <trkpt lat="43.15205" lon="5.91283">
        <ele>43</ele>
        <time>2022-06-11T20:34:00Z</time>
      </trkpt>
      <trkpt lat="43.15211" lon="5.91257">
        <ele>44</ele>
        <time>2022-06-11T20:34:04Z</time>
      </trkpt>
      <trkpt lat="43.15211" lon="5.91241">
        <ele>45</ele>
        <time>2022-06-11T20:34:06Z</time>
      </trkpt>
      <trkpt lat="43.15202" lon="5.91188">
        <ele>50</ele>
        <time>2022-06-11T20:34:13Z</time>
      </trkpt>
      <trkpt lat="43.15193" lon="5.91138">
        <ele>55</ele>
        <time>2022-06-11T20:34:20Z</time>
      </trkpt>
      <trkpt lat="43.1518" lon="5.91085">
        <ele>59</ele>
        <time>2022-06-11T20:34:27Z</time>
      </trkpt>
      <trkpt lat="43.15158" lon="5.91067">
        <ele>61</ele>
        <time>2022-06-11T20:34:32Z</time>
      </trkpt>
      <trkpt lat="43.15142" lon="5.91053">
        <ele>63</ele>
        <time>2022-06-11T20:34:35Z</time>
      </trkpt>
      <trkpt lat="43.1513" lon="5.91051">
        <ele>63</ele>
        <time>2022-06-11T20:34:37Z</time>
      </trkpt>
      <trkpt lat="43.15126" lon="5.91052">
        <ele>63</ele>
        <time>2022-06-11T20:34:38Z</time>
      </trkpt>
      <trkpt lat="43.15102" lon="5.91071">
        <ele>64</ele>
        <time>2022-06-11T20:34:43Z</time>
      </trkpt>
      <trkpt lat="43.15094" lon="5.91075">
        <ele>64</ele>
        <time>2022-06-11T20:34:44Z</time>
      </trkpt>
      <trkpt lat="43.15088" lon="5.91071">
        <ele>65</ele>
        <time>2022-06-11T20:34:45Z</time>
      </trkpt>
      <trkpt lat="43.15085" lon="5.91065">
        <ele>65</ele>
        <time>2022-06-11T20:34:46Z</time>
      </trkpt>
      <trkpt lat="43.15077" lon="5.91034">
        <ele>65</ele>
        <time>2022-06-11T20:34:51Z</time>
      </trkpt>
      <trkpt lat="43.15077" lon="5.91021">
        <ele>65</ele>
        <time>2022-06-11T20:34:52Z</time>
      </trkpt>
      <trkpt lat="43.15079" lon="5.91015">
        <ele>65</ele>
        <time>2022-06-11T20:34:53Z</time>
      </trkpt>
      <trkpt lat="43.15116" lon="5.90994">
        <ele>66</ele>
        <time>2022-06-11T20:35:00Z</time>
      </trkpt>
      <trkpt lat="43.1512" lon="5.90991">
        <ele>67</ele>
        <time>2022-06-11T20:35:01Z</time>
      </trkpt>
      <trkpt lat="43.15121" lon="5.90987">
        <ele>67</ele>
        <time>2022-06-11T20:35:02Z</time>
      </trkpt>
      <trkpt lat="43.15136" lon="5.90984">
        <ele>68</ele>
        <time>2022-06-11T20:35:04Z</time>
      </trkpt>
      <trkpt lat="43.15209" lon="5.9098">
        <ele>73</ele>
        <time>2022-06-11T20:35:17Z</time>
      </trkpt>
      <trkpt lat="43.15218" lon="5.90977">
        <ele>74</ele>
        <time>2022-06-11T20:35:19Z</time>
      </trkpt>
      <trkpt lat="43.15258" lon="5.9094">
        <ele>84</ele>
        <time>2022-06-11T20:35:28Z</time>
      </trkpt>
      <trkpt lat="43.1528" lon="5.90906">
        <ele>90</ele>
        <time>2022-06-11T20:35:33Z</time>
      </trkpt>
      <trkpt lat="43.15302" lon="5.90867">
        <ele>97</ele>
        <time>2022-06-11T20:35:40Z</time>
      </trkpt>
      <trkpt lat="43.15306" lon="5.90831">
        <ele>103</ele>
        <time>2022-06-11T20:35:45Z</time>
      </trkpt>
      <trkpt lat="43.15347" lon="5.90792">
        <ele>109</ele>
        <time>2022-06-11T20:35:53Z</time>
      </trkpt>
      <trkpt lat="43.15385" lon="5.90738">
        <ele>115</ele>
        <time>2022-06-11T20:36:03Z</time>
      </trkpt>
      <trkpt lat="43.15388" lon="5.90729">
        <ele>116</ele>
        <time>2022-06-11T20:36:04Z</time>
      </trkpt>
      <trkpt lat="43.15387" lon="5.90726">
        <ele>116</ele>
        <time>2022-06-11T20:36:05Z</time>
      </trkpt>
      <trkpt lat="43.15397" lon="5.90719">
        <ele>117</ele>
        <time>2022-06-11T20:36:07Z</time>
      </trkpt>
      <trkpt lat="43.15411" lon="5.90695">
        <ele>121</ele>
        <time>2022-06-11T20:36:11Z</time>
      </trkpt>
      <trkpt lat="43.15437" lon="5.90667">
        <ele>130</ele>
        <time>2022-06-11T20:36:17Z</time>
      </trkpt>
      <trkpt lat="43.15448" lon="5.90666">
        <ele>132</ele>
        <time>2022-06-11T20:36:19Z</time>
      </trkpt>
      <trkpt lat="43.15471" lon="5.90676">
        <ele>134</ele>
        <time>2022-06-11T20:36:23Z</time>
      </trkpt>
      <trkpt lat="43.15569" lon="5.90758">
        <ele>132</ele>
        <time>2022-06-11T20:36:43Z</time>
      </trkpt>
      <trkpt lat="43.15599" lon="5.90763">
        <ele>134</ele>
        <time>2022-06-11T20:36:49Z</time>
      </trkpt>
      <trkpt lat="43.15629" lon="5.90763">
        <ele>134</ele>
        <time>2022-06-11T20:36:54Z</time>
      </trkpt>
      <trkpt lat="43.15658" lon="5.9075">
        <ele>140</ele>
        <time>2022-06-11T20:37:00Z</time>
      </trkpt>
      <trkpt lat="43.15673" lon="5.90736">
        <ele>142</ele>
        <time>2022-06-11T20:37:03Z</time>
      </trkpt>
      <trkpt lat="43.15689" lon="5.90711">
        <ele>145</ele>
        <time>2022-06-11T20:37:07Z</time>
      </trkpt>
      <trkpt lat="43.15702" lon="5.90677">
        <ele>152</ele>
        <time>2022-06-11T20:37:12Z</time>
      </trkpt>
      <trkpt lat="43.1572" lon="5.90656">
        <ele>157</ele>
        <time>2022-06-11T20:37:16Z</time>
      </trkpt>
      <trkpt lat="43.1574" lon="5.90652">
        <ele>158</ele>
        <time>2022-06-11T20:37:20Z</time>
      </trkpt>
      <trkpt lat="43.15763" lon="5.90664">
        <ele>154</ele>
        <time>2022-06-11T20:37:24Z</time>
      </trkpt>
      <trkpt lat="43.15789" lon="5.90673">
        <ele>150</ele>
        <time>2022-06-11T20:37:29Z</time>
      </trkpt>
      <trkpt lat="43.15805" lon="5.90671">
        <ele>151</ele>
        <time>2022-06-11T20:37:32Z</time>
      </trkpt>
      <trkpt lat="43.1582" lon="5.90662">
        <ele>154</ele>
        <time>2022-06-11T20:37:35Z</time>
      </trkpt>
      <trkpt lat="43.15837" lon="5.90647">
        <ele>158</ele>
        <time>2022-06-11T20:37:38Z</time>
      </trkpt>
      <trkpt lat="43.15866" lon="5.90609">
        <ele>161</ele>
        <time>2022-06-11T20:37:46Z</time>
      </trkpt>
      <trkpt lat="43.15897" lon="5.90545">
        <ele>167</ele>
        <time>2022-06-11T20:37:56Z</time>
      </trkpt>
      <trkpt lat="43.15929" lon="5.90487">
        <ele>168</ele>
        <time>2022-06-11T20:38:05Z</time>
      </trkpt>
      <trkpt lat="43.15948" lon="5.90441">
        <ele>172</ele>
        <time>2022-06-11T20:38:12Z</time>
      </trkpt>
      <trkpt lat="43.15961" lon="5.90397">
        <ele>176</ele>
        <time>2022-06-11T20:38:18Z</time>
      </trkpt>
      <trkpt lat="43.15997" lon="5.90321">
        <ele>176</ele>
        <time>2022-06-11T20:38:30Z</time>
      </trkpt>
      <trkpt lat="43.16005" lon="5.90299">
        <ele>179</ele>
        <time>2022-06-11T20:38:33Z</time>
      </trkpt>
      <trkpt lat="43.16017" lon="5.90252">
        <ele>188</ele>
        <time>2022-06-11T20:38:39Z</time>
      </trkpt>
      <trkpt lat="43.16035" lon="5.90231">
        <ele>190</ele>
        <time>2022-06-11T20:38:44Z</time>
      </trkpt>
      <trkpt lat="43.1604" lon="5.90222">
        <ele>192</ele>
        <time>2022-06-11T20:38:45Z</time>
      </trkpt>
      <trkpt lat="43.16051" lon="5.9019">
        <ele>198</ele>
        <time>2022-06-11T20:38:50Z</time>
      </trkpt>
      <trkpt lat="43.1606" lon="5.90185">
        <ele>197</ele>
        <time>2022-06-11T20:38:51Z</time>
      </trkpt>
      <trkpt lat="43.16069" lon="5.90184">
        <ele>196</ele>
        <time>2022-06-11T20:38:53Z</time>
      </trkpt>
      <trkpt lat="43.16082" lon="5.90195">
        <ele>192</ele>
        <time>2022-06-11T20:38:56Z</time>
      </trkpt>
      <trkpt lat="43.16107" lon="5.90231">
        <ele>184</ele>
        <time>2022-06-11T20:39:02Z</time>
      </trkpt>
      <trkpt lat="43.16118" lon="5.90235">
        <ele>184</ele>
        <time>2022-06-11T20:39:04Z</time>
      </trkpt>
      <trkpt lat="43.1613" lon="5.9023">
        <ele>185</ele>
        <time>2022-06-11T20:39:06Z</time>
      </trkpt>
      <trkpt lat="43.16146" lon="5.90219">
        <ele>188</ele>
        <time>2022-06-11T20:39:10Z</time>
      </trkpt>
      <trkpt lat="43.16167" lon="5.90198">
        <ele>194</ele>
        <time>2022-06-11T20:39:14Z</time>
      </trkpt>
      <trkpt lat="43.16187" lon="5.90189">
        <ele>195</ele>
        <time>2022-06-11T20:39:18Z</time>
      </trkpt>
      <trkpt lat="43.16199" lon="5.90195">
        <ele>193</ele>
        <time>2022-06-11T20:39:20Z</time>
      </trkpt>
      <trkpt lat="43.16213" lon="5.90209">
        <ele>189</ele>
        <time>2022-06-11T20:39:23Z</time>
      </trkpt>
      <trkpt lat="43.16229" lon="5.90204">
        <ele>190</ele>
        <time>2022-06-11T20:39:26Z</time>
      </trkpt>
      <trkpt lat="43.16257" lon="5.90177">
        <ele>195</ele>
        <time>2022-06-11T20:39:32Z</time>
      </trkpt>
      <trkpt lat="43.16293" lon="5.90137">
        <ele>199</ele>
        <time>2022-06-11T20:39:41Z</time>
      </trkpt>
      <trkpt lat="43.16307" lon="5.90055">
        <ele>214</ele>
        <time>2022-06-11T20:39:52Z</time>
      </trkpt>
      <trkpt lat="43.16317" lon="5.90039">
        <ele>216</ele>
        <time>2022-06-11T20:39:54Z</time>
      </trkpt>
      <trkpt lat="43.16328" lon="5.90026">
        <ele>218</ele>
        <time>2022-06-11T20:39:57Z</time>
      </trkpt>
      <trkpt lat="43.1635" lon="5.90026">
        <ele>219</ele>
        <time>2022-06-11T20:40:01Z</time>
      </trkpt>
      <trkpt lat="43.16375" lon="5.90033">
        <ele>220</ele>
        <time>2022-06-11T20:40:05Z</time>
      </trkpt>
      <trkpt lat="43.16406" lon="5.90083">
        <ele>214</ele>
        <time>2022-06-11T20:40:14Z</time>
      </trkpt>
      <trkpt lat="43.16459" lon="5.90108">
        <ele>212</ele>
        <time>2022-06-11T20:40:24Z</time>
      </trkpt>
      <trkpt lat="43.16486" lon="5.90115">
        <ele>212</ele>
        <time>2022-06-11T20:40:29Z</time>
      </trkpt>
      <trkpt lat="43.16503" lon="5.90111">
        <ele>214</ele>
        <time>2022-06-11T20:40:32Z</time>
      </trkpt>
      <trkpt lat="43.16514" lon="5.90102">
        <ele>215</ele>
        <time>2022-06-11T20:40:34Z</time>
      </trkpt>
      <trkpt lat="43.1652" lon="5.90093">
        <ele>217</ele>
        <time>2022-06-11T20:40:36Z</time>
      </trkpt>
      <trkpt lat="43.16525" lon="5.90071">
        <ele>223</ele>
        <time>2022-06-11T20:40:39Z</time>
      </trkpt>
      <trkpt lat="43.16528" lon="5.90043">
        <ele>230</ele>
        <time>2022-06-11T20:40:42Z</time>
      </trkpt>
      <trkpt lat="43.1653" lon="5.90035">
        <ele>232</ele>
        <time>2022-06-11T20:40:43Z</time>
      </trkpt>
      <trkpt lat="43.16536" lon="5.90026">
        <ele>234</ele>
        <time>2022-06-11T20:40:45Z</time>
      </trkpt>
      <trkpt lat="43.16545" lon="5.90023">
        <ele>235</ele>
        <time>2022-06-11T20:40:47Z</time>
      </trkpt>
      <trkpt lat="43.16553" lon="5.90025">
        <ele>234</ele>
        <time>2022-06-11T20:40:48Z</time>
      </trkpt>
      <trkpt lat="43.16559" lon="5.90028">
        <ele>233</ele>
        <time>2022-06-11T20:40:49Z</time>
      </trkpt>
      <trkpt lat="43.16572" lon="5.90044">
        <ele>228</ele>
        <time>2022-06-11T20:40:52Z</time>
      </trkpt>
      <trkpt lat="43.16577" lon="5.90048">
        <ele>226</ele>
        <time>2022-06-11T20:40:53Z</time>
      </trkpt>
      <trkpt lat="43.16589" lon="5.90049">
        <ele>225</ele>
        <time>2022-06-11T20:40:56Z</time>
      </trkpt>
      <trkpt lat="43.16667" lon="5.89998">
        <ele>238</ele>
        <time>2022-06-11T20:41:11Z</time>
      </trkpt>
      <trkpt lat="43.16723" lon="5.89947">
        <ele>247</ele>
        <time>2022-06-11T20:41:23Z</time>
      </trkpt>
      <trkpt lat="43.16753" lon="5.89927">
        <ele>248</ele>
        <time>2022-06-11T20:41:29Z</time>
      </trkpt>
      <trkpt lat="43.16766" lon="5.89925">
        <ele>249</ele>
        <time>2022-06-11T20:41:31Z</time>
      </trkpt>
      <trkpt lat="43.16822" lon="5.89936">
        <ele>249</ele>
        <time>2022-06-11T20:41:41Z</time>
      </trkpt>
      <trkpt lat="43.16846" lon="5.89951">
        <ele>250</ele>
        <time>2022-06-11T20:41:46Z</time>
      </trkpt>
      <trkpt lat="43.16855" lon="5.89948">
        <ele>252</ele>
        <time>2022-06-11T20:41:48Z</time>
      </trkpt>
      <trkpt lat="43.16866" lon="5.89935">
        <ele>255</ele>
        <time>2022-06-11T20:41:50Z</time>
      </trkpt>
      <trkpt lat="43.16879" lon="5.89923">
        <ele>257</ele>
        <time>2022-06-11T20:41:53Z</time>
      </trkpt>
      <trkpt lat="43.16889" lon="5.89922">
        <ele>258</ele>
        <time>2022-06-11T20:41:55Z</time>
      </trkpt>
      <trkpt lat="43.16896" lon="5.89934">
        <ele>259</ele>
        <time>2022-06-11T20:41:57Z</time>
      </trkpt>
      <trkpt lat="43.16897" lon="5.89943">
        <ele>259</ele>
        <time>2022-06-11T20:41:58Z</time>
      </trkpt>
      <trkpt lat="43.1689" lon="5.89965">
        <ele>258</ele>
        <time>2022-06-11T20:42:01Z</time>
      </trkpt>
      <trkpt lat="43.16883" lon="5.89982">
        <ele>256</ele>
        <time>2022-06-11T20:42:03Z</time>
      </trkpt>
      <trkpt lat="43.1687" lon="5.89999">
        <ele>252</ele>
        <time>2022-06-11T20:42:07Z</time>
      </trkpt>
      <trkpt lat="43.16847" lon="5.90022">
        <ele>245</ele>
        <time>2022-06-11T20:42:12Z</time>
      </trkpt>
      <trkpt lat="43.16839" lon="5.90034">
        <ele>243</ele>
        <time>2022-06-11T20:42:14Z</time>
      </trkpt>
      <trkpt lat="43.16835" lon="5.90044">
        <ele>243</ele>
        <time>2022-06-11T20:42:15Z</time>
      </trkpt>
      <trkpt lat="43.16834" lon="5.90053">
        <ele>243</ele>
        <time>2022-06-11T20:42:17Z</time>
      </trkpt>
      <trkpt lat="43.16837" lon="5.90063">
        <ele>244</ele>
        <time>2022-06-11T20:42:18Z</time>
      </trkpt>
      <trkpt lat="43.16841" lon="5.9007">
        <ele>245</ele>
        <time>2022-06-11T20:42:19Z</time>
      </trkpt>
      <trkpt lat="43.16847" lon="5.90074">
        <ele>246</ele>
        <time>2022-06-11T20:42:20Z</time>
      </trkpt>
      <trkpt lat="43.16858" lon="5.90074">
        <ele>248</ele>
        <time>2022-06-11T20:42:22Z</time>
      </trkpt>
      <trkpt lat="43.16868" lon="5.90069">
        <ele>250</ele>
        <time>2022-06-11T20:42:24Z</time>
      </trkpt>
      <trkpt lat="43.16889" lon="5.90048">
        <ele>255</ele>
        <time>2022-06-11T20:42:29Z</time>
      </trkpt>
      <trkpt lat="43.16939" lon="5.89952">
        <ele>273</ele>
        <time>2022-06-11T20:42:44Z</time>
      </trkpt>
      <trkpt lat="43.16949" lon="5.89927">
        <ele>275</ele>
        <time>2022-06-11T20:42:48Z</time>
      </trkpt>
      <trkpt lat="43.16963" lon="5.89887">
        <ele>280</ele>
        <time>2022-06-11T20:42:54Z</time>
      </trkpt>
      <trkpt lat="43.16971" lon="5.89856">
        <ele>282</ele>
        <time>2022-06-11T20:42:58Z</time>
      </trkpt>
      <trkpt lat="43.16975" lon="5.89829">
        <ele>283</ele>
        <time>2022-06-11T20:43:01Z</time>
      </trkpt>
      <trkpt lat="43.16976" lon="5.89788">
        <ele>286</ele>
        <time>2022-06-11T20:43:07Z</time>
      </trkpt>
      <trkpt lat="43.16979" lon="5.8976">
        <ele>288</ele>
        <time>2022-06-11T20:43:10Z</time>
      </trkpt>
      <trkpt lat="43.16978" lon="5.89744">
        <ele>289</ele>
        <time>2022-06-11T20:43:12Z</time>
      </trkpt>
      <trkpt lat="43.1697" lon="5.89732">
        <ele>289</ele>
        <time>2022-06-11T20:43:15Z</time>
      </trkpt>
      <trkpt lat="43.16958" lon="5.89722">
        <ele>288</ele>
        <time>2022-06-11T20:43:17Z</time>
      </trkpt>
      <trkpt lat="43.16948" lon="5.89694">
        <ele>289</ele>
        <time>2022-06-11T20:43:21Z</time>
      </trkpt>
      <trkpt lat="43.16934" lon="5.89668">
        <ele>288</ele>
        <time>2022-06-11T20:43:25Z</time>
      </trkpt>
      <trkpt lat="43.16935" lon="5.89656">
        <ele>290</ele>
        <time>2022-06-11T20:43:27Z</time>
      </trkpt>
      <trkpt lat="43.16943" lon="5.89645">
        <ele>293</ele>
        <time>2022-06-11T20:43:29Z</time>
      </trkpt>
      <trkpt lat="43.16951" lon="5.89644">
        <ele>294</ele>
        <time>2022-06-11T20:43:30Z</time>
      </trkpt>
      <trkpt lat="43.16956" lon="5.89655">
        <ele>294</ele>
        <time>2022-06-11T20:43:32Z</time>
      </trkpt>
      <trkpt lat="43.16957" lon="5.89677">
        <ele>292</ele>
        <time>2022-06-11T20:43:35Z</time>
      </trkpt>
      <trkpt lat="43.16959" lon="5.89695">
        <ele>291</ele>
        <time>2022-06-11T20:43:37Z</time>
      </trkpt>
      <trkpt lat="43.16965" lon="5.89705">
        <ele>291</ele>
        <time>2022-06-11T20:43:39Z</time>
      </trkpt>
      <trkpt lat="43.16987" lon="5.89722">
        <ele>293</ele>
        <time>2022-06-11T20:43:43Z</time>
      </trkpt>
      <trkpt lat="43.17001" lon="5.89749">
        <ele>293</ele>
        <time>2022-06-11T20:43:48Z</time>
      </trkpt>
      <trkpt lat="43.17002" lon="5.89767">
        <ele>293</ele>
        <time>2022-06-11T20:43:50Z</time>
      </trkpt>
      <trkpt lat="43.17" lon="5.89785">
        <ele>291</ele>
        <time>2022-06-11T20:43:52Z</time>
      </trkpt>
      <trkpt lat="43.17002" lon="5.89825">
        <ele>291</ele>
        <time>2022-06-11T20:43:58Z</time>
      </trkpt>
      <trkpt lat="43.17007" lon="5.89865">
        <ele>296</ele>
        <time>2022-06-11T20:44:03Z</time>
      </trkpt>
      <trkpt lat="43.17006" lon="5.89892">
        <ele>297</ele>
        <time>2022-06-11T20:44:06Z</time>
      </trkpt>
      <trkpt lat="43.16997" lon="5.89915">
        <ele>294</ele>
        <time>2022-06-11T20:44:10Z</time>
      </trkpt>
      <trkpt lat="43.16989" lon="5.89928">
        <ele>292</ele>
        <time>2022-06-11T20:44:12Z</time>
      </trkpt>
      <trkpt lat="43.16987" lon="5.89936">
        <ele>292</ele>
        <time>2022-06-11T20:44:13Z</time>
      </trkpt>
      <trkpt lat="43.16992" lon="5.89944">
        <ele>295</ele>
        <time>2022-06-11T20:44:14Z</time>
      </trkpt>
      <trkpt lat="43.16999" lon="5.89947">
        <ele>299</ele>
        <time>2022-06-11T20:44:16Z</time>
      </trkpt>
      <trkpt lat="43.17004" lon="5.89941">
        <ele>301</ele>
        <time>2022-06-11T20:44:17Z</time>
      </trkpt>
      <trkpt lat="43.17008" lon="5.89925">
        <ele>301</ele>
        <time>2022-06-11T20:44:19Z</time>
      </trkpt>
      <trkpt lat="43.17008" lon="5.89906">
        <ele>299</ele>
        <time>2022-06-11T20:44:22Z</time>
      </trkpt>
      <trkpt lat="43.17017" lon="5.8988">
        <ele>302</ele>
        <time>2022-06-11T20:44:25Z</time>
      </trkpt>
      <trkpt lat="43.17015" lon="5.89842">
        <ele>299</ele>
        <time>2022-06-11T20:44:30Z</time>
      </trkpt>
      <trkpt lat="43.17011" lon="5.89813">
        <ele>297</ele>
        <time>2022-06-11T20:44:34Z</time>
      </trkpt>
      <trkpt lat="43.17014" lon="5.89789">
        <ele>299</ele>
        <time>2022-06-11T20:44:37Z</time>
      </trkpt>
      <trkpt lat="43.17024" lon="5.89754">
        <ele>304</ele>
        <time>2022-06-11T20:44:42Z</time>
      </trkpt>
      <trkpt lat="43.17025" lon="5.89745">
        <ele>305</ele>
        <time>2022-06-11T20:44:43Z</time>
      </trkpt>
      <trkpt lat="43.17013" lon="5.89704">
        <ele>304</ele>
        <time>2022-06-11T20:44:49Z</time>
      </trkpt>
      <trkpt lat="43.17003" lon="5.89676">
        <ele>302</ele>
        <time>2022-06-11T20:44:53Z</time>
      </trkpt>
      <trkpt lat="43.17002" lon="5.89665">
        <ele>303</ele>
        <time>2022-06-11T20:44:55Z</time>
      </trkpt>
      <trkpt lat="43.17018" lon="5.89605">
        <ele>315</ele>
        <time>2022-06-11T20:45:03Z</time>
      </trkpt>
      <trkpt lat="43.17016" lon="5.89594">
        <ele>315</ele>
        <time>2022-06-11T20:45:04Z</time>
      </trkpt>
      <trkpt lat="43.17011" lon="5.89587">
        <ele>313</ele>
        <time>2022-06-11T20:45:06Z</time>
      </trkpt>
      <trkpt lat="43.16988" lon="5.89566">
        <ele>310</ele>
        <time>2022-06-11T20:45:10Z</time>
      </trkpt>
      <trkpt lat="43.16983" lon="5.89554">
        <ele>310</ele>
        <time>2022-06-11T20:45:12Z</time>
      </trkpt>
      <trkpt lat="43.16974" lon="5.89482">
        <ele>319</ele>
        <time>2022-06-11T20:45:22Z</time>
      </trkpt>
      <trkpt lat="43.16971" lon="5.89435">
        <ele>324</ele>
        <time>2022-06-11T20:45:28Z</time>
      </trkpt>
      <trkpt lat="43.16972" lon="5.8937">
        <ele>329</ele>
        <time>2022-06-11T20:45:36Z</time>
      </trkpt>
      <trkpt lat="43.16971" lon="5.89227">
        <ele>336</ele>
        <time>2022-06-11T20:45:55Z</time>
      </trkpt>
      <trkpt lat="43.16965" lon="5.89157">
        <ele>338</ele>
        <time>2022-06-11T20:46:04Z</time>
      </trkpt>
      <trkpt lat="43.16967" lon="5.89055">
        <ele>345</ele>
        <time>2022-06-11T20:46:17Z</time>
      </trkpt>
      <trkpt lat="43.16965" lon="5.89042">
        <ele>346</ele>
        <time>2022-06-11T20:46:19Z</time>
      </trkpt>
      <trkpt lat="43.16943" lon="5.89016">
        <ele>345</ele>
        <time>2022-06-11T20:46:24Z</time>
      </trkpt>
      <trkpt lat="43.16907" lon="5.8896">
        <ele>348</ele>
        <time>2022-06-11T20:46:34Z</time>
      </trkpt>
      <trkpt lat="43.16903" lon="5.88949">
        <ele>350</ele>
        <time>2022-06-11T20:46:35Z</time>
      </trkpt>
      <trkpt lat="43.16903" lon="5.8894">
        <ele>351</ele>
        <time>2022-06-11T20:46:37Z</time>
      </trkpt>
      <trkpt lat="43.16908" lon="5.88935">
        <ele>351</ele>
        <time>2022-06-11T20:46:38Z</time>
      </trkpt>
      <trkpt lat="43.16916" lon="5.88933">
        <ele>350</ele>
        <time>2022-06-11T20:46:39Z</time>
      </trkpt>
      <trkpt lat="43.16924" lon="5.88938">
        <ele>351</ele>
        <time>2022-06-11T20:46:41Z</time>
      </trkpt>
      <trkpt lat="43.16932" lon="5.88961">
        <ele>350</ele>
        <time>2022-06-11T20:46:44Z</time>
      </trkpt>
      <trkpt lat="43.16951" lon="5.88991">
        <ele>349</ele>
        <time>2022-06-11T20:46:49Z</time>
      </trkpt>
      <trkpt lat="43.16973" lon="5.89002">
        <ele>350</ele>
        <time>2022-06-11T20:46:53Z</time>
      </trkpt>
      <trkpt lat="43.16993" lon="5.89">
        <ele>353</ele>
        <time>2022-06-11T20:46:57Z</time>
      </trkpt>
      <trkpt lat="43.17004" lon="5.89002">
        <ele>355</ele>
        <time>2022-06-11T20:46:59Z</time>
      </trkpt>
      <trkpt lat="43.17009" lon="5.8901">
        <ele>356</ele>
        <time>2022-06-11T20:47:00Z</time>
      </trkpt>
      <trkpt lat="43.17012" lon="5.89022">
        <ele>357</ele>
        <time>2022-06-11T20:47:02Z</time>
      </trkpt>
      <trkpt lat="43.17014" lon="5.89038">
        <ele>356</ele>
        <time>2022-06-11T20:47:04Z</time>
      </trkpt>
      <trkpt lat="43.17018" lon="5.89057">
        <ele>357</ele>
        <time>2022-06-11T20:47:07Z</time>
      </trkpt>
      <trkpt lat="43.17025" lon="5.89077">
        <ele>358</ele>
        <time>2022-06-11T20:47:09Z</time>
      </trkpt>
      <trkpt lat="43.17027" lon="5.89091">
        <ele>358</ele>
        <time>2022-06-11T20:47:11Z</time>
      </trkpt>
      <trkpt lat="43.17027" lon="5.89123">
        <ele>357</ele>
        <time>2022-06-11T20:47:15Z</time>
      </trkpt>
      <trkpt lat="43.17028" lon="5.8914">
        <ele>357</ele>
        <time>2022-06-11T20:47:18Z</time>
      </trkpt>
      <trkpt lat="43.17051" lon="5.89214">
        <ele>365</ele>
        <time>2022-06-11T20:47:28Z</time>
      </trkpt>
      <trkpt lat="43.17054" lon="5.89231">
        <ele>366</ele>
        <time>2022-06-11T20:47:30Z</time>
      </trkpt>
      <trkpt lat="43.1705" lon="5.89268">
        <ele>363</ele>
        <time>2022-06-11T20:47:35Z</time>
      </trkpt>
      <trkpt lat="43.17049" lon="5.89311">
        <ele>362</ele>
        <time>2022-06-11T20:47:41Z</time>
      </trkpt>
      <trkpt lat="43.17048" lon="5.89334">
        <ele>361</ele>
        <time>2022-06-11T20:47:44Z</time>
      </trkpt>
      <trkpt lat="43.17051" lon="5.89345">
        <ele>362</ele>
        <time>2022-06-11T20:47:45Z</time>
      </trkpt>
      <trkpt lat="43.17055" lon="5.89347">
        <ele>364</ele>
        <time>2022-06-11T20:47:46Z</time>
      </trkpt>
      <trkpt lat="43.17058" lon="5.89347">
        <ele>365</ele>
        <time>2022-06-11T20:47:47Z</time>
      </trkpt>
      <trkpt lat="43.17062" lon="5.89343">
        <ele>368</ele>
        <time>2022-06-11T20:47:47Z</time>
      </trkpt>
      <trkpt lat="43.17064" lon="5.89337">
        <ele>369</ele>
        <time>2022-06-11T20:47:48Z</time>
      </trkpt>
      <trkpt lat="43.17063" lon="5.89329">
        <ele>369</ele>
        <time>2022-06-11T20:47:49Z</time>
      </trkpt>
      <trkpt lat="43.17059" lon="5.89306">
        <ele>367</ele>
        <time>2022-06-11T20:47:52Z</time>
      </trkpt>
      <trkpt lat="43.17059" lon="5.89283">
        <ele>367</ele>
        <time>2022-06-11T20:47:55Z</time>
      </trkpt>
      <trkpt lat="43.17064" lon="5.89255">
        <ele>370</ele>
        <time>2022-06-11T20:47:59Z</time>
      </trkpt>
      <trkpt lat="43.17074" lon="5.89222">
        <ele>375</ele>
        <time>2022-06-11T20:48:04Z</time>
      </trkpt>
      <trkpt lat="43.17069" lon="5.8917">
        <ele>374</ele>
        <time>2022-06-11T20:48:11Z</time>
      </trkpt>
      <trkpt lat="43.1707" lon="5.89131">
        <ele>375</ele>
        <time>2022-06-11T20:48:16Z</time>
      </trkpt>
      <trkpt lat="43.17074" lon="5.89107">
        <ele>377</ele>
        <time>2022-06-11T20:48:19Z</time>
      </trkpt>
      <trkpt lat="43.17086" lon="5.89081">
        <ele>382</ele>
        <time>2022-06-11T20:48:23Z</time>
      </trkpt>
      <trkpt lat="43.17086" lon="5.89074">
        <ele>383</ele>
        <time>2022-06-11T20:48:24Z</time>
      </trkpt>
      <trkpt lat="43.1708" lon="5.89042">
        <ele>381</ele>
        <time>2022-06-11T20:48:28Z</time>
      </trkpt>
      <trkpt lat="43.17078" lon="5.89018">
        <ele>381</ele>
        <time>2022-06-11T20:48:31Z</time>
      </trkpt>
      <trkpt lat="43.17085" lon="5.88922">
        <ele>392</ele>
        <time>2022-06-11T20:48:44Z</time>
      </trkpt>
      <trkpt lat="43.17084" lon="5.88909">
        <ele>393</ele>
        <time>2022-06-11T20:48:45Z</time>
      </trkpt>
      <trkpt lat="43.17081" lon="5.889">
        <ele>393</ele>
        <time>2022-06-11T20:48:47Z</time>
      </trkpt>
      <trkpt lat="43.17074" lon="5.88891">
        <ele>392</ele>
        <time>2022-06-11T20:48:48Z</time>
      </trkpt>
      <trkpt lat="43.17041" lon="5.88858">
        <ele>390</ele>
        <time>2022-06-11T20:48:56Z</time>
      </trkpt>
      <trkpt lat="43.17036" lon="5.8885">
        <ele>390</ele>
        <time>2022-06-11T20:48:57Z</time>
      </trkpt>
      <trkpt lat="43.17033" lon="5.88841">
        <ele>391</ele>
        <time>2022-06-11T20:48:58Z</time>
      </trkpt>
      <trkpt lat="43.17035" lon="5.88841">
        <ele>391</ele>
        <time>2022-06-11T20:48:59Z</time>
      </trkpt>
      <trkpt lat="43.17033" lon="5.88841">
        <ele>391</ele>
        <time>2022-06-11T20:48:59Z</time>
      </trkpt>
      <trkpt lat="43.17032" lon="5.8883">
        <ele>392</ele>
        <time>2022-06-11T20:49:00Z</time>
      </trkpt>
      <trkpt lat="43.17044" lon="5.8878">
        <ele>396</ele>
        <time>2022-06-11T20:49:07Z</time>
      </trkpt>
      <trkpt lat="43.17048" lon="5.88769">
        <ele>396</ele>
        <time>2022-06-11T20:49:09Z</time>
      </trkpt>
      <trkpt lat="43.17076" lon="5.88736">
        <ele>396</ele>
        <time>2022-06-11T20:49:15Z</time>
      </trkpt>
      <trkpt lat="43.17084" lon="5.8872">
        <ele>395</ele>
        <time>2022-06-11T20:49:18Z</time>
      </trkpt>
      <trkpt lat="43.17089" lon="5.88703">
        <ele>394</ele>
        <time>2022-06-11T20:49:20Z</time>
      </trkpt>
      <trkpt lat="43.17115" lon="5.88603">
        <ele>390</ele>
        <time>2022-06-11T20:49:34Z</time>
      </trkpt>
      <trkpt lat="43.17121" lon="5.88591">
        <ele>389</ele>
        <time>2022-06-11T20:49:36Z</time>
      </trkpt>
      <trkpt lat="43.17128" lon="5.88581">
        <ele>388</ele>
        <time>2022-06-11T20:49:38Z</time>
      </trkpt>
      <trkpt lat="43.17189" lon="5.88527">
        <ele>382</ele>
        <time>2022-06-11T20:49:51Z</time>
      </trkpt>
      <trkpt lat="43.17229" lon="5.88484">
        <ele>377</ele>
        <time>2022-06-11T20:50:00Z</time>
      </trkpt>
      <trkpt lat="43.17269" lon="5.88459">
        <ele>372</ele>
        <time>2022-06-11T20:50:08Z</time>
      </trkpt>
      <trkpt lat="43.17309" lon="5.88419">
        <ele>366</ele>
        <time>2022-06-11T20:50:16Z</time>
      </trkpt>
      <trkpt lat="43.17316" lon="5.88418">
        <ele>367</ele>
        <time>2022-06-11T20:50:18Z</time>
      </trkpt>
      <trkpt lat="43.17329" lon="5.88425">
        <ele>368</ele>
        <time>2022-06-11T20:50:20Z</time>
      </trkpt>
      <trkpt lat="43.17338" lon="5.88427">
        <ele>369</ele>
        <time>2022-06-11T20:50:22Z</time>
      </trkpt>
      <trkpt lat="43.17348" lon="5.88421">
        <ele>371</ele>
        <time>2022-06-11T20:50:24Z</time>
      </trkpt>
      <trkpt lat="43.17375" lon="5.88381">
        <ele>370</ele>
        <time>2022-06-11T20:50:31Z</time>
      </trkpt>
      <trkpt lat="43.1738" lon="5.8837">
        <ele>369</ele>
        <time>2022-06-11T20:50:32Z</time>
      </trkpt>
      <trkpt lat="43.17383" lon="5.88358">
        <ele>368</ele>
        <time>2022-06-11T20:50:34Z</time>
      </trkpt>
      <trkpt lat="43.17387" lon="5.88314">
        <ele>362</ele>
        <time>2022-06-11T20:50:40Z</time>
      </trkpt>
      <trkpt lat="43.17396" lon="5.88267">
        <ele>358</ele>
        <time>2022-06-11T20:50:46Z</time>
      </trkpt>
      <trkpt lat="43.17409" lon="5.88205">
        <ele>352</ele>
        <time>2022-06-11T20:50:55Z</time>
      </trkpt>
      <trkpt lat="43.17427" lon="5.88146">
        <ele>349</ele>
        <time>2022-06-11T20:51:03Z</time>
      </trkpt>
      <trkpt lat="43.17432" lon="5.88111">
        <ele>348</ele>
        <time>2022-06-11T20:51:07Z</time>
      </trkpt>
      <trkpt lat="43.17458" lon="5.87997">
        <ele>347</ele>
        <time>2022-06-11T20:51:23Z</time>
      </trkpt>
      <trkpt lat="43.17484" lon="5.87849">
        <ele>342</ele>
        <time>2022-06-11T20:51:43Z</time>
      </trkpt>
      <trkpt lat="43.17492" lon="5.87818">
        <ele>339</ele>
        <time>2022-06-11T20:51:47Z</time>
      </trkpt>
      <trkpt lat="43.17516" lon="5.87701">
        <ele>329</ele>
        <time>2022-06-11T20:52:03Z</time>
      </trkpt>
      <trkpt lat="43.17518" lon="5.87677">
        <ele>328</ele>
        <time>2022-06-11T20:52:06Z</time>
      </trkpt>
      <trkpt lat="43.17516" lon="5.87653">
        <ele>325</ele>
        <time>2022-06-11T20:52:09Z</time>
      </trkpt>
      <trkpt lat="43.17496" lon="5.87596">
        <ele>320</ele>
        <time>2022-06-11T20:52:17Z</time>
      </trkpt>
      <trkpt lat="43.17493" lon="5.87576">
        <ele>319</ele>
        <time>2022-06-11T20:52:20Z</time>
      </trkpt>
      <trkpt lat="43.17494" lon="5.87566">
        <ele>318</ele>
        <time>2022-06-11T20:52:21Z</time>
      </trkpt>
      <trkpt lat="43.17497" lon="5.87557">
        <ele>317</ele>
        <time>2022-06-11T20:52:23Z</time>
      </trkpt>
      <trkpt lat="43.17544" lon="5.87496">
        <ele>313</ele>
        <time>2022-06-11T20:52:34Z</time>
      </trkpt>
      <trkpt lat="43.17546" lon="5.87485">
        <ele>312</ele>
        <time>2022-06-11T20:52:35Z</time>
      </trkpt>
      <trkpt lat="43.17544" lon="5.87478">
        <ele>312</ele>
        <time>2022-06-11T20:52:36Z</time>
      </trkpt>
      <trkpt lat="43.17529" lon="5.87458">
        <ele>310</ele>
        <time>2022-06-11T20:52:40Z</time>
      </trkpt>
      <trkpt lat="43.17521" lon="5.87433">
        <ele>309</ele>
        <time>2022-06-11T20:52:44Z</time>
      </trkpt>
      <trkpt lat="43.17517" lon="5.87406">
        <ele>308</ele>
        <time>2022-06-11T20:52:47Z</time>
      </trkpt>
      <trkpt lat="43.17514" lon="5.87362">
        <ele>307</ele>
        <time>2022-06-11T20:52:53Z</time>
      </trkpt>
      <trkpt lat="43.17513" lon="5.87292">
        <ele>304</ele>
        <time>2022-06-11T20:53:02Z</time>
      </trkpt>
      <trkpt lat="43.17508" lon="5.87277">
        <ele>304</ele>
        <time>2022-06-11T20:53:04Z</time>
      </trkpt>
      <trkpt lat="43.1751" lon="5.87264">
        <ele>303</ele>
        <time>2022-06-11T20:53:06Z</time>
      </trkpt>
      <trkpt lat="43.17517" lon="5.87249">
        <ele>303</ele>
        <time>2022-06-11T20:53:08Z</time>
      </trkpt>
      <trkpt lat="43.17521" lon="5.87226">
        <ele>301</ele>
        <time>2022-06-11T20:53:11Z</time>
      </trkpt>
      <trkpt lat="43.17521" lon="5.87183">
        <ele>298</ele>
        <time>2022-06-11T20:53:17Z</time>
      </trkpt>
      <trkpt lat="43.1753" lon="5.87163">
        <ele>297</ele>
        <time>2022-06-11T20:53:20Z</time>
      </trkpt>
      <trkpt lat="43.17549" lon="5.87134">
        <ele>295</ele>
        <time>2022-06-11T20:53:25Z</time>
      </trkpt>
      <trkpt lat="43.17559" lon="5.87122">
        <ele>294</ele>
        <time>2022-06-11T20:53:27Z</time>
      </trkpt>
      <trkpt lat="43.17585" lon="5.87116">
        <ele>293</ele>
        <time>2022-06-11T20:53:32Z</time>
      </trkpt>
      <trkpt lat="43.17603" lon="5.871">
        <ele>292</ele>
        <time>2022-06-11T20:53:36Z</time>
      </trkpt>
      <trkpt lat="43.17628" lon="5.8707">
        <ele>291</ele>
        <time>2022-06-11T20:53:42Z</time>
      </trkpt>
      <trkpt lat="43.17645" lon="5.87037">
        <ele>290</ele>
        <time>2022-06-11T20:53:47Z</time>
      </trkpt>
      <trkpt lat="43.17698" lon="5.87015">
        <ele>291</ele>
        <time>2022-06-11T20:53:57Z</time>
      </trkpt>
      <trkpt lat="43.17715" lon="5.87001">
        <ele>290</ele>
        <time>2022-06-11T20:54:00Z</time>
      </trkpt>
      <trkpt lat="43.17711" lon="5.86985">
        <ele>290</ele>
        <time>2022-06-11T20:54:03Z</time>
      </trkpt>
      <trkpt lat="43.17674" lon="5.8694">
        <ele>290</ele>
        <time>2022-06-11T20:54:11Z</time>
      </trkpt>
      <trkpt lat="43.17676" lon="5.86925">
        <ele>290</ele>
        <time>2022-06-11T20:54:13Z</time>
      </trkpt>
      <trkpt lat="43.17713" lon="5.86867">
        <ele>293</ele>
        <time>2022-06-11T20:54:23Z</time>
      </trkpt>
      <trkpt lat="43.17765" lon="5.86774">
        <ele>306</ele>
        <time>2022-06-11T20:54:39Z</time>
      </trkpt>
      <trkpt lat="43.17766" lon="5.86759">
        <ele>307</ele>
        <time>2022-06-11T20:54:41Z</time>
      </trkpt>
      <trkpt lat="43.17762" lon="5.86745">
        <ele>308</ele>
        <time>2022-06-11T20:54:43Z</time>
      </trkpt>
      <trkpt lat="43.17761" lon="5.86719">
        <ele>311</ele>
        <time>2022-06-11T20:54:46Z</time>
      </trkpt>
      <trkpt lat="43.17758" lon="5.86708">
        <ele>312</ele>
        <time>2022-06-11T20:54:47Z</time>
      </trkpt>
      <trkpt lat="43.17736" lon="5.86685">
        <ele>310</ele>
        <time>2022-06-11T20:54:52Z</time>
      </trkpt>
      <trkpt lat="43.17735" lon="5.86676">
        <ele>310</ele>
        <time>2022-06-11T20:54:54Z</time>
      </trkpt>
      <trkpt lat="43.17749" lon="5.86642">
        <ele>317</ele>
        <time>2022-06-11T20:54:59Z</time>
      </trkpt>
      <trkpt lat="43.1774" lon="5.86579">
        <ele>325</ele>
        <time>2022-06-11T20:55:07Z</time>
      </trkpt>
      <trkpt lat="43.17738" lon="5.86574">
        <ele>326</ele>
        <time>2022-06-11T20:55:08Z</time>
      </trkpt>
      <trkpt lat="43.17724" lon="5.86562">
        <ele>325</ele>
        <time>2022-06-11T20:55:11Z</time>
      </trkpt>
      <trkpt lat="43.1771" lon="5.86546">
        <ele>326</ele>
        <time>2022-06-11T20:55:14Z</time>
      </trkpt>
      <trkpt lat="43.17692" lon="5.8649">
        <ele>333</ele>
        <time>2022-06-11T20:55:22Z</time>
      </trkpt>
      <trkpt lat="43.17693" lon="5.86466">
        <ele>337</ele>
        <time>2022-06-11T20:55:25Z</time>
      </trkpt>
      <trkpt lat="43.17692" lon="5.86444">
        <ele>340</ele>
        <time>2022-06-11T20:55:28Z</time>
      </trkpt>
      <trkpt lat="43.17683" lon="5.86412">
        <ele>344</ele>
        <time>2022-06-11T20:55:32Z</time>
      </trkpt>
      <trkpt lat="43.17672" lon="5.86396">
        <ele>346</ele>
        <time>2022-06-11T20:55:35Z</time>
      </trkpt>
      <trkpt lat="43.17657" lon="5.86381">
        <ele>346</ele>
        <time>2022-06-11T20:55:38Z</time>
      </trkpt>
      <trkpt lat="43.17632" lon="5.86346">
        <ele>349</ele>
        <time>2022-06-11T20:55:45Z</time>
      </trkpt>
      <trkpt lat="43.17618" lon="5.86302">
        <ele>356</ele>
        <time>2022-06-11T20:55:51Z</time>
      </trkpt>
      <trkpt lat="43.17596" lon="5.86266">
        <ele>357</ele>
        <time>2022-06-11T20:55:57Z</time>
      </trkpt>
      <trkpt lat="43.17575" lon="5.86196">
        <ele>362</ele>
        <time>2022-06-11T20:56:07Z</time>
      </trkpt>
      <trkpt lat="43.17577" lon="5.86178">
        <ele>365</ele>
        <time>2022-06-11T20:56:09Z</time>
      </trkpt>
      <trkpt lat="43.17564" lon="5.86092">
        <ele>372</ele>
        <time>2022-06-11T20:56:21Z</time>
      </trkpt>
      <trkpt lat="43.17559" lon="5.86077">
        <ele>373</ele>
        <time>2022-06-11T20:56:23Z</time>
      </trkpt>
      <trkpt lat="43.17558" lon="5.86062">
        <ele>374</ele>
        <time>2022-06-11T20:56:25Z</time>
      </trkpt>
      <trkpt lat="43.17575" lon="5.86021">
        <ele>381</ele>
        <time>2022-06-11T20:56:31Z</time>
      </trkpt>
      <trkpt lat="43.17576" lon="5.85982">
        <ele>383</ele>
        <time>2022-06-11T20:56:36Z</time>
      </trkpt>
      <trkpt lat="43.17579" lon="5.85956">
        <ele>384</ele>
        <time>2022-06-11T20:56:39Z</time>
      </trkpt>
      <trkpt lat="43.17576" lon="5.85892">
        <ele>385</ele>
        <time>2022-06-11T20:56:48Z</time>
      </trkpt>
      <trkpt lat="43.17573" lon="5.85873">
        <ele>386</ele>
        <time>2022-06-11T20:56:50Z</time>
      </trkpt>
      <trkpt lat="43.17574" lon="5.85817">
        <ele>389</ele>
        <time>2022-06-11T20:56:57Z</time>
      </trkpt>
      <trkpt lat="43.17577" lon="5.85808">
        <ele>388</ele>
        <time>2022-06-11T20:56:59Z</time>
      </trkpt>
      <trkpt lat="43.17582" lon="5.85716">
        <ele>388</ele>
        <time>2022-06-11T20:57:11Z</time>
      </trkpt>
      <trkpt lat="43.17579" lon="5.85659">
        <ele>386</ele>
        <time>2022-06-11T20:57:18Z</time>
      </trkpt>
      <trkpt lat="43.17569" lon="5.85632">
        <ele>386</ele>
        <time>2022-06-11T20:57:22Z</time>
      </trkpt>
      <trkpt lat="43.17543" lon="5.85577">
        <ele>389</ele>
        <time>2022-06-11T20:57:31Z</time>
      </trkpt>
      <trkpt lat="43.17532" lon="5.85557">
        <ele>390</ele>
        <time>2022-06-11T20:57:34Z</time>
      </trkpt>
      <trkpt lat="43.17525" lon="5.85534">
        <ele>390</ele>
        <time>2022-06-11T20:57:37Z</time>
      </trkpt>
      <trkpt lat="43.17521" lon="5.85484">
        <ele>387</ele>
        <time>2022-06-11T20:57:44Z</time>
      </trkpt>
      <trkpt lat="43.17526" lon="5.85431">
        <ele>381</ele>
        <time>2022-06-11T20:57:51Z</time>
      </trkpt>
      <trkpt lat="43.17516" lon="5.85386">
        <ele>379</ele>
        <time>2022-06-11T20:57:57Z</time>
      </trkpt>
      <trkpt lat="43.17503" lon="5.85346">
        <ele>377</ele>
        <time>2022-06-11T20:58:02Z</time>
      </trkpt>
      <trkpt lat="43.17467" lon="5.8529">
        <ele>371</ele>
        <time>2022-06-11T20:58:12Z</time>
      </trkpt>
      <trkpt lat="43.17386" lon="5.85239">
        <ele>365</ele>
        <time>2022-06-11T20:58:28Z</time>
      </trkpt>
      <trkpt lat="43.17364" lon="5.85211">
        <ele>361</ele>
        <time>2022-06-11T20:58:33Z</time>
      </trkpt>
      <trkpt lat="43.17324" lon="5.85172">
        <ele>357</ele>
        <time>2022-06-11T20:58:42Z</time>
      </trkpt>
      <trkpt lat="43.17309" lon="5.85135">
        <ele>353</ele>
        <time>2022-06-11T20:58:47Z</time>
      </trkpt>
      <trkpt lat="43.17304" lon="5.85112">
        <ele>351</ele>
        <time>2022-06-11T20:58:51Z</time>
      </trkpt>
      <trkpt lat="43.17277" lon="5.85046">
        <ele>343</ele>
        <time>2022-06-11T20:59:00Z</time>
      </trkpt>
      <trkpt lat="43.17242" lon="5.84966">
        <ele>334</ele>
        <time>2022-06-11T20:59:12Z</time>
      </trkpt>
      <trkpt lat="43.17182" lon="5.84846">
        <ele>321</ele>
        <time>2022-06-11T20:59:31Z</time>
      </trkpt>
      <trkpt lat="43.17196" lon="5.84828">
        <ele>323</ele>
        <time>2022-06-11T20:59:35Z</time>
      </trkpt>
      <trkpt lat="43.17209" lon="5.84822">
        <ele>324</ele>
        <time>2022-06-11T20:59:37Z</time>
      </trkpt>
      <trkpt lat="43.17297" lon="5.84818">
        <ele>328</ele>
        <time>2022-06-11T20:59:53Z</time>
      </trkpt>
      <trkpt lat="43.17314" lon="5.84813">
        <ele>328</ele>
        <time>2022-06-11T20:59:56Z</time>
      </trkpt>
      <trkpt lat="43.17337" lon="5.8479">
        <ele>326</ele>
        <time>2022-06-11T21:00:01Z</time>
      </trkpt>
      <trkpt lat="43.17358" lon="5.84773">
        <ele>323</ele>
        <time>2022-06-11T21:00:05Z</time>
      </trkpt>
      <trkpt lat="43.17372" lon="5.84769">
        <ele>321</ele>
        <time>2022-06-11T21:00:08Z</time>
      </trkpt>
      <trkpt lat="43.17396" lon="5.84776">
        <ele>320</ele>
        <time>2022-06-11T21:00:12Z</time>
      </trkpt>
      <trkpt lat="43.17406" lon="5.84772">
        <ele>319</ele>
        <time>2022-06-11T21:00:14Z</time>
      </trkpt>
      <trkpt lat="43.17416" lon="5.84765">
        <ele>318</ele>
        <time>2022-06-11T21:00:16Z</time>
      </trkpt>
      <trkpt lat="43.17431" lon="5.84748">
        <ele>315</ele>
        <time>2022-06-11T21:00:20Z</time>
      </trkpt>
      <trkpt lat="43.17445" lon="5.84729">
        <ele>311</ele>
        <time>2022-06-11T21:00:23Z</time>
      </trkpt>
      <trkpt lat="43.17456" lon="5.84722">
        <ele>309</ele>
        <time>2022-06-11T21:00:25Z</time>
      </trkpt>
      <trkpt lat="43.17482" lon="5.84746">
        <ele>307</ele>
        <time>2022-06-11T21:00:31Z</time>
      </trkpt>
      <trkpt lat="43.17488" lon="5.84763">
        <ele>307</ele>
        <time>2022-06-11T21:00:33Z</time>
      </trkpt>
      <trkpt lat="43.17488" lon="5.8483">
        <ele>311</ele>
        <time>2022-06-11T21:00:42Z</time>
      </trkpt>
      <trkpt lat="43.17495" lon="5.84848">
        <ele>311</ele>
        <time>2022-06-11T21:00:45Z</time>
      </trkpt>
      <trkpt lat="43.17509" lon="5.84873">
        <ele>309</ele>
        <time>2022-06-11T21:00:49Z</time>
      </trkpt>
      <trkpt lat="43.17565" lon="5.8496">
        <ele>305</ele>
        <time>2022-06-11T21:01:04Z</time>
      </trkpt>
      <trkpt lat="43.17619" lon="5.85019">
        <ele>301</ele>
        <time>2022-06-11T21:01:16Z</time>
      </trkpt>
      <trkpt lat="43.17651" lon="5.85061">
        <ele>301</ele>
        <time>2022-06-11T21:01:24Z</time>
      </trkpt>
      <trkpt lat="43.17666" lon="5.85069">
        <ele>299</ele>
        <time>2022-06-11T21:01:27Z</time>
      </trkpt>
      <trkpt lat="43.17676" lon="5.85067">
        <ele>298</ele>
        <time>2022-06-11T21:01:29Z</time>
      </trkpt>
      <trkpt lat="43.17685" lon="5.85059">
        <ele>296</ele>
        <time>2022-06-11T21:01:30Z</time>
      </trkpt>
      <trkpt lat="43.1769" lon="5.85042">
        <ele>293</ele>
        <time>2022-06-11T21:01:33Z</time>
      </trkpt>
      <trkpt lat="43.17678" lon="5.84984">
        <ele>288</ele>
        <time>2022-06-11T21:01:41Z</time>
      </trkpt>
      <trkpt lat="43.17677" lon="5.84971">
        <ele>287</ele>
        <time>2022-06-11T21:01:42Z</time>
      </trkpt>
      <trkpt lat="43.1768" lon="5.84962">
        <ele>286</ele>
        <time>2022-06-11T21:01:44Z</time>
      </trkpt>
      <trkpt lat="43.17685" lon="5.84953">
        <ele>285</ele>
        <time>2022-06-11T21:01:45Z</time>
      </trkpt>
      <trkpt lat="43.17705" lon="5.84936">
        <ele>280</ele>
        <time>2022-06-11T21:01:49Z</time>
      </trkpt>
      <trkpt lat="43.1772" lon="5.84933">
        <ele>277</ele>
        <time>2022-06-11T21:01:52Z</time>
      </trkpt>
      <trkpt lat="43.17736" lon="5.8494">
        <ele>275</ele>
        <time>2022-06-11T21:01:55Z</time>
      </trkpt>
      <trkpt lat="43.17785" lon="5.84989">
        <ele>276</ele>
        <time>2022-06-11T21:02:06Z</time>
      </trkpt>
      <trkpt lat="43.17813" lon="5.85013">
        <ele>274</ele>
        <time>2022-06-11T21:02:12Z</time>
      </trkpt>
      <trkpt lat="43.17831" lon="5.85023">
        <ele>273</ele>
        <time>2022-06-11T21:02:15Z</time>
      </trkpt>
      <trkpt lat="43.17835" lon="5.85023">
        <ele>272</ele>
        <time>2022-06-11T21:02:16Z</time>
      </trkpt>
      <trkpt lat="43.17841" lon="5.85022">
        <ele>272</ele>
        <time>2022-06-11T21:02:17Z</time>
      </trkpt>
      <trkpt lat="43.17847" lon="5.85009">
        <ele>270</ele>
        <time>2022-06-11T21:02:19Z</time>
      </trkpt>
      <trkpt lat="43.17852" lon="5.84994">
        <ele>270</ele>
        <time>2022-06-11T21:02:21Z</time>
      </trkpt>
      <trkpt lat="43.17852" lon="5.84987">
        <ele>270</ele>
        <time>2022-06-11T21:02:22Z</time>
      </trkpt>
      <trkpt lat="43.17849" lon="5.8498">
        <ele>270</ele>
        <time>2022-06-11T21:02:23Z</time>
      </trkpt>
      <trkpt lat="43.17837" lon="5.84962">
        <ele>268</ele>
        <time>2022-06-11T21:02:26Z</time>
      </trkpt>
      <trkpt lat="43.17699" lon="5.84774">
        <ele>271</ele>
        <time>2022-06-11T21:03:01Z</time>
      </trkpt>
      <trkpt lat="43.17688" lon="5.84754">
        <ele>267</ele>
        <time>2022-06-11T21:03:04Z</time>
      </trkpt>
      <trkpt lat="43.17678" lon="5.84733">
        <ele>264</ele>
        <time>2022-06-11T21:03:07Z</time>
      </trkpt>
      <trkpt lat="43.17632" lon="5.84609">
        <ele>256</ele>
        <time>2022-06-11T21:03:25Z</time>
      </trkpt>
      <trkpt lat="43.17622" lon="5.84553">
        <ele>251</ele>
        <time>2022-06-11T21:03:33Z</time>
      </trkpt>
      <trkpt lat="43.17615" lon="5.84534">
        <ele>249</ele>
        <time>2022-06-11T21:03:36Z</time>
      </trkpt>
      <trkpt lat="43.1759" lon="5.84483">
        <ele>238</ele>
        <time>2022-06-11T21:03:44Z</time>
      </trkpt>
      <trkpt lat="43.17575" lon="5.84456">
        <ele>235</ele>
        <time>2022-06-11T21:03:48Z</time>
      </trkpt>
      <trkpt lat="43.17539" lon="5.84407">
        <ele>230</ele>
        <time>2022-06-11T21:03:57Z</time>
      </trkpt>
      <trkpt lat="43.17528" lon="5.84384">
        <ele>226</ele>
        <time>2022-06-11T21:04:01Z</time>
      </trkpt>
      <trkpt lat="43.17502" lon="5.843">
        <ele>209</ele>
        <time>2022-06-11T21:04:12Z</time>
      </trkpt>
      <trkpt lat="43.17497" lon="5.84268">
        <ele>207</ele>
        <time>2022-06-11T21:04:17Z</time>
      </trkpt>
      <trkpt lat="43.17493" lon="5.84169">
        <ele>211</ele>
        <time>2022-06-11T21:04:30Z</time>
      </trkpt>
      <trkpt lat="43.17487" lon="5.84149">
        <ele>212</ele>
        <time>2022-06-11T21:04:32Z</time>
      </trkpt>
      <trkpt lat="43.17469" lon="5.84116">
        <ele>211</ele>
        <time>2022-06-11T21:04:38Z</time>
      </trkpt>
      <trkpt lat="43.17426" lon="5.84056">
        <ele>199</ele>
        <time>2022-06-11T21:04:49Z</time>
      </trkpt>
      <trkpt lat="43.17389" lon="5.83965">
        <ele>194</ele>
        <time>2022-06-11T21:05:02Z</time>
      </trkpt>
      <trkpt lat="43.17384" lon="5.83946">
        <ele>191</ele>
        <time>2022-06-11T21:05:05Z</time>
      </trkpt>
      <trkpt lat="43.17381" lon="5.83926">
        <ele>188</ele>
        <time>2022-06-11T21:05:07Z</time>
      </trkpt>
      <trkpt lat="43.17379" lon="5.83873">
        <ele>186</ele>
        <time>2022-06-11T21:05:14Z</time>
      </trkpt>
      <trkpt lat="43.17375" lon="5.83855">
        <ele>185</ele>
        <time>2022-06-11T21:05:17Z</time>
      </trkpt>
      <trkpt lat="43.17364" lon="5.83835">
        <ele>183</ele>
        <time>2022-06-11T21:05:20Z</time>
      </trkpt>
      <trkpt lat="43.17347" lon="5.83811">
        <ele>181</ele>
        <time>2022-06-11T21:05:24Z</time>
      </trkpt>
      <trkpt lat="43.17278" lon="5.8368">
        <ele>177</ele>
        <time>2022-06-11T21:05:45Z</time>
      </trkpt>
      <trkpt lat="43.17273" lon="5.83662">
        <ele>174</ele>
        <time>2022-06-11T21:05:48Z</time>
      </trkpt>
      <trkpt lat="43.17272" lon="5.83638">
        <ele>173</ele>
        <time>2022-06-11T21:05:51Z</time>
      </trkpt>
      <trkpt lat="43.17273" lon="5.83602">
        <ele>173</ele>
        <time>2022-06-11T21:05:56Z</time>
      </trkpt>
      <trkpt lat="43.1727" lon="5.83565">
        <ele>171</ele>
        <time>2022-06-11T21:06:00Z</time>
      </trkpt>
      <trkpt lat="43.17264" lon="5.83539">
        <ele>170</ele>
        <time>2022-06-11T21:06:04Z</time>
      </trkpt>
      <trkpt lat="43.17242" lon="5.83476">
        <ele>169</ele>
        <time>2022-06-11T21:06:13Z</time>
      </trkpt>
      <trkpt lat="43.17226" lon="5.83416">
        <ele>164</ele>
        <time>2022-06-11T21:06:21Z</time>
      </trkpt>
      <trkpt lat="43.1722" lon="5.83377">
        <ele>162</ele>
        <time>2022-06-11T21:06:26Z</time>
      </trkpt>
      <trkpt lat="43.17216" lon="5.83338">
        <ele>160</ele>
        <time>2022-06-11T21:06:32Z</time>
      </trkpt>
      <trkpt lat="43.17216" lon="5.83293">
        <ele>157</ele>
        <time>2022-06-11T21:06:37Z</time>
      </trkpt>
      <trkpt lat="43.17225" lon="5.83231">
        <ele>154</ele>
        <time>2022-06-11T21:06:46Z</time>
      </trkpt>
      <trkpt lat="43.17231" lon="5.83209">
        <ele>153</ele>
        <time>2022-06-11T21:06:49Z</time>
      </trkpt>
      <trkpt lat="43.17233" lon="5.83188">
        <ele>151</ele>
        <time>2022-06-11T21:06:51Z</time>
      </trkpt>
      <trkpt lat="43.17216" lon="5.83042">
        <ele>148</ele>
        <time>2022-06-11T21:07:11Z</time>
      </trkpt>
      <trkpt lat="43.17216" lon="5.83036">
        <ele>148</ele>
        <time>2022-06-11T21:07:11Z</time>
      </trkpt>
      <trkpt lat="43.17214" lon="5.8302">
        <ele>148</ele>
        <time>2022-06-11T21:07:13Z</time>
      </trkpt>
      <trkpt lat="43.17212" lon="5.83006">
        <ele>148</ele>
        <time>2022-06-11T21:07:15Z</time>
      </trkpt>
      <trkpt lat="43.17198" lon="5.83015">
        <ele>148</ele>
        <time>2022-06-11T21:07:18Z</time>
      </trkpt>
      <trkpt lat="43.17178" lon="5.83023">
        <ele>148</ele>
        <time>2022-06-11T21:07:22Z</time>
      </trkpt>
      <trkpt lat="43.17154" lon="5.8303">
        <ele>147</ele>
        <time>2022-06-11T21:07:26Z</time>
      </trkpt>
      <trkpt lat="43.17137" lon="5.83032">
        <ele>146</ele>
        <time>2022-06-11T21:07:29Z</time>
      </trkpt>
      <trkpt lat="43.171" lon="5.83026">
        <ele>145</ele>
        <time>2022-06-11T21:07:36Z</time>
      </trkpt>
      <trkpt lat="43.17077" lon="5.83015">
        <ele>144</ele>
        <time>2022-06-11T21:07:40Z</time>
      </trkpt>
      <trkpt lat="43.1705" lon="5.82996">
        <ele>144</ele>
        <time>2022-06-11T21:07:46Z</time>
      </trkpt>
      <trkpt lat="43.16961" lon="5.82926">
        <ele>143</ele>
        <time>2022-06-11T21:08:04Z</time>
      </trkpt>
      <trkpt lat="43.16928" lon="5.82903">
        <ele>142</ele>
        <time>2022-06-11T21:08:10Z</time>
      </trkpt>
      <trkpt lat="43.16908" lon="5.82894">
        <ele>142</ele>
        <time>2022-06-11T21:08:14Z</time>
      </trkpt>
      <trkpt lat="43.16763" lon="5.82849">
        <ele>141</ele>
        <time>2022-06-11T21:08:41Z</time>
      </trkpt>
      <trkpt lat="43.16723" lon="5.82853">
        <ele>140</ele>
        <time>2022-06-11T21:08:48Z</time>
      </trkpt>
      <trkpt lat="43.16692" lon="5.82858">
        <ele>140</ele>
        <time>2022-06-11T21:08:53Z</time>
      </trkpt>
      <trkpt lat="43.16649" lon="5.82873">
        <ele>139</ele>
        <time>2022-06-11T21:09:01Z</time>
      </trkpt>
      <trkpt lat="43.1651" lon="5.82948">
        <ele>135</ele>
        <time>2022-06-11T21:09:28Z</time>
      </trkpt>
      <trkpt lat="43.16473" lon="5.8297">
        <ele>138</ele>
        <time>2022-06-11T21:09:35Z</time>
      </trkpt>
      <trkpt lat="43.16407" lon="5.83024">
        <ele>143</ele>
        <time>2022-06-11T21:09:49Z</time>
      </trkpt>
      <trkpt lat="43.16389" lon="5.83042">
        <ele>143</ele>
        <time>2022-06-11T21:09:53Z</time>
      </trkpt>
      <trkpt lat="43.16371" lon="5.83064">
        <ele>141</ele>
        <time>2022-06-11T21:09:57Z</time>
      </trkpt>
      <trkpt lat="43.16327" lon="5.83131">
        <ele>137</ele>
        <time>2022-06-11T21:10:09Z</time>
      </trkpt>
      <trkpt lat="43.16307" lon="5.83173">
        <ele>136</ele>
        <time>2022-06-11T21:10:15Z</time>
      </trkpt>
      <trkpt lat="43.16299" lon="5.83208">
        <ele>136</ele>
        <time>2022-06-11T21:10:20Z</time>
      </trkpt>
      <trkpt lat="43.16298" lon="5.83224">
        <ele>136</ele>
        <time>2022-06-11T21:10:22Z</time>
      </trkpt>
      <trkpt lat="43.16301" lon="5.83273">
        <ele>136</ele>
        <time>2022-06-11T21:10:28Z</time>
      </trkpt>
      <trkpt lat="43.16299" lon="5.83286">
        <ele>136</ele>
        <time>2022-06-11T21:10:30Z</time>
      </trkpt>
      <trkpt lat="43.16295" lon="5.83299">
        <ele>136</ele>
        <time>2022-06-11T21:10:32Z</time>
      </trkpt>
      <trkpt lat="43.16289" lon="5.83306">
        <ele>135</ele>
        <time>2022-06-11T21:10:33Z</time>
      </trkpt>
      <trkpt lat="43.1628" lon="5.83312">
        <ele>135</ele>
        <time>2022-06-11T21:10:35Z</time>
      </trkpt>
      <trkpt lat="43.16272" lon="5.83315">
        <ele>134</ele>
        <time>2022-06-11T21:10:37Z</time>
      </trkpt>
      <trkpt lat="43.16263" lon="5.83315">
        <ele>133</ele>
        <time>2022-06-11T21:10:38Z</time>
      </trkpt>
      <trkpt lat="43.16245" lon="5.83305">
        <ele>133</ele>
        <time>2022-06-11T21:10:42Z</time>
      </trkpt>
      <trkpt lat="43.16208" lon="5.83273">
        <ele>133</ele>
        <time>2022-06-11T21:10:49Z</time>
      </trkpt>
      <trkpt lat="43.16178" lon="5.83246">
        <ele>132</ele>
        <time>2022-06-11T21:10:56Z</time>
      </trkpt>
      <trkpt lat="43.16162" lon="5.83228">
        <ele>132</ele>
        <time>2022-06-11T21:10:59Z</time>
      </trkpt>
      <trkpt lat="43.16139" lon="5.83195">
        <ele>132</ele>
        <time>2022-06-11T21:11:05Z</time>
      </trkpt>
      <trkpt lat="43.16087" lon="5.83136">
        <ele>134</ele>
        <time>2022-06-11T21:11:17Z</time>
      </trkpt>
      <trkpt lat="43.16069" lon="5.83124">
        <ele>134</ele>
        <time>2022-06-11T21:11:21Z</time>
      </trkpt>
      <trkpt lat="43.16058" lon="5.83123">
        <ele>134</ele>
        <time>2022-06-11T21:11:23Z</time>
      </trkpt>
      <trkpt lat="43.16029" lon="5.83129">
        <ele>131</ele>
        <time>2022-06-11T21:11:28Z</time>
      </trkpt>
      <trkpt lat="43.16017" lon="5.83134">
        <ele>130</ele>
        <time>2022-06-11T21:11:30Z</time>
      </trkpt>
      <trkpt lat="43.16004" lon="5.83141">
        <ele>129</ele>
        <time>2022-06-11T21:11:33Z</time>
      </trkpt>
      <trkpt lat="43.15986" lon="5.83157">
        <ele>130</ele>
        <time>2022-06-11T21:11:37Z</time>
      </trkpt>
      <trkpt lat="43.15958" lon="5.8319">
        <ele>135</ele>
        <time>2022-06-11T21:11:43Z</time>
      </trkpt>
      <trkpt lat="43.15949" lon="5.83206">
        <ele>136</ele>
        <time>2022-06-11T21:11:46Z</time>
      </trkpt>
      <trkpt lat="43.15941" lon="5.83224">
        <ele>137</ele>
        <time>2022-06-11T21:11:49Z</time>
      </trkpt>
      <trkpt lat="43.15937" lon="5.83241">
        <ele>137</ele>
        <time>2022-06-11T21:11:51Z</time>
      </trkpt>
      <trkpt lat="43.15925" lon="5.8338">
        <ele>135</ele>
        <time>2022-06-11T21:12:09Z</time>
      </trkpt>
      <trkpt lat="43.1592" lon="5.83411">
        <ele>133</ele>
        <time>2022-06-11T21:12:13Z</time>
      </trkpt>
      <trkpt lat="43.15915" lon="5.83434">
        <ele>133</ele>
        <time>2022-06-11T21:12:16Z</time>
      </trkpt>
      <trkpt lat="43.15905" lon="5.83461">
        <ele>136</ele>
        <time>2022-06-11T21:12:20Z</time>
      </trkpt>
      <trkpt lat="43.15875" lon="5.83537">
        <ele>137</ele>
        <time>2022-06-11T21:12:31Z</time>
      </trkpt>
      <trkpt lat="43.15855" lon="5.83566">
        <ele>135</ele>
        <time>2022-06-11T21:12:37Z</time>
      </trkpt>
      <trkpt lat="43.15803" lon="5.83625">
        <ele>138</ele>
        <time>2022-06-11T21:12:49Z</time>
      </trkpt>
      <trkpt lat="43.15786" lon="5.83648">
        <ele>142</ele>
        <time>2022-06-11T21:12:53Z</time>
      </trkpt>
      <trkpt lat="43.15777" lon="5.83665">
        <ele>143</ele>
        <time>2022-06-11T21:12:56Z</time>
      </trkpt>
      <trkpt lat="43.15771" lon="5.83681">
        <ele>145</ele>
        <time>2022-06-11T21:12:58Z</time>
      </trkpt>
      <trkpt lat="43.15767" lon="5.83699">
        <ele>146</ele>
        <time>2022-06-11T21:13:00Z</time>
      </trkpt>
      <trkpt lat="43.15767" lon="5.83715">
        <ele>146</ele>
        <time>2022-06-11T21:13:02Z</time>
      </trkpt>
      <trkpt lat="43.15771" lon="5.83733">
        <ele>145</ele>
        <time>2022-06-11T21:13:05Z</time>
      </trkpt>
      <trkpt lat="43.15778" lon="5.83753">
        <ele>143</ele>
        <time>2022-06-11T21:13:08Z</time>
      </trkpt>
      <trkpt lat="43.15809" lon="5.83808">
        <ele>132</ele>
        <time>2022-06-11T21:13:17Z</time>
      </trkpt>
      <trkpt lat="43.15812" lon="5.83829">
        <ele>131</ele>
        <time>2022-06-11T21:13:20Z</time>
      </trkpt>
      <trkpt lat="43.15811" lon="5.83838">
        <ele>131</ele>
        <time>2022-06-11T21:13:21Z</time>
      </trkpt>
      <trkpt lat="43.15807" lon="5.83848">
        <ele>132</ele>
        <time>2022-06-11T21:13:22Z</time>
      </trkpt>
      <trkpt lat="43.15784" lon="5.83885">
        <ele>138</ele>
        <time>2022-06-11T21:13:29Z</time>
      </trkpt>
      <trkpt lat="43.1578" lon="5.83901">
        <ele>138</ele>
        <time>2022-06-11T21:13:31Z</time>
      </trkpt>
      <trkpt lat="43.15778" lon="5.83918">
        <ele>138</ele>
        <time>2022-06-11T21:13:33Z</time>
      </trkpt>
      <trkpt lat="43.15778" lon="5.83938">
        <ele>140</ele>
        <time>2022-06-11T21:13:36Z</time>
      </trkpt>
      <trkpt lat="43.15782" lon="5.83958">
        <ele>141</ele>
        <time>2022-06-11T21:13:38Z</time>
      </trkpt>
      <trkpt lat="43.15788" lon="5.83973">
        <ele>141</ele>
        <time>2022-06-11T21:13:40Z</time>
      </trkpt>
      <trkpt lat="43.15796" lon="5.83986">
        <ele>139</ele>
        <time>2022-06-11T21:13:43Z</time>
      </trkpt>
      <trkpt lat="43.15823" lon="5.84018">
        <ele>134</ele>
        <time>2022-06-11T21:13:49Z</time>
      </trkpt>
      <trkpt lat="43.15837" lon="5.84026">
        <ele>132</ele>
        <time>2022-06-11T21:13:52Z</time>
      </trkpt>
      <trkpt lat="43.1586" lon="5.84033">
        <ele>133</ele>
        <time>2022-06-11T21:13:56Z</time>
      </trkpt>
      <trkpt lat="43.15872" lon="5.84039">
        <ele>133</ele>
        <time>2022-06-11T21:13:58Z</time>
      </trkpt>
      <trkpt lat="43.15889" lon="5.84052">
        <ele>132</ele>
        <time>2022-06-11T21:14:02Z</time>
      </trkpt>
      <trkpt lat="43.159" lon="5.84063">
        <ele>129</ele>
        <time>2022-06-11T21:14:04Z</time>
      </trkpt>
      <trkpt lat="43.15918" lon="5.84088">
        <ele>122</ele>
        <time>2022-06-11T21:14:09Z</time>
      </trkpt>
      <trkpt lat="43.15945" lon="5.84134">
        <ele>132</ele>
        <time>2022-06-11T21:14:16Z</time>
      </trkpt>
      <trkpt lat="43.15953" lon="5.84156">
        <ele>133</ele>
        <time>2022-06-11T21:14:19Z</time>
      </trkpt>
      <trkpt lat="43.15957" lon="5.84178">
        <ele>133</ele>
        <time>2022-06-11T21:14:22Z</time>
      </trkpt>
      <trkpt lat="43.15959" lon="5.84203">
        <ele>133</ele>
        <time>2022-06-11T21:14:26Z</time>
      </trkpt>
      <trkpt lat="43.15957" lon="5.8423">
        <ele>132</ele>
        <time>2022-06-11T21:14:29Z</time>
      </trkpt>
      <trkpt lat="43.15952" lon="5.84268">
        <ele>130</ele>
        <time>2022-06-11T21:14:34Z</time>
      </trkpt>
      <trkpt lat="43.15952" lon="5.84322">
        <ele>124</ele>
        <time>2022-06-11T21:14:41Z</time>
      </trkpt>
      <trkpt lat="43.15951" lon="5.84333">
        <ele>122</ele>
        <time>2022-06-11T21:14:43Z</time>
      </trkpt>
      <trkpt lat="43.15946" lon="5.84343">
        <ele>123</ele>
        <time>2022-06-11T21:14:44Z</time>
      </trkpt>
      <trkpt lat="43.1594" lon="5.84349">
        <ele>123</ele>
        <time>2022-06-11T21:14:46Z</time>
      </trkpt>
      <trkpt lat="43.1591" lon="5.84368">
        <ele>122</ele>
        <time>2022-06-11T21:14:51Z</time>
      </trkpt>
      <trkpt lat="43.15876" lon="5.84372">
        <ele>122</ele>
        <time>2022-06-11T21:14:58Z</time>
      </trkpt>
      <trkpt lat="43.1584" lon="5.84381">
        <ele>119</ele>
        <time>2022-06-11T21:15:04Z</time>
      </trkpt>
      <trkpt lat="43.1582" lon="5.8439">
        <ele>120</ele>
        <time>2022-06-11T21:15:08Z</time>
      </trkpt>
      <trkpt lat="43.15811" lon="5.84397">
        <ele>121</ele>
        <time>2022-06-11T21:15:10Z</time>
      </trkpt>
      <trkpt lat="43.15795" lon="5.84418">
        <ele>118</ele>
        <time>2022-06-11T21:15:14Z</time>
      </trkpt>
      <trkpt lat="43.15754" lon="5.84496">
        <ele>106</ele>
        <time>2022-06-11T21:15:26Z</time>
      </trkpt>
      <trkpt lat="43.15742" lon="5.84509">
        <ele>107</ele>
        <time>2022-06-11T21:15:29Z</time>
      </trkpt>
      <trkpt lat="43.15734" lon="5.8451">
        <ele>108</ele>
        <time>2022-06-11T21:15:30Z</time>
      </trkpt>
      <trkpt lat="43.15726" lon="5.84508">
        <ele>108</ele>
        <time>2022-06-11T21:15:32Z</time>
      </trkpt>
      <trkpt lat="43.15719" lon="5.84503">
        <ele>108</ele>
        <time>2022-06-11T21:15:33Z</time>
      </trkpt>
      <trkpt lat="43.15693" lon="5.8447">
        <ele>114</ele>
        <time>2022-06-11T21:15:39Z</time>
      </trkpt>
      <trkpt lat="43.15666" lon="5.84429">
        <ele>115</ele>
        <time>2022-06-11T21:15:47Z</time>
      </trkpt>
      <trkpt lat="43.15656" lon="5.8441">
        <ele>117</ele>
        <time>2022-06-11T21:15:50Z</time>
      </trkpt>
      <trkpt lat="43.15632" lon="5.84347">
        <ele>119</ele>
        <time>2022-06-11T21:15:59Z</time>
      </trkpt>
      <trkpt lat="43.15618" lon="5.84322">
        <ele>117</ele>
        <time>2022-06-11T21:16:03Z</time>
      </trkpt>
      <trkpt lat="43.15605" lon="5.84302">
        <ele>116</ele>
        <time>2022-06-11T21:16:06Z</time>
      </trkpt>
      <trkpt lat="43.1558" lon="5.84278">
        <ele>112</ele>
        <time>2022-06-11T21:16:12Z</time>
      </trkpt>
      <trkpt lat="43.15563" lon="5.84266">
        <ele>114</ele>
        <time>2022-06-11T21:16:15Z</time>
      </trkpt>
      <trkpt lat="43.15553" lon="5.84264">
        <ele>115</ele>
        <time>2022-06-11T21:16:17Z</time>
      </trkpt>
      <trkpt lat="43.15543" lon="5.84266">
        <ele>114</ele>
        <time>2022-06-11T21:16:19Z</time>
      </trkpt>
      <trkpt lat="43.15536" lon="5.8427">
        <ele>114</ele>
        <time>2022-06-11T21:16:20Z</time>
      </trkpt>
      <trkpt lat="43.15529" lon="5.84277">
        <ele>112</ele>
        <time>2022-06-11T21:16:22Z</time>
      </trkpt>
      <trkpt lat="43.15516" lon="5.84306">
        <ele>103</ele>
        <time>2022-06-11T21:16:26Z</time>
      </trkpt>
      <trkpt lat="43.15499" lon="5.84367">
        <ele>94</ele>
        <time>2022-06-11T21:16:35Z</time>
      </trkpt>
      <trkpt lat="43.15486" lon="5.8439">
        <ele>96</ele>
        <time>2022-06-11T21:16:38Z</time>
      </trkpt>
      <trkpt lat="43.15467" lon="5.84411">
        <ele>97</ele>
        <time>2022-06-11T21:16:43Z</time>
      </trkpt>
      <trkpt lat="43.15424" lon="5.8445">
        <ele>97</ele>
        <time>2022-06-11T21:16:52Z</time>
      </trkpt>
      <trkpt lat="43.15381" lon="5.84496">
        <ele>96</ele>
        <time>2022-06-11T21:17:02Z</time>
      </trkpt>
      <trkpt lat="43.15369" lon="5.84504">
        <ele>97</ele>
        <time>2022-06-11T21:17:04Z</time>
      </trkpt>
      <trkpt lat="43.15339" lon="5.84513">
        <ele>101</ele>
        <time>2022-06-11T21:17:09Z</time>
      </trkpt>
      <trkpt lat="43.15324" lon="5.84512">
        <ele>100</ele>
        <time>2022-06-11T21:17:12Z</time>
      </trkpt>
      <trkpt lat="43.15238" lon="5.8447">
        <ele>101</ele>
        <time>2022-06-11T21:17:28Z</time>
      </trkpt>
      <trkpt lat="43.15211" lon="5.84464">
        <ele>112</ele>
        <time>2022-06-11T21:17:33Z</time>
      </trkpt>
      <trkpt lat="43.15197" lon="5.84466">
        <ele>115</ele>
        <time>2022-06-11T21:17:36Z</time>
      </trkpt>
      <trkpt lat="43.15186" lon="5.84471">
        <ele>116</ele>
        <time>2022-06-11T21:17:38Z</time>
      </trkpt>
      <trkpt lat="43.15176" lon="5.84479">
        <ele>114</ele>
        <time>2022-06-11T21:17:40Z</time>
      </trkpt>
      <trkpt lat="43.15167" lon="5.8449">
        <ele>110</ele>
        <time>2022-06-11T21:17:42Z</time>
      </trkpt>
      <trkpt lat="43.15156" lon="5.84519">
        <ele>103</ele>
        <time>2022-06-11T21:17:46Z</time>
      </trkpt>
      <trkpt lat="43.15155" lon="5.84538">
        <ele>98</ele>
        <time>2022-06-11T21:17:49Z</time>
      </trkpt>
      <trkpt lat="43.15168" lon="5.8473">
        <ele>84</ele>
        <time>2022-06-11T21:18:14Z</time>
      </trkpt>
      <trkpt lat="43.15168" lon="5.84752">
        <ele>85</ele>
        <time>2022-06-11T21:18:17Z</time>
      </trkpt>
      <trkpt lat="43.15161" lon="5.84774">
        <ele>84</ele>
        <time>2022-06-11T21:18:20Z</time>
      </trkpt>
      <trkpt lat="43.15146" lon="5.84799">
        <ele>83</ele>
        <time>2022-06-11T21:18:24Z</time>
      </trkpt>
      <trkpt lat="43.15123" lon="5.84828">
        <ele>80</ele>
        <time>2022-06-11T21:18:29Z</time>
      </trkpt>
      <trkpt lat="43.15109" lon="5.84838">
        <ele>78</ele>
        <time>2022-06-11T21:18:32Z</time>
      </trkpt>
      <trkpt lat="43.15091" lon="5.84842">
        <ele>76</ele>
        <time>2022-06-11T21:18:35Z</time>
      </trkpt>
      <trkpt lat="43.15068" lon="5.84838">
        <ele>74</ele>
        <time>2022-06-11T21:18:40Z</time>
      </trkpt>
      <trkpt lat="43.15044" lon="5.84826">
        <ele>73</ele>
        <time>2022-06-11T21:18:44Z</time>
      </trkpt>
      <trkpt lat="43.14876" lon="5.84683">
        <ele>75</ele>
        <time>2022-06-11T21:19:19Z</time>
      </trkpt>
      <trkpt lat="43.14859" lon="5.84672">
        <ele>77</ele>
        <time>2022-06-11T21:19:23Z</time>
      </trkpt>
      <trkpt lat="43.14851" lon="5.8467">
        <ele>77</ele>
        <time>2022-06-11T21:19:24Z</time>
      </trkpt>
      <trkpt lat="43.1484" lon="5.84674">
        <ele>77</ele>
        <time>2022-06-11T21:19:26Z</time>
      </trkpt>
      <trkpt lat="43.14763" lon="5.84774">
        <ele>71</ele>
        <time>2022-06-11T21:19:45Z</time>
      </trkpt>
      <trkpt lat="43.14718" lon="5.84814">
        <ele>70</ele>
        <time>2022-06-11T21:19:55Z</time>
      </trkpt>
      <trkpt lat="43.14704" lon="5.84822">
        <ele>68</ele>
        <time>2022-06-11T21:19:57Z</time>
      </trkpt>
      <trkpt lat="43.14679" lon="5.84825">
        <ele>67</ele>
        <time>2022-06-11T21:20:02Z</time>
      </trkpt>
      <trkpt lat="43.14664" lon="5.84825">
        <ele>66</ele>
        <time>2022-06-11T21:20:04Z</time>
      </trkpt>
      <trkpt lat="43.14594" lon="5.84811">
        <ele>64</ele>
        <time>2022-06-11T21:20:17Z</time>
      </trkpt>
      <trkpt lat="43.14576" lon="5.84803">
        <ele>63</ele>
        <time>2022-06-11T21:20:20Z</time>
      </trkpt>
      <trkpt lat="43.14498" lon="5.8475">
        <ele>57</ele>
        <time>2022-06-11T21:20:36Z</time>
      </trkpt>
      <trkpt lat="43.14392" lon="5.84695">
        <ele>57</ele>
        <time>2022-06-11T21:20:56Z</time>
      </trkpt>
      <trkpt lat="43.14362" lon="5.84678">
        <ele>56</ele>
        <time>2022-06-11T21:21:02Z</time>
      </trkpt>
      <trkpt lat="43.14312" lon="5.84651">
        <ele>59</ele>
        <time>2022-06-11T21:21:11Z</time>
      </trkpt>
      <trkpt lat="43.14302" lon="5.84648">
        <ele>60</ele>
        <time>2022-06-11T21:21:13Z</time>
      </trkpt>
      <trkpt lat="43.14284" lon="5.84642">
        <ele>62</ele>
        <time>2022-06-11T21:21:16Z</time>
      </trkpt>
      <trkpt lat="43.14265" lon="5.84638">
        <ele>63</ele>
        <time>2022-06-11T21:21:20Z</time>
      </trkpt>
      <trkpt lat="43.14249" lon="5.84639">
        <ele>63</ele>
        <time>2022-06-11T21:21:23Z</time>
      </trkpt>
      <trkpt lat="43.14234" lon="5.84641">
        <ele>64</ele>
        <time>2022-06-11T21:21:25Z</time>
      </trkpt>
      <trkpt lat="43.14214" lon="5.84656">
        <ele>63</ele>
        <time>2022-06-11T21:21:29Z</time>
      </trkpt>
      <trkpt lat="43.14143" lon="5.84742">
        <ele>57</ele>
        <time>2022-06-11T21:21:46Z</time>
      </trkpt>
      <trkpt lat="43.14113" lon="5.84791">
        <ele>56</ele>
        <time>2022-06-11T21:21:55Z</time>
      </trkpt>
      <trkpt lat="43.1408" lon="5.84808">
        <ele>57</ele>
        <time>2022-06-11T21:22:01Z</time>
      </trkpt>
      <trkpt lat="43.14044" lon="5.84843">
        <ele>54</ele>
        <time>2022-06-11T21:22:09Z</time>
      </trkpt>
      <trkpt lat="43.14028" lon="5.84852">
        <ele>53</ele>
        <time>2022-06-11T21:22:12Z</time>
      </trkpt>
      <trkpt lat="43.14008" lon="5.84859">
        <ele>53</ele>
        <time>2022-06-11T21:22:16Z</time>
      </trkpt>
      <trkpt lat="43.13995" lon="5.84855">
        <ele>53</ele>
        <time>2022-06-11T21:22:18Z</time>
      </trkpt>
      <trkpt lat="43.13986" lon="5.84843">
        <ele>54</ele>
        <time>2022-06-11T21:22:20Z</time>
      </trkpt>
      <trkpt lat="43.13961" lon="5.84789">
        <ele>57</ele>
        <time>2022-06-11T21:22:28Z</time>
      </trkpt>
      <trkpt lat="43.13947" lon="5.84781">
        <ele>57</ele>
        <time>2022-06-11T21:22:31Z</time>
      </trkpt>
      <trkpt lat="43.13935" lon="5.84777">
        <ele>57</ele>
        <time>2022-06-11T21:22:33Z</time>
      </trkpt>
      <trkpt lat="43.13808" lon="5.84737">
        <ele>51</ele>
        <time>2022-06-11T21:22:57Z</time>
      </trkpt>
      <trkpt lat="43.13669" lon="5.84697">
        <ele>52</ele>
        <time>2022-06-11T21:23:22Z</time>
      </trkpt>
      <trkpt lat="43.13616" lon="5.84688">
        <ele>48</ele>
        <time>2022-06-11T21:23:31Z</time>
      </trkpt>
      <trkpt lat="43.13588" lon="5.8469">
        <ele>45</ele>
        <time>2022-06-11T21:23:36Z</time>
      </trkpt>
      <trkpt lat="43.13544" lon="5.84688">
        <ele>42</ele>
        <time>2022-06-11T21:23:44Z</time>
      </trkpt>
      <trkpt lat="43.1353" lon="5.8468">
        <ele>41</ele>
        <time>2022-06-11T21:23:47Z</time>
      </trkpt>
      <trkpt lat="43.13519" lon="5.84666">
        <ele>41</ele>
        <time>2022-06-11T21:23:49Z</time>
      </trkpt>
      <trkpt lat="43.13513" lon="5.84654">
        <ele>40</ele>
        <time>2022-06-11T21:23:51Z</time>
      </trkpt>
      <trkpt lat="43.13512" lon="5.84647">
        <ele>40</ele>
        <time>2022-06-11T21:23:52Z</time>
      </trkpt>
      <trkpt lat="43.13509" lon="5.84642">
        <ele>40</ele>
        <time>2022-06-11T21:23:53Z</time>
      </trkpt>
      <trkpt lat="43.13502" lon="5.84642">
        <ele>39</ele>
        <time>2022-06-11T21:23:54Z</time>
      </trkpt>
      <trkpt lat="43.13493" lon="5.84637">
        <ele>39</ele>
        <time>2022-06-11T21:23:56Z</time>
      </trkpt>
      <trkpt lat="43.13475" lon="5.84617">
        <ele>39</ele>
        <time>2022-06-11T21:24:00Z</time>
      </trkpt>
      <trkpt lat="43.13458" lon="5.84607">
        <ele>39</ele>
        <time>2022-06-11T21:24:04Z</time>
      </trkpt>
      <trkpt lat="43.1342" lon="5.84603">
        <ele>38</ele>
        <time>2022-06-11T21:24:10Z</time>
      </trkpt>
      <trkpt lat="43.13337" lon="5.84607">
        <ele>37</ele>
        <time>2022-06-11T21:24:25Z</time>
      </trkpt>
      <trkpt lat="43.13319" lon="5.84603">
        <ele>37</ele>
        <time>2022-06-11T21:24:28Z</time>
      </trkpt>
      <trkpt lat="43.13274" lon="5.84571">
        <ele>36</ele>
        <time>2022-06-11T21:24:37Z</time>
      </trkpt>
      <trkpt lat="43.13261" lon="5.84556">
        <ele>36</ele>
        <time>2022-06-11T21:24:40Z</time>
      </trkpt>
      <trkpt lat="43.1326" lon="5.8455">
        <ele>37</ele>
        <time>2022-06-11T21:24:41Z</time>
      </trkpt>
      <trkpt lat="43.13257" lon="5.84546">
        <ele>37</ele>
        <time>2022-06-11T21:24:42Z</time>
      </trkpt>
      <trkpt lat="43.13252" lon="5.84545">
        <ele>36</ele>
        <time>2022-06-11T21:24:43Z</time>
      </trkpt>
      <trkpt lat="43.13241" lon="5.84539">
        <ele>36</ele>
        <time>2022-06-11T21:24:45Z</time>
      </trkpt>
      <trkpt lat="43.13209" lon="5.84507">
        <ele>36</ele>
        <time>2022-06-11T21:24:52Z</time>
      </trkpt>
      <trkpt lat="43.13173" lon="5.84465">
        <ele>38</ele>
        <time>2022-06-11T21:25:00Z</time>
      </trkpt>
      <trkpt lat="43.13158" lon="5.84456">
        <ele>38</ele>
        <time>2022-06-11T21:25:03Z</time>
      </trkpt>
      <trkpt lat="43.13121" lon="5.84437">
        <ele>39</ele>
        <time>2022-06-11T21:25:10Z</time>
      </trkpt>
      <trkpt lat="43.13061" lon="5.84418">
        <ele>40</ele>
        <time>2022-06-11T21:25:21Z</time>
      </trkpt>
      <trkpt lat="43.13038" lon="5.84418">
        <ele>40</ele>
        <time>2022-06-11T21:25:25Z</time>
      </trkpt>
      <trkpt lat="43.12984" lon="5.8442">
        <ele>39</ele>
        <time>2022-06-11T21:25:35Z</time>
      </trkpt>
      <trkpt lat="43.12963" lon="5.84427">
        <ele>38</ele>
        <time>2022-06-11T21:25:39Z</time>
      </trkpt>
      <trkpt lat="43.12925" lon="5.84431">
        <ele>38</ele>
        <time>2022-06-11T21:25:46Z</time>
      </trkpt>
      <trkpt lat="43.12904" lon="5.84428">
        <ele>38</ele>
        <time>2022-06-11T21:25:49Z</time>
      </trkpt>
      <trkpt lat="43.12892" lon="5.84423">
        <ele>37</ele>
        <time>2022-06-11T21:25:52Z</time>
      </trkpt>
      <trkpt lat="43.12889" lon="5.84417">
        <ele>37</ele>
        <time>2022-06-11T21:25:53Z</time>
      </trkpt>
      <trkpt lat="43.12884" lon="5.84413">
        <ele>37</ele>
        <time>2022-06-11T21:25:54Z</time>
      </trkpt>
      <trkpt lat="43.1288" lon="5.84398">
        <ele>39</ele>
        <time>2022-06-11T21:25:56Z</time>
      </trkpt>
      <trkpt lat="43.12864" lon="5.84374">
        <ele>40</ele>
        <time>2022-06-11T21:26:00Z</time>
      </trkpt>
      <trkpt lat="43.12828" lon="5.84338">
        <ele>38</ele>
        <time>2022-06-11T21:26:08Z</time>
      </trkpt>
      <trkpt lat="43.12809" lon="5.84317">
        <ele>37</ele>
        <time>2022-06-11T21:26:12Z</time>
      </trkpt>
      <trkpt lat="43.12783" lon="5.84275">
        <ele>36</ele>
        <time>2022-06-11T21:26:19Z</time>
      </trkpt>
      <trkpt lat="43.12773" lon="5.84254">
        <ele>35</ele>
        <time>2022-06-11T21:26:23Z</time>
      </trkpt>
      <trkpt lat="43.12758" lon="5.84211">
        <ele>31</ele>
        <time>2022-06-11T21:26:29Z</time>
      </trkpt>
      <trkpt lat="43.12743" lon="5.84175">
        <ele>29</ele>
        <time>2022-06-11T21:26:34Z</time>
      </trkpt>
      <trkpt lat="43.12706" lon="5.84098">
        <ele>26</ele>
        <time>2022-06-11T21:26:46Z</time>
      </trkpt>
      <trkpt lat="43.12698" lon="5.84073">
        <ele>26</ele>
        <time>2022-06-11T21:26:50Z</time>
      </trkpt>
      <trkpt lat="43.12694" lon="5.84055">
        <ele>25</ele>
        <time>2022-06-11T21:26:52Z</time>
      </trkpt>
      <trkpt lat="43.12692" lon="5.84037">
        <ele>25</ele>
        <time>2022-06-11T21:26:54Z</time>
      </trkpt>
      <trkpt lat="43.12691" lon="5.83952">
        <ele>25</ele>
        <time>2022-06-11T21:27:05Z</time>
      </trkpt>
      <trkpt lat="43.12685" lon="5.8392">
        <ele>24</ele>
        <time>2022-06-11T21:27:10Z</time>
      </trkpt>
      <trkpt lat="43.12675" lon="5.83898">
        <ele>24</ele>
        <time>2022-06-11T21:27:13Z</time>
      </trkpt>
      <trkpt lat="43.12657" lon="5.83882">
        <ele>24</ele>
        <time>2022-06-11T21:27:17Z</time>
      </trkpt>
      <trkpt lat="43.12627" lon="5.83864">
        <ele>24</ele>
        <time>2022-06-11T21:27:23Z</time>
      </trkpt>
      <trkpt lat="43.12609" lon="5.83848">
        <ele>23</ele>
        <time>2022-06-11T21:27:27Z</time>
      </trkpt>
      <trkpt lat="43.12599" lon="5.83834">
        <ele>23</ele>
        <time>2022-06-11T21:27:29Z</time>
      </trkpt>
      <trkpt lat="43.12594" lon="5.83818">
        <ele>23</ele>
        <time>2022-06-11T21:27:31Z</time>
      </trkpt>
      <trkpt lat="43.1259" lon="5.83801">
        <ele>23</ele>
        <time>2022-06-11T21:27:34Z</time>
      </trkpt>
      <trkpt lat="43.12563" lon="5.83644">
        <ele>22</ele>
        <time>2022-06-11T21:27:55Z</time>
      </trkpt>
      <trkpt lat="43.12556" lon="5.83617">
        <ele>21</ele>
        <time>2022-06-11T21:27:58Z</time>
      </trkpt>
      <trkpt lat="43.12555" lon="5.83604">
        <ele>21</ele>
        <time>2022-06-11T21:28:00Z</time>
      </trkpt>
      <trkpt lat="43.12558" lon="5.83595">
        <ele>21</ele>
        <time>2022-06-11T21:28:01Z</time>
      </trkpt>
      <trkpt lat="43.12558" lon="5.83585">
        <ele>21</ele>
        <time>2022-06-11T21:28:03Z</time>
      </trkpt>
      <trkpt lat="43.12555" lon="5.83579">
        <ele>21</ele>
        <time>2022-06-11T21:28:04Z</time>
      </trkpt>
      <trkpt lat="43.1255" lon="5.83573">
        <ele>21</ele>
        <time>2022-06-11T21:28:05Z</time>
      </trkpt>
      <trkpt lat="43.1254" lon="5.83572">
        <ele>21</ele>
        <time>2022-06-11T21:28:07Z</time>
      </trkpt>
      <trkpt lat="43.12533" lon="5.83572">
        <ele>21</ele>
        <time>2022-06-11T21:28:08Z</time>
      </trkpt>
      <trkpt lat="43.12522" lon="5.83568">
        <ele>21</ele>
        <time>2022-06-11T21:28:10Z</time>
      </trkpt>
      <trkpt lat="43.12483" lon="5.83513">
        <ele>21</ele>
        <time>2022-06-11T21:28:20Z</time>
      </trkpt>
      <trkpt lat="43.12475" lon="5.83495">
        <ele>21</ele>
        <time>2022-06-11T21:28:23Z</time>
      </trkpt>
      <trkpt lat="43.12468" lon="5.83476">
        <ele>21</ele>
        <time>2022-06-11T21:28:25Z</time>
      </trkpt>
      <trkpt lat="43.12443" lon="5.83359">
        <ele>20</ele>
        <time>2022-06-11T21:28:41Z</time>
      </trkpt>
      <trkpt lat="43.12372" lon="5.83128">
        <ele>19</ele>
        <time>2022-06-11T21:29:14Z</time>
      </trkpt>
      <trkpt lat="43.12338" lon="5.82992">
        <ele>18</ele>
        <time>2022-06-11T21:29:32Z</time>
      </trkpt>
      <trkpt lat="43.12327" lon="5.82945">
        <ele>16</ele>
        <time>2022-06-11T21:29:39Z</time>
      </trkpt>
      <trkpt lat="43.12315" lon="5.82876">
        <ele>16</ele>
        <time>2022-06-11T21:29:48Z</time>
      </trkpt>
      <trkpt lat="43.12307" lon="5.82825">
        <ele>16</ele>
        <time>2022-06-11T21:29:55Z</time>
      </trkpt>
      <trkpt lat="43.1229" lon="5.82732">
        <ele>16</ele>
        <time>2022-06-11T21:30:07Z</time>
      </trkpt>
      <trkpt lat="43.12281" lon="5.82686">
        <ele>15</ele>
        <time>2022-06-11T21:30:13Z</time>
      </trkpt>
      <trkpt lat="43.12268" lon="5.82639">
        <ele>15</ele>
        <time>2022-06-11T21:30:20Z</time>
      </trkpt>
      <trkpt lat="43.12267" lon="5.82618">
        <ele>15</ele>
        <time>2022-06-11T21:30:23Z</time>
      </trkpt>
      <trkpt lat="43.12274" lon="5.82561">
        <ele>15</ele>
        <time>2022-06-11T21:30:30Z</time>
      </trkpt>
      <trkpt lat="43.12283" lon="5.82507">
        <ele>15</ele>
        <time>2022-06-11T21:30:37Z</time>
      </trkpt>
      <trkpt lat="43.12304" lon="5.82429">
        <ele>14</ele>
        <time>2022-06-11T21:30:48Z</time>
      </trkpt>
      <trkpt lat="43.12313" lon="5.82382">
        <ele>14</ele>
        <time>2022-06-11T21:30:54Z</time>
      </trkpt>
      <trkpt lat="43.12319" lon="5.82334">
        <ele>15</ele>
        <time>2022-06-11T21:31:01Z</time>
      </trkpt>
      <trkpt lat="43.12327" lon="5.82291">
        <ele>15</ele>
        <time>2022-06-11T21:31:07Z</time>
      </trkpt>
      <trkpt lat="43.12332" lon="5.82281">
        <ele>15</ele>
        <time>2022-06-11T21:31:08Z</time>
      </trkpt>
      <trkpt lat="43.12331" lon="5.82268">
        <ele>15</ele>
        <time>2022-06-11T21:31:10Z</time>
      </trkpt>
      <trkpt lat="43.12328" lon="5.82256">
        <ele>15</ele>
        <time>2022-06-11T21:31:11Z</time>
      </trkpt>
      <trkpt lat="43.12292" lon="5.82242">
        <ele>15</ele>
        <time>2022-06-11T21:31:18Z</time>
      </trkpt>
      <trkpt lat="43.12281" lon="5.82239">
        <ele>14</ele>
        <time>2022-06-11T21:31:20Z</time>
      </trkpt>
      <trkpt lat="43.12249" lon="5.8223">
        <ele>14</ele>
        <time>2022-06-11T21:31:26Z</time>
      </trkpt>
      <trkpt lat="43.12227" lon="5.82221">
        <ele>13</ele>
        <time>2022-06-11T21:31:30Z</time>
      </trkpt>
      <trkpt lat="43.12207" lon="5.82206">
        <ele>13</ele>
        <time>2022-06-11T21:31:34Z</time>
      </trkpt>
      <trkpt lat="43.12189" lon="5.8218">
        <ele>12</ele>
        <time>2022-06-11T21:31:39Z</time>
      </trkpt>
      <trkpt lat="43.12181" lon="5.82157">
        <ele>11</ele>
        <time>2022-06-11T21:31:42Z</time>
      </trkpt>
      <trkpt lat="43.12154" lon="5.82021">
        <ele>10</ele>
        <time>2022-06-11T21:32:00Z</time>
      </trkpt>
      <trkpt lat="43.12156" lon="5.8199">
        <ele>10</ele>
        <time>2022-06-11T21:32:04Z</time>
      </trkpt>
      <trkpt lat="43.12168" lon="5.81937">
        <ele>10</ele>
        <time>2022-06-11T21:32:12Z</time>
      </trkpt>
      <trkpt lat="43.12171" lon="5.81917">
        <ele>10</ele>
        <time>2022-06-11T21:32:14Z</time>
      </trkpt>
      <trkpt lat="43.12166" lon="5.81889">
        <ele>10</ele>
        <time>2022-06-11T21:32:18Z</time>
      </trkpt>
      <trkpt lat="43.12136" lon="5.81806">
        <ele>10</ele>
        <time>2022-06-11T21:32:30Z</time>
      </trkpt>
      <trkpt lat="43.12104" lon="5.81712">
        <ele>10</ele>
        <time>2022-06-11T21:32:43Z</time>
      </trkpt>
      <trkpt lat="43.12095" lon="5.81673">
        <ele>10</ele>
        <time>2022-06-11T21:32:49Z</time>
      </trkpt>
      <trkpt lat="43.12065" lon="5.81494">
        <ele>10</ele>
        <time>2022-06-11T21:33:13Z</time>
      </trkpt>
      <trkpt lat="43.12056" lon="5.8145">
        <ele>9</ele>
        <time>2022-06-11T21:33:19Z</time>
      </trkpt>
      <trkpt lat="43.12045" lon="5.81417">
        <ele>9</ele>
        <time>2022-06-11T21:33:23Z</time>
      </trkpt>
      <trkpt lat="43.12029" lon="5.81388">
        <ele>8</ele>
        <time>2022-06-11T21:33:28Z</time>
      </trkpt>
      <trkpt lat="43.11957" lon="5.81284">
        <ele>9</ele>
        <time>2022-06-11T21:33:47Z</time>
      </trkpt>
      <trkpt lat="43.11945" lon="5.81258">
        <ele>9</ele>
        <time>2022-06-11T21:33:51Z</time>
      </trkpt>
      <trkpt lat="43.11918" lon="5.81177">
        <ele>8</ele>
        <time>2022-06-11T21:34:02Z</time>
      </trkpt>
      <trkpt lat="43.1191" lon="5.8115">
        <ele>8</ele>
        <time>2022-06-11T21:34:06Z</time>
      </trkpt>
      <trkpt lat="43.11907" lon="5.81137">
        <ele>8</ele>
        <time>2022-06-11T21:34:08Z</time>
      </trkpt>
      <trkpt lat="43.11908" lon="5.81125">
        <ele>8</ele>
        <time>2022-06-11T21:34:09Z</time>
      </trkpt>
      <trkpt lat="43.11913" lon="5.81097">
        <ele>8</ele>
        <time>2022-06-11T21:34:13Z</time>
      </trkpt>
      <trkpt lat="43.11918" lon="5.81088">
        <ele>8</ele>
        <time>2022-06-11T21:34:15Z</time>
      </trkpt>
      <trkpt lat="43.11918" lon="5.81077">
        <ele>8</ele>
        <time>2022-06-11T21:34:16Z</time>
      </trkpt>
      <trkpt lat="43.11917" lon="5.81072">
        <ele>8</ele>
        <time>2022-06-11T21:34:17Z</time>
      </trkpt>
      <trkpt lat="43.1191" lon="5.81064">
        <ele>8</ele>
        <time>2022-06-11T21:34:18Z</time>
      </trkpt>
      <trkpt lat="43.11906" lon="5.81062">
        <ele>8</ele>
        <time>2022-06-11T21:34:19Z</time>
      </trkpt>
      <trkpt lat="43.11898" lon="5.81064">
        <ele>7</ele>
        <time>2022-06-11T21:34:20Z</time>
      </trkpt>
      <trkpt lat="43.11888" lon="5.81058">
        <ele>7</ele>
        <time>2022-06-11T21:34:22Z</time>
      </trkpt>
      <trkpt lat="43.1188" lon="5.81049">
        <ele>7</ele>
        <time>2022-06-11T21:34:24Z</time>
      </trkpt>
      <trkpt lat="43.11837" lon="5.80913">
        <ele>7</ele>
        <time>2022-06-11T21:34:44Z</time>
      </trkpt>
      <trkpt lat="43.11833" lon="5.80884">
        <ele>7</ele>
        <time>2022-06-11T21:34:47Z</time>
      </trkpt>
      <trkpt lat="43.1183" lon="5.80876">
        <ele>7</ele>
        <time>2022-06-11T21:34:49Z</time>
      </trkpt>
      <trkpt lat="43.1182" lon="5.80861">
        <ele>7</ele>
        <time>2022-06-11T21:34:51Z</time>
      </trkpt>
      <trkpt lat="43.11802" lon="5.80814">
        <ele>7</ele>
        <time>2022-06-11T21:34:58Z</time>
      </trkpt>
      <trkpt lat="43.11773" lon="5.80732">
        <ele>6</ele>
        <time>2022-06-11T21:35:10Z</time>
      </trkpt>
      <trkpt lat="43.11761" lon="5.8071">
        <ele>6</ele>
        <time>2022-06-11T21:35:13Z</time>
      </trkpt>
      <trkpt lat="43.11737" lon="5.8068">
        <ele>6</ele>
        <time>2022-06-11T21:35:19Z</time>
      </trkpt>
      <trkpt lat="43.11714" lon="5.80661">
        <ele>5</ele>
        <time>2022-06-11T21:35:24Z</time>
      </trkpt>
      <trkpt lat="43.11699" lon="5.80652">
        <ele>5</ele>
        <time>2022-06-11T21:35:27Z</time>
      </trkpt>
      <trkpt lat="43.1164" lon="5.80627">
        <ele>4</ele>
        <time>2022-06-11T21:35:38Z</time>
      </trkpt>
      <trkpt lat="43.11638" lon="5.80626">
        <ele>4</ele>
        <time>2022-06-11T21:35:38Z</time>
      </trkpt>
      <trkpt lat="43.11629" lon="5.80619">
        <ele>4</ele>
        <time>2022-06-11T21:35:40Z</time>
      </trkpt>
      <trkpt lat="43.11626" lon="5.80613">
        <ele>4</ele>
        <time>2022-06-11T21:35:41Z</time>
      </trkpt>
      <trkpt lat="43.11625" lon="5.80607">
        <ele>4</ele>
        <time>2022-06-11T21:35:42Z</time>
      </trkpt>
      <trkpt lat="43.11621" lon="5.80601">
        <ele>4</ele>
        <time>2022-06-11T21:35:43Z</time>
      </trkpt>
      <trkpt lat="43.11618" lon="5.80599">
        <ele>4</ele>
        <time>2022-06-11T21:35:44Z</time>
      </trkpt>
      <trkpt lat="43.11613" lon="5.80598">
        <ele>4</ele>
        <time>2022-06-11T21:35:44Z</time>
      </trkpt>
      <trkpt lat="43.11608" lon="5.806">
        <ele>4</ele>
        <time>2022-06-11T21:35:45Z</time>
      </trkpt>
      <trkpt lat="43.11604" lon="5.80607">
        <ele>4</ele>
        <time>2022-06-11T21:35:46Z</time>
      </trkpt>
      <trkpt lat="43.11603" lon="5.80616">
        <ele>4</ele>
        <time>2022-06-11T21:35:48Z</time>
      </trkpt>
      <trkpt lat="43.11605" lon="5.80624">
        <ele>3</ele>
        <time>2022-06-11T21:35:49Z</time>
      </trkpt>
      <trkpt lat="43.11608" lon="5.80627">
        <ele>3</ele>
        <time>2022-06-11T21:35:49Z</time>
      </trkpt>
      <trkpt lat="43.11604" lon="5.80649">
        <ele>3</ele>
        <time>2022-06-11T21:35:52Z</time>
      </trkpt>
      <trkpt lat="43.11589" lon="5.80702">
        <ele>2</ele>
        <time>2022-06-11T21:36:00Z</time>
      </trkpt>
      <trkpt lat="43.11577" lon="5.80743">
        <ele>2</ele>
        <time>2022-06-11T21:36:06Z</time>
      </trkpt>
      <trkpt lat="43.1157" lon="5.80767">
        <ele>2</ele>
        <time>2022-06-11T21:36:09Z</time>
      </trkpt>
      <trkpt lat="43.11566" lon="5.80771">
        <ele>2</ele>
        <time>2022-06-11T21:36:10Z</time>
      </trkpt>
      <trkpt lat="43.11553" lon="5.80821">
        <ele>2</ele>
        <time>2022-06-11T21:36:17Z</time>
      </trkpt>
      <trkpt lat="43.11543" lon="5.80844">
        <ele>2</ele>
        <time>2022-06-11T21:36:20Z</time>
      </trkpt>
      <trkpt lat="43.11521" lon="5.8088">
        <ele>3</ele>
        <time>2022-06-11T21:36:26Z</time>
      </trkpt>
      <trkpt lat="43.11516" lon="5.80885">
        <ele>3</ele>
        <time>2022-06-11T21:36:27Z</time>
      </trkpt>
      <trkpt lat="43.11503" lon="5.8089">
        <ele>3</ele>
        <time>2022-06-11T21:36:30Z</time>
      </trkpt>
      <trkpt lat="43.11286" lon="5.81102">
        <ele>3</ele>
        <time>2022-06-11T21:37:17Z</time>
      </trkpt>
      <trkpt lat="43.1128" lon="5.81109">
        <ele>3</ele>
        <time>2022-06-11T21:37:19Z</time>
      </trkpt>
      <trkpt lat="43.11279" lon="5.81113">
        <ele>3</ele>
        <time>2022-06-11T21:37:19Z</time>
      </trkpt>
      <trkpt lat="43.11283" lon="5.81116">
        <ele>3</ele>
        <time>2022-06-11T21:37:20Z</time>
      </trkpt>
      <trkpt lat="43.11285" lon="5.8112">
        <ele>3</ele>
        <time>2022-06-11T21:37:21Z</time>
      </trkpt>
      <trkpt lat="43.11281" lon="5.81129">
        <ele>3</ele>
        <time>2022-06-11T21:37:22Z</time>
      </trkpt>
      <trkpt lat="43.11281" lon="5.81134">
        <ele>4</ele>
        <time>2022-06-11T21:37:23Z</time>
      </trkpt>
      <trkpt lat="43.11172" lon="5.81195">
        <ele>2</ele>
        <time>2022-06-11T21:37:43Z</time>
      </trkpt>
      <trkpt lat="43.10894" lon="5.81338">
        <ele>3</ele>
        <time>2022-06-11T21:38:36Z</time>
      </trkpt>
      <trkpt lat="43.10868" lon="5.81347">
        <ele>3</ele>
        <time>2022-06-11T21:38:41Z</time>
      </trkpt>
      <trkpt lat="43.10754" lon="5.814">
        <ele>5</ele>
        <time>2022-06-11T21:39:03Z</time>
      </trkpt>
      <trkpt lat="43.10713" lon="5.81426">
        <ele>5</ele>
        <time>2022-06-11T21:39:11Z</time>
      </trkpt>
      <trkpt lat="43.10704" lon="5.81428">
        <ele>5</ele>
        <time>2022-06-11T21:39:12Z</time>
      </trkpt>
      <trkpt lat="43.10695" lon="5.81431">
        <ele>5</ele>
        <time>2022-06-11T21:39:14Z</time>
      </trkpt>
      <trkpt lat="43.10687" lon="5.8143">
        <ele>5</ele>
        <time>2022-06-11T21:39:15Z</time>
      </trkpt>
      <trkpt lat="43.10681" lon="5.81422">
        <ele>4</ele>
        <time>2022-06-11T21:39:17Z</time>
      </trkpt>
      <trkpt lat="43.10674" lon="5.81418">
        <ele>3</ele>
        <time>2022-06-11T21:39:18Z</time>
      </trkpt>
      <trkpt lat="43.10664" lon="5.81422">
        <ele>3</ele>
        <time>2022-06-11T21:39:20Z</time>
      </trkpt>
      <trkpt lat="43.10646" lon="5.81417">
        <ele>4</ele>
        <time>2022-06-11T21:39:23Z</time>
      </trkpt>
      <trkpt lat="43.10613" lon="5.814">
        <ele>4</ele>
        <time>2022-06-11T21:39:29Z</time>
      </trkpt>
      <trkpt lat="43.1047" lon="5.81311">
        <ele>9</ele>
        <time>2022-06-11T21:39:57Z</time>
      </trkpt>
      <trkpt lat="43.10447" lon="5.813">
        <ele>9</ele>
        <time>2022-06-11T21:40:02Z</time>
      </trkpt>
      <trkpt lat="43.10414" lon="5.81289">
        <ele>10</ele>
        <time>2022-06-11T21:40:08Z</time>
      </trkpt>
      <trkpt lat="43.10383" lon="5.81282">
        <ele>10</ele>
        <time>2022-06-11T21:40:13Z</time>
      </trkpt>
      <trkpt lat="43.1031" lon="5.81286">
        <ele>13</ele>
        <time>2022-06-11T21:40:26Z</time>
      </trkpt>
      <trkpt lat="43.10294" lon="5.81283">
        <ele>14</ele>
        <time>2022-06-11T21:40:29Z</time>
      </trkpt>
      <trkpt lat="43.10221" lon="5.81264">
        <ele>18</ele>
        <time>2022-06-11T21:40:43Z</time>
      </trkpt>
      <trkpt lat="43.10107" lon="5.81214">
        <ele>23</ele>
        <time>2022-06-11T21:41:04Z</time>
      </trkpt>
      <trkpt lat="43.10069" lon="5.81206">
        <ele>24</ele>
        <time>2022-06-11T21:41:11Z</time>
      </trkpt>
      <trkpt lat="43.10057" lon="5.81202">
        <ele>24</ele>
        <time>2022-06-11T21:41:13Z</time>
      </trkpt>
      <trkpt lat="43.10004" lon="5.81198">
        <ele>24</ele>
        <time>2022-06-11T21:41:22Z</time>
      </trkpt>
      <trkpt lat="43.0985" lon="5.81207">
        <ele>10</ele>
        <time>2022-06-11T21:41:50Z</time>
      </trkpt>
      <trkpt lat="43.0979" lon="5.81215">
        <ele>6</ele>
        <time>2022-06-11T21:42:00Z</time>
      </trkpt>
      <trkpt lat="43.09747" lon="5.81225">
        <ele>4</ele>
        <time>2022-06-11T21:42:08Z</time>
      </trkpt>
      <trkpt lat="43.09699" lon="5.81238">
        <ele>4</ele>
        <time>2022-06-11T21:42:17Z</time>
      </trkpt>
      <trkpt lat="43.09554" lon="5.81285">
        <ele>4</ele>
        <time>2022-06-11T21:42:43Z</time>
      </trkpt>
      <trkpt lat="43.09511" lon="5.81288">
        <ele>6</ele>
        <time>2022-06-11T21:42:51Z</time>
      </trkpt>
      <trkpt lat="43.0948" lon="5.81283">
        <ele>6</ele>
        <time>2022-06-11T21:42:57Z</time>
      </trkpt>
      <trkpt lat="43.09437" lon="5.81267">
        <ele>5</ele>
        <time>2022-06-11T21:43:05Z</time>
      </trkpt>
      <trkpt lat="43.09265" lon="5.81185">
        <ele>5</ele>
        <time>2022-06-11T21:43:37Z</time>
      </trkpt>
      <trkpt lat="43.09253" lon="5.81173">
        <ele>5</ele>
        <time>2022-06-11T21:43:40Z</time>
      </trkpt>
      <trkpt lat="43.09248" lon="5.8116">
        <ele>5</ele>
        <time>2022-06-11T21:43:42Z</time>
      </trkpt>
      <trkpt lat="43.09239" lon="5.81154">
        <ele>5</ele>
        <time>2022-06-11T21:43:43Z</time>
      </trkpt>
      <trkpt lat="43.09231" lon="5.81155">
        <ele>6</ele>
        <time>2022-06-11T21:43:45Z</time>
      </trkpt>
      <trkpt lat="43.09224" lon="5.8116">
        <ele>6</ele>
        <time>2022-06-11T21:43:46Z</time>
      </trkpt>
      <trkpt lat="43.09209" lon="5.81162">
        <ele>7</ele>
        <time>2022-06-11T21:43:49Z</time>
      </trkpt>
      <trkpt lat="43.09114" lon="5.81114">
        <ele>10</ele>
        <time>2022-06-11T21:44:07Z</time>
      </trkpt>
      <trkpt lat="43.09053" lon="5.81087">
        <ele>9</ele>
        <time>2022-06-11T21:44:18Z</time>
      </trkpt>
      <trkpt lat="43.08903" lon="5.81033">
        <ele>10</ele>
        <time>2022-06-11T21:44:46Z</time>
      </trkpt>
      <trkpt lat="43.08818" lon="5.80994">
        <ele>10</ele>
        <time>2022-06-11T21:45:02Z</time>
      </trkpt>
      <trkpt lat="43.08723" lon="5.80958">
        <ele>8</ele>
        <time>2022-06-11T21:45:19Z</time>
      </trkpt>
      <trkpt lat="43.08701" lon="5.80945">
        <ele>7</ele>
        <time>2022-06-11T21:45:24Z</time>
      </trkpt>
      <trkpt lat="43.08666" lon="5.80916">
        <ele>6</ele>
        <time>2022-06-11T21:45:31Z</time>
      </trkpt>
      <trkpt lat="43.08582" lon="5.80821">
        <ele>9</ele>
        <time>2022-06-11T21:45:50Z</time>
      </trkpt>
      <trkpt lat="43.0855" lon="5.80792">
        <ele>10</ele>
        <time>2022-06-11T21:45:57Z</time>
      </trkpt>
      <trkpt lat="43.0852" lon="5.80772">
        <ele>12</ele>
        <time>2022-06-11T21:46:03Z</time>
      </trkpt>
      <trkpt lat="43.08506" lon="5.80766">
        <ele>13</ele>
        <time>2022-06-11T21:46:06Z</time>
      </trkpt>
      <trkpt lat="43.08501" lon="5.80762">
        <ele>13</ele>
        <time>2022-06-11T21:46:07Z</time>
      </trkpt>
      <trkpt lat="43.08498" lon="5.80763">
        <ele>13</ele>
        <time>2022-06-11T21:46:07Z</time>
      </trkpt>
      <trkpt lat="43.08497" lon="5.80767">
        <ele>13</ele>
        <time>2022-06-11T21:46:08Z</time>
      </trkpt>
      <trkpt lat="43.08463" lon="5.80753">
        <ele>12</ele>
        <time>2022-06-11T21:46:14Z</time>
      </trkpt>
      <trkpt lat="43.08219" lon="5.80686">
        <ele>6</ele>
        <time>2022-06-11T21:46:58Z</time>
      </trkpt>
      <trkpt lat="43.08157" lon="5.80678">
        <ele>4</ele>
        <time>2022-06-11T21:47:09Z</time>
      </trkpt>
      <trkpt lat="43.08049" lon="5.80637">
        <ele>4</ele>
        <time>2022-06-11T21:47:29Z</time>
      </trkpt>
      <trkpt lat="43.08023" lon="5.80633">
        <ele>4</ele>
        <time>2022-06-11T21:47:34Z</time>
      </trkpt>
      <trkpt lat="43.08013" lon="5.80627">
        <ele>4</ele>
        <time>2022-06-11T21:47:36Z</time>
      </trkpt>
      <trkpt lat="43.08" lon="5.80616">
        <ele>4</ele>
        <time>2022-06-11T21:47:39Z</time>
      </trkpt>
      <trkpt lat="43.07977" lon="5.80593">
        <ele>4</ele>
        <time>2022-06-11T21:47:44Z</time>
      </trkpt>
      <trkpt lat="43.07959" lon="5.80573">
        <ele>4</ele>
        <time>2022-06-11T21:47:48Z</time>
      </trkpt>
      <trkpt lat="43.07957" lon="5.80561">
        <ele>4</ele>
        <time>2022-06-11T21:47:49Z</time>
      </trkpt>
      <trkpt lat="43.07952" lon="5.80553">
        <ele>4</ele>
        <time>2022-06-11T21:47:51Z</time>
      </trkpt>
      <trkpt lat="43.07944" lon="5.80554">
        <ele>4</ele>
        <time>2022-06-11T21:47:52Z</time>
      </trkpt>
      <trkpt lat="43.07943" lon="5.8056">
        <ele>4</ele>
        <time>2022-06-11T21:47:53Z</time>
      </trkpt>
      <trkpt lat="43.07913" lon="5.80606">
        <ele>7</ele>
        <time>2022-06-11T21:48:01Z</time>
      </trkpt>
      <trkpt lat="43.07908" lon="5.80617">
        <ele>8</ele>
        <time>2022-06-11T21:48:03Z</time>
      </trkpt>
      <trkpt lat="43.07887" lon="5.80645">
        <ele>9</ele>
        <time>2022-06-11T21:48:08Z</time>
      </trkpt>
      <trkpt lat="43.07879" lon="5.8066">
        <ele>9</ele>
        <time>2022-06-11T21:48:10Z</time>
      </trkpt>
      <trkpt lat="43.07796" lon="5.80869">
        <ele>15</ele>
        <time>2022-06-11T21:48:41Z</time>
      </trkpt>
      <trkpt lat="43.07784" lon="5.80883">
        <ele>15</ele>
        <time>2022-06-11T21:48:44Z</time>
      </trkpt>
      <trkpt lat="43.07779" lon="5.80883">
        <ele>15</ele>
        <time>2022-06-11T21:48:45Z</time>
      </trkpt>
      <trkpt lat="43.07771" lon="5.80877">
        <ele>15</ele>
        <time>2022-06-11T21:48:47Z</time>
      </trkpt>
      <trkpt lat="43.07768" lon="5.80881">
        <ele>15</ele>
        <time>2022-06-11T21:48:47Z</time>
      </trkpt>
      <trkpt lat="43.07765" lon="5.80884">
        <ele>15</ele>
        <time>2022-06-11T21:48:48Z</time>
      </trkpt>
      <trkpt lat="43.0777" lon="5.80895">
        <ele>16</ele>
        <time>2022-06-11T21:48:50Z</time>
      </trkpt>
      <trkpt lat="43.0777" lon="5.80902">
        <ele>16</ele>
        <time>2022-06-11T21:48:51Z</time>
      </trkpt>
      <trkpt lat="43.07772" lon="5.80909">
        <ele>16</ele>
        <time>2022-06-11T21:48:52Z</time>
      </trkpt>
      <trkpt lat="43.07771" lon="5.80922">
        <ele>16</ele>
        <time>2022-06-11T21:48:53Z</time>
      </trkpt>
      <trkpt lat="43.07767" lon="5.80943">
        <ele>16</ele>
        <time>2022-06-11T21:48:56Z</time>
      </trkpt>
      <trkpt lat="43.07618" lon="5.81478">
        <ele>26</ele>
        <time>2022-06-11T21:50:11Z</time>
      </trkpt>
      <trkpt lat="43.07616" lon="5.81509">
        <ele>27</ele>
        <time>2022-06-11T21:50:15Z</time>
      </trkpt>
      <trkpt lat="43.07617" lon="5.81518">
        <ele>27</ele>
        <time>2022-06-11T21:50:16Z</time>
      </trkpt>
      <trkpt lat="43.07585" lon="5.81526">
        <ele>29</ele>
        <time>2022-06-11T21:50:22Z</time>
      </trkpt>
      <trkpt lat="43.07568" lon="5.81537">
        <ele>30</ele>
        <time>2022-06-11T21:50:25Z</time>
      </trkpt>
      <trkpt lat="43.07562" lon="5.81544">
        <ele>30</ele>
        <time>2022-06-11T21:50:26Z</time>
      </trkpt>
      <trkpt lat="43.07552" lon="5.81565">
        <ele>32</ele>
        <time>2022-06-11T21:50:30Z</time>
      </trkpt>
      <trkpt lat="43.07511" lon="5.81675">
        <ele>36</ele>
        <time>2022-06-11T21:50:46Z</time>
      </trkpt>
      <trkpt lat="43.07482" lon="5.81757">
        <ele>40</ele>
        <time>2022-06-11T21:50:57Z</time>
      </trkpt>
      <trkpt lat="43.07464" lon="5.8182">
        <ele>44</ele>
        <time>2022-06-11T21:51:06Z</time>
      </trkpt>
      <trkpt lat="43.07445" lon="5.81871">
        <ele>49</ele>
        <time>2022-06-11T21:51:14Z</time>
      </trkpt>
      <trkpt lat="43.07436" lon="5.81882">
        <ele>50</ele>
        <time>2022-06-11T21:51:16Z</time>
      </trkpt>
      <trkpt lat="43.07414" lon="5.81895">
        <ele>53</ele>
        <time>2022-06-11T21:51:20Z</time>
      </trkpt>
      <trkpt lat="43.07402" lon="5.81906">
        <ele>55</ele>
        <time>2022-06-11T21:51:23Z</time>
      </trkpt>
      <trkpt lat="43.0739" lon="5.8192">
        <ele>57</ele>
        <time>2022-06-11T21:51:25Z</time>
      </trkpt>
      <trkpt lat="43.07377" lon="5.81956">
        <ele>61</ele>
        <time>2022-06-11T21:51:31Z</time>
      </trkpt>
      <trkpt lat="43.07363" lon="5.8201">
        <ele>66</ele>
        <time>2022-06-11T21:51:38Z</time>
      </trkpt>
      <trkpt lat="43.07357" lon="5.82053">
        <ele>67</ele>
        <time>2022-06-11T21:51:44Z</time>
      </trkpt>
      <trkpt lat="43.07344" lon="5.82081">
        <ele>67</ele>
        <time>2022-06-11T21:51:48Z</time>
      </trkpt>
      <trkpt lat="43.07326" lon="5.82106">
        <ele>69</ele>
        <time>2022-06-11T21:51:53Z</time>
      </trkpt>
      <trkpt lat="43.07289" lon="5.82119">
        <ele>69</ele>
        <time>2022-06-11T21:52:00Z</time>
      </trkpt>
      <trkpt lat="43.07281" lon="5.82125">
        <ele>70</ele>
        <time>2022-06-11T21:52:01Z</time>
      </trkpt>
      <trkpt lat="43.07237" lon="5.8218">
        <ele>73</ele>
        <time>2022-06-11T21:52:12Z</time>
      </trkpt>
      <trkpt lat="43.07224" lon="5.82243">
        <ele>78</ele>
        <time>2022-06-11T21:52:20Z</time>
      </trkpt>
      <trkpt lat="43.07159" lon="5.82299">
        <ele>79</ele>
        <time>2022-06-11T21:52:34Z</time>
      </trkpt>
      <trkpt lat="43.07141" lon="5.82349">
        <ele>80</ele>
        <time>2022-06-11T21:52:41Z</time>
      </trkpt>
      <trkpt lat="43.07134" lon="5.82362">
        <ele>80</ele>
        <time>2022-06-11T21:52:43Z</time>
      </trkpt>
      <trkpt lat="43.07113" lon="5.82356">
        <ele>80</ele>
        <time>2022-06-11T21:52:47Z</time>
      </trkpt>
      <trkpt lat="43.0708" lon="5.82354">
        <ele>80</ele>
        <time>2022-06-11T21:52:53Z</time>
      </trkpt>
      <trkpt lat="43.0701" lon="5.82366">
        <ele>83</ele>
        <time>2022-06-11T21:53:06Z</time>
      </trkpt>
      <trkpt lat="43.0699" lon="5.82366">
        <ele>84</ele>
        <time>2022-06-11T21:53:09Z</time>
      </trkpt>
      <trkpt lat="43.06915" lon="5.82463">
        <ele>93</ele>
        <time>2022-06-11T21:53:27Z</time>
      </trkpt>
      <trkpt lat="43.06771" lon="5.82635">
        <ele>105</ele>
        <time>2022-06-11T21:54:01Z</time>
      </trkpt>
      <trkpt lat="43.06747" lon="5.82687">
        <ele>105</ele>
        <time>2022-06-11T21:54:09Z</time>
      </trkpt>
      <trkpt lat="43.06744" lon="5.82693">
        <ele>105</ele>
        <time>2022-06-11T21:54:10Z</time>
      </trkpt>
      <trkpt lat="43.06731" lon="5.82702">
        <ele>107</ele>
        <time>2022-06-11T21:54:13Z</time>
      </trkpt>
      <trkpt lat="43.06712" lon="5.82709">
        <ele>110</ele>
        <time>2022-06-11T21:54:16Z</time>
      </trkpt>
      <trkpt lat="43.06705" lon="5.82715">
        <ele>111</ele>
        <time>2022-06-11T21:54:18Z</time>
      </trkpt>
      <trkpt lat="43.06699" lon="5.82732">
        <ele>111</ele>
        <time>2022-06-11T21:54:20Z</time>
      </trkpt>
      <trkpt lat="43.06693" lon="5.82791">
        <ele>105</ele>
        <time>2022-06-11T21:54:28Z</time>
      </trkpt>
      <trkpt lat="43.06689" lon="5.82802">
        <ele>105</ele>
        <time>2022-06-11T21:54:30Z</time>
      </trkpt>
      <trkpt lat="43.06685" lon="5.82806">
        <ele>105</ele>
        <time>2022-06-11T21:54:31Z</time>
      </trkpt>
      <trkpt lat="43.06671" lon="5.82807">
        <ele>106</ele>
        <time>2022-06-11T21:54:33Z</time>
      </trkpt>
      <trkpt lat="43.06599" lon="5.8278">
        <ele>118</ele>
        <time>2022-06-11T21:54:46Z</time>
      </trkpt>
      <trkpt lat="43.0659" lon="5.82779">
        <ele>119</ele>
        <time>2022-06-11T21:54:48Z</time>
      </trkpt>
      <trkpt lat="43.06584" lon="5.82783">
        <ele>119</ele>
        <time>2022-06-11T21:54:49Z</time>
      </trkpt>
      <trkpt lat="43.06561" lon="5.82813">
        <ele>116</ele>
        <time>2022-06-11T21:54:55Z</time>
      </trkpt>
      <trkpt lat="43.06555" lon="5.82819">
        <ele>116</ele>
        <time>2022-06-11T21:54:56Z</time>
      </trkpt>
      <trkpt lat="43.0654" lon="5.82827">
        <ele>116</ele>
        <time>2022-06-11T21:54:59Z</time>
      </trkpt>
      <trkpt lat="43.06526" lon="5.82827">
        <ele>117</ele>
        <time>2022-06-11T21:55:02Z</time>
      </trkpt>
      <trkpt lat="43.06515" lon="5.82823">
        <ele>118</ele>
        <time>2022-06-11T21:55:04Z</time>
      </trkpt>
      <trkpt lat="43.06488" lon="5.828">
        <ele>123</ele>
        <time>2022-06-11T21:55:09Z</time>
      </trkpt>
      <trkpt lat="43.06481" lon="5.82796">
        <ele>124</ele>
        <time>2022-06-11T21:55:11Z</time>
      </trkpt>
      <trkpt lat="43.06474" lon="5.82799">
        <ele>124</ele>
        <time>2022-06-11T21:55:12Z</time>
      </trkpt>
      <trkpt lat="43.0646" lon="5.82812">
        <ele>123</ele>
        <time>2022-06-11T21:55:15Z</time>
      </trkpt>
      <trkpt lat="43.06452" lon="5.82817">
        <ele>123</ele>
        <time>2022-06-11T21:55:16Z</time>
      </trkpt>
      <trkpt lat="43.0642" lon="5.82816">
        <ele>124</ele>
        <time>2022-06-11T21:55:22Z</time>
      </trkpt>
      <trkpt lat="43.06415" lon="5.82817">
        <ele>125</ele>
        <time>2022-06-11T21:55:23Z</time>
      </trkpt>
      <trkpt lat="43.06409" lon="5.82826">
        <ele>125</ele>
        <time>2022-06-11T21:55:25Z</time>
      </trkpt>
      <trkpt lat="43.064" lon="5.8292">
        <ele>126</ele>
        <time>2022-06-11T21:55:37Z</time>
      </trkpt>
      <trkpt lat="43.06413" lon="5.82959">
        <ele>121</ele>
        <time>2022-06-11T21:55:42Z</time>
      </trkpt>
      <trkpt lat="43.06415" lon="5.82974">
        <ele>120</ele>
        <time>2022-06-11T21:55:44Z</time>
      </trkpt>
      <trkpt lat="43.06414" lon="5.82982">
        <ele>120</ele>
        <time>2022-06-11T21:55:46Z</time>
      </trkpt>
      <trkpt lat="43.06408" lon="5.82994">
        <ele>121</ele>
        <time>2022-06-11T21:55:47Z</time>
      </trkpt>
      <trkpt lat="43.06374" lon="5.83038">
        <ele>125</ele>
        <time>2022-06-11T21:55:56Z</time>
      </trkpt>
      <trkpt lat="43.06364" lon="5.83049">
        <ele>125</ele>
        <time>2022-06-11T21:55:58Z</time>
      </trkpt>
      <trkpt lat="43.06347" lon="5.83062">
        <ele>126</ele>
        <time>2022-06-11T21:56:01Z</time>
      </trkpt>
      <trkpt lat="43.06339" lon="5.83066">
        <ele>127</ele>
        <time>2022-06-11T21:56:03Z</time>
      </trkpt>
      <trkpt lat="43.06325" lon="5.83067">
        <ele>128</ele>
        <time>2022-06-11T21:56:06Z</time>
      </trkpt>
      <trkpt lat="43.06307" lon="5.83063">
        <ele>130</ele>
        <time>2022-06-11T21:56:09Z</time>
      </trkpt>
      <trkpt lat="43.06284" lon="5.8305">
        <ele>133</ele>
        <time>2022-06-11T21:56:13Z</time>
      </trkpt>
      <trkpt lat="43.06244" lon="5.83032">
        <ele>138</ele>
        <time>2022-06-11T21:56:21Z</time>
      </trkpt>
      <trkpt lat="43.06229" lon="5.83032">
        <ele>139</ele>
        <time>2022-06-11T21:56:23Z</time>
      </trkpt>
      <trkpt lat="43.06219" lon="5.83039">
        <ele>138</ele>
        <time>2022-06-11T21:56:25Z</time>
      </trkpt>
      <trkpt lat="43.0621" lon="5.83064">
        <ele>134</ele>
        <time>2022-06-11T21:56:29Z</time>
      </trkpt>
      <trkpt lat="43.06206" lon="5.83086">
        <ele>131</ele>
        <time>2022-06-11T21:56:32Z</time>
      </trkpt>
      <trkpt lat="43.06199" lon="5.83097">
        <ele>131</ele>
        <time>2022-06-11T21:56:34Z</time>
      </trkpt>
      <trkpt lat="43.06184" lon="5.83109">
        <ele>131</ele>
        <time>2022-06-11T21:56:37Z</time>
      </trkpt>
      <trkpt lat="43.06137" lon="5.8312">
        <ele>134</ele>
        <time>2022-06-11T21:56:45Z</time>
      </trkpt>
      <trkpt lat="43.06126" lon="5.83126">
        <ele>134</ele>
        <time>2022-06-11T21:56:47Z</time>
      </trkpt>
      <trkpt lat="43.06111" lon="5.83139">
        <ele>135</ele>
        <time>2022-06-11T21:56:51Z</time>
      </trkpt>
      <trkpt lat="43.06098" lon="5.83168">
        <ele>135</ele>
        <time>2022-06-11T21:56:55Z</time>
      </trkpt>
      <trkpt lat="43.0606" lon="5.83265">
        <ele>135</ele>
        <time>2022-06-11T21:57:09Z</time>
      </trkpt>
      <trkpt lat="43.06051" lon="5.83279">
        <ele>135</ele>
        <time>2022-06-11T21:57:12Z</time>
      </trkpt>
      <trkpt lat="43.06041" lon="5.83289">
        <ele>135</ele>
        <time>2022-06-11T21:57:14Z</time>
      </trkpt>
      <trkpt lat="43.0603" lon="5.83293">
        <ele>136</ele>
        <time>2022-06-11T21:57:16Z</time>
      </trkpt>
      <trkpt lat="43.06019" lon="5.83289">
        <ele>137</ele>
        <time>2022-06-11T21:57:18Z</time>
      </trkpt>
      <trkpt lat="43.06007" lon="5.8328">
        <ele>139</ele>
        <time>2022-06-11T21:57:20Z</time>
      </trkpt>
      <trkpt lat="43.05991" lon="5.83277">
        <ele>142</ele>
        <time>2022-06-11T21:57:23Z</time>
      </trkpt>
      <trkpt lat="43.05979" lon="5.8329">
        <ele>144</ele>
        <time>2022-06-11T21:57:26Z</time>
      </trkpt>
      <trkpt lat="43.05967" lon="5.83327">
        <ele>144</ele>
        <time>2022-06-11T21:57:31Z</time>
      </trkpt>
      <trkpt lat="43.0596" lon="5.83377">
        <ele>142</ele>
        <time>2022-06-11T21:57:38Z</time>
      </trkpt>
      <trkpt lat="43.05929" lon="5.83429">
        <ele>142</ele>
        <time>2022-06-11T21:57:47Z</time>
      </trkpt>
      <trkpt lat="43.05884" lon="5.83498">
        <ele>137</ele>
        <time>2022-06-11T21:57:59Z</time>
      </trkpt>
      <trkpt lat="43.05871" lon="5.8351">
        <ele>138</ele>
        <time>2022-06-11T21:58:02Z</time>
      </trkpt>
      <trkpt lat="43.05846" lon="5.83522">
        <ele>139</ele>
        <time>2022-06-11T21:58:06Z</time>
      </trkpt>
      <trkpt lat="43.0583" lon="5.83526">
        <ele>141</ele>
        <time>2022-06-11T21:58:09Z</time>
      </trkpt>
      <trkpt lat="43.05813" lon="5.83527">
        <ele>142</ele>
        <time>2022-06-11T21:58:12Z</time>
      </trkpt>
      <trkpt lat="43.05795" lon="5.83521">
        <ele>145</ele>
        <time>2022-06-11T21:58:15Z</time>
      </trkpt>
      <trkpt lat="43.05772" lon="5.8352">
        <ele>148</ele>
        <time>2022-06-11T21:58:20Z</time>
      </trkpt>
      <trkpt lat="43.05757" lon="5.8353">
        <ele>149</ele>
        <time>2022-06-11T21:58:23Z</time>
      </trkpt>
      <trkpt lat="43.05752" lon="5.83541">
        <ele>149</ele>
        <time>2022-06-11T21:58:24Z</time>
      </trkpt>
      <trkpt lat="43.05751" lon="5.83578">
        <ele>146</ele>
        <time>2022-06-11T21:58:29Z</time>
      </trkpt>
      <trkpt lat="43.05745" lon="5.83609">
        <ele>145</ele>
        <time>2022-06-11T21:58:33Z</time>
      </trkpt>
      <trkpt lat="43.0574" lon="5.83622">
        <ele>145</ele>
        <time>2022-06-11T21:58:35Z</time>
      </trkpt>
      <trkpt lat="43.05729" lon="5.83636">
        <ele>145</ele>
        <time>2022-06-11T21:58:38Z</time>
      </trkpt>
      <trkpt lat="43.05711" lon="5.83647">
        <ele>146</ele>
        <time>2022-06-11T21:58:41Z</time>
      </trkpt>
      <trkpt lat="43.057" lon="5.83643">
        <ele>147</ele>
        <time>2022-06-11T21:58:43Z</time>
      </trkpt>
      <trkpt lat="43.0569" lon="5.83634">
        <ele>149</ele>
        <time>2022-06-11T21:58:45Z</time>
      </trkpt>
      <trkpt lat="43.0568" lon="5.83617">
        <ele>151</ele>
        <time>2022-06-11T21:58:48Z</time>
      </trkpt>
      <trkpt lat="43.0567" lon="5.83591">
        <ele>154</ele>
        <time>2022-06-11T21:58:52Z</time>
      </trkpt>
      <trkpt lat="43.05665" lon="5.83585">
        <ele>155</ele>
        <time>2022-06-11T21:58:53Z</time>
      </trkpt>
      <trkpt lat="43.05657" lon="5.83584">
        <ele>157</ele>
        <time>2022-06-11T21:58:55Z</time>
      </trkpt>
      <trkpt lat="43.05649" lon="5.8359">
        <ele>158</ele>
        <time>2022-06-11T21:58:56Z</time>
      </trkpt>
      <trkpt lat="43.05644" lon="5.83604">
        <ele>157</ele>
        <time>2022-06-11T21:58:58Z</time>
      </trkpt>
      <trkpt lat="43.05639" lon="5.83629">
        <ele>157</ele>
        <time>2022-06-11T21:59:02Z</time>
      </trkpt>
      <trkpt lat="43.05609" lon="5.83679">
        <ele>160</ele>
        <time>2022-06-11T21:59:10Z</time>
      </trkpt>
      <trkpt lat="43.05608" lon="5.83693">
        <ele>159</ele>
        <time>2022-06-11T21:59:12Z</time>
      </trkpt>
      <trkpt lat="43.05611" lon="5.83721">
        <ele>158</ele>
        <time>2022-06-11T21:59:16Z</time>
      </trkpt>
      <trkpt lat="43.05606" lon="5.83783">
        <ele>160</ele>
        <time>2022-06-11T21:59:24Z</time>
      </trkpt>
      <trkpt lat="43.05613" lon="5.83839">
        <ele>161</ele>
        <time>2022-06-11T21:59:31Z</time>
      </trkpt>
      <trkpt lat="43.05623" lon="5.83883">
        <ele>162</ele>
        <time>2022-06-11T21:59:37Z</time>
      </trkpt>
      <trkpt lat="43.05619" lon="5.83931">
        <ele>165</ele>
        <time>2022-06-11T21:59:43Z</time>
      </trkpt>
      <trkpt lat="43.05612" lon="5.8398">
        <ele>170</ele>
        <time>2022-06-11T21:59:50Z</time>
      </trkpt>
      <trkpt lat="43.05613" lon="5.84">
        <ele>171</ele>
        <time>2022-06-11T21:59:52Z</time>
      </trkpt>
      <trkpt lat="43.05618" lon="5.84013">
        <ele>172</ele>
        <time>2022-06-11T21:59:54Z</time>
      </trkpt>
      <trkpt lat="43.05628" lon="5.84018">
        <ele>171</ele>
        <time>2022-06-11T21:59:56Z</time>
      </trkpt>
      <trkpt lat="43.0564" lon="5.84005">
        <ele>169</ele>
        <time>2022-06-11T21:59:59Z</time>
      </trkpt>
      <trkpt lat="43.05654" lon="5.83994">
        <ele>166</ele>
        <time>2022-06-11T22:00:02Z</time>
      </trkpt>
      <trkpt lat="43.05676" lon="5.83995">
        <ele>165</ele>
        <time>2022-06-11T22:00:06Z</time>
      </trkpt>
      <trkpt lat="43.05714" lon="5.84025">
        <ele>172</ele>
        <time>2022-06-11T22:00:14Z</time>
      </trkpt>
      <trkpt lat="43.0573" lon="5.84034">
        <ele>173</ele>
        <time>2022-06-11T22:00:17Z</time>
      </trkpt>
      <trkpt lat="43.05738" lon="5.8403">
        <ele>173</ele>
        <time>2022-06-11T22:00:18Z</time>
      </trkpt>
      <trkpt lat="43.05743" lon="5.84019">
        <ele>173</ele>
        <time>2022-06-11T22:00:20Z</time>
      </trkpt>
      <trkpt lat="43.05743" lon="5.83921">
        <ele>170</ele>
        <time>2022-06-11T22:00:33Z</time>
      </trkpt>
      <trkpt lat="43.05747" lon="5.83896">
        <ele>167</ele>
        <time>2022-06-11T22:00:36Z</time>
      </trkpt>
      <trkpt lat="43.05757" lon="5.83885">
        <ele>166</ele>
        <time>2022-06-11T22:00:38Z</time>
      </trkpt>
      <trkpt lat="43.0578" lon="5.83881">
        <ele>166</ele>
        <time>2022-06-11T22:00:42Z</time>
      </trkpt>
      <trkpt lat="43.05802" lon="5.83889">
        <ele>168</ele>
        <time>2022-06-11T22:00:46Z</time>
      </trkpt>
      <trkpt lat="43.05831" lon="5.83907">
        <ele>173</ele>
        <time>2022-06-11T22:00:52Z</time>
      </trkpt>
      <trkpt lat="43.05853" lon="5.83928">
        <ele>177</ele>
        <time>2022-06-11T22:00:57Z</time>
      </trkpt>
      <trkpt lat="43.05865" lon="5.83932">
        <ele>177</ele>
        <time>2022-06-11T22:00:59Z</time>
      </trkpt>
      <trkpt lat="43.05907" lon="5.83914">
        <ele>172</ele>
        <time>2022-06-11T22:01:07Z</time>
      </trkpt>
      <trkpt lat="43.05917" lon="5.83913">
        <ele>171</ele>
        <time>2022-06-11T22:01:09Z</time>
      </trkpt>
      <trkpt lat="43.05927" lon="5.83922">
        <ele>171</ele>
        <time>2022-06-11T22:01:11Z</time>
      </trkpt>
      <trkpt lat="43.05937" lon="5.83946">
        <ele>172</ele>
        <time>2022-06-11T22:01:14Z</time>
      </trkpt>
      <trkpt lat="43.05941" lon="5.83965">
        <ele>173</ele>
        <time>2022-06-11T22:01:17Z</time>
      </trkpt>
      <trkpt lat="43.05939" lon="5.83984">
        <ele>176</ele>
        <time>2022-06-11T22:01:19Z</time>
      </trkpt>
      <trkpt lat="43.05929" lon="5.84017">
        <ele>183</ele>
        <time>2022-06-11T22:01:24Z</time>
      </trkpt>
      <trkpt lat="43.05926" lon="5.84048">
        <ele>187</ele>
        <time>2022-06-11T22:01:28Z</time>
      </trkpt>
      <trkpt lat="43.05923" lon="5.84096">
        <ele>193</ele>
        <time>2022-06-11T22:01:34Z</time>
      </trkpt>
      <trkpt lat="43.05922" lon="5.84127">
        <ele>196</ele>
        <time>2022-06-11T22:01:38Z</time>
      </trkpt>
      <trkpt lat="43.05931" lon="5.84145">
        <ele>196</ele>
        <time>2022-06-11T22:01:41Z</time>
      </trkpt>
      <trkpt lat="43.05941" lon="5.84151">
        <ele>194</ele>
        <time>2022-06-11T22:01:43Z</time>
      </trkpt>
      <trkpt lat="43.05953" lon="5.84153">
        <ele>191</ele>
        <time>2022-06-11T22:01:45Z</time>
      </trkpt>
      <trkpt lat="43.05966" lon="5.84164">
        <ele>189</ele>
        <time>2022-06-11T22:01:48Z</time>
      </trkpt>
      <trkpt lat="43.0597" lon="5.84177">
        <ele>189</ele>
        <time>2022-06-11T22:01:50Z</time>
      </trkpt>
      <trkpt lat="43.05969" lon="5.84187">
        <ele>191</ele>
        <time>2022-06-11T22:01:51Z</time>
      </trkpt>
      <trkpt lat="43.05959" lon="5.84212">
        <ele>196</ele>
        <time>2022-06-11T22:01:55Z</time>
      </trkpt>
      <trkpt lat="43.05954" lon="5.84239">
        <ele>200</ele>
        <time>2022-06-11T22:01:59Z</time>
      </trkpt>
      <trkpt lat="43.05954" lon="5.84259">
        <ele>202</ele>
        <time>2022-06-11T22:02:01Z</time>
      </trkpt>
      <trkpt lat="43.05967" lon="5.84314">
        <ele>203</ele>
        <time>2022-06-11T22:02:09Z</time>
      </trkpt>
      <trkpt lat="43.05962" lon="5.84348">
        <ele>209</ele>
        <time>2022-06-11T22:02:13Z</time>
      </trkpt>
      <trkpt lat="43.05961" lon="5.84376">
        <ele>215</ele>
        <time>2022-06-11T22:02:17Z</time>
      </trkpt>
      <trkpt lat="43.05968" lon="5.84396">
        <ele>217</ele>
        <time>2022-06-11T22:02:20Z</time>
      </trkpt>
      <trkpt lat="43.05983" lon="5.84401">
        <ele>215</ele>
        <time>2022-06-11T22:02:22Z</time>
      </trkpt>
      <trkpt lat="43.06033" lon="5.84389">
        <ele>203</ele>
        <time>2022-06-11T22:02:32Z</time>
      </trkpt>
      <trkpt lat="43.0604" lon="5.84391">
        <ele>202</ele>
        <time>2022-06-11T22:02:33Z</time>
      </trkpt>
      <trkpt lat="43.06046" lon="5.84398">
        <ele>203</ele>
        <time>2022-06-11T22:02:34Z</time>
      </trkpt>
      <trkpt lat="43.0605" lon="5.84405">
        <ele>204</ele>
        <time>2022-06-11T22:02:35Z</time>
      </trkpt>
      <trkpt lat="43.06054" lon="5.84441">
        <ele>210</ele>
        <time>2022-06-11T22:02:40Z</time>
      </trkpt>
      <trkpt lat="43.06063" lon="5.84467">
        <ele>213</ele>
        <time>2022-06-11T22:02:44Z</time>
      </trkpt>
      <trkpt lat="43.06077" lon="5.84484">
        <ele>213</ele>
        <time>2022-06-11T22:02:47Z</time>
      </trkpt>
      <trkpt lat="43.06085" lon="5.84506">
        <ele>214</ele>
        <time>2022-06-11T22:02:50Z</time>
      </trkpt>
      <trkpt lat="43.0609" lon="5.84515">
        <ele>214</ele>
        <time>2022-06-11T22:02:52Z</time>
      </trkpt>
      <trkpt lat="43.06105" lon="5.84535">
        <ele>214</ele>
        <time>2022-06-11T22:02:56Z</time>
      </trkpt>
      <trkpt lat="43.06123" lon="5.84554">
        <ele>214</ele>
        <time>2022-06-11T22:03:00Z</time>
      </trkpt>
      <trkpt lat="43.06144" lon="5.84569">
        <ele>212</ele>
        <time>2022-06-11T22:03:04Z</time>
      </trkpt>
      <trkpt lat="43.0616" lon="5.84576">
        <ele>211</ele>
        <time>2022-06-11T22:03:07Z</time>
      </trkpt>
      <trkpt lat="43.06178" lon="5.84578">
        <ele>210</ele>
        <time>2022-06-11T22:03:10Z</time>
      </trkpt>
      <trkpt lat="43.06203" lon="5.84578">
        <ele>208</ele>
        <time>2022-06-11T22:03:14Z</time>
      </trkpt>
      <trkpt lat="43.06251" lon="5.84574">
        <ele>204</ele>
        <time>2022-06-11T22:03:23Z</time>
      </trkpt>
      <trkpt lat="43.06299" lon="5.84583">
        <ele>208</ele>
        <time>2022-06-11T22:03:32Z</time>
      </trkpt>
      <trkpt lat="43.06308" lon="5.84587">
        <ele>208</ele>
        <time>2022-06-11T22:03:33Z</time>
      </trkpt>
      <trkpt lat="43.06316" lon="5.84593">
        <ele>208</ele>
        <time>2022-06-11T22:03:35Z</time>
      </trkpt>
      <trkpt lat="43.0632" lon="5.84599">
        <ele>207</ele>
        <time>2022-06-11T22:03:36Z</time>
      </trkpt>
      <trkpt lat="43.06323" lon="5.84607">
        <ele>206</ele>
        <time>2022-06-11T22:03:37Z</time>
      </trkpt>
      <trkpt lat="43.06325" lon="5.84617">
        <ele>205</ele>
        <time>2022-06-11T22:03:38Z</time>
      </trkpt>
      <trkpt lat="43.06324" lon="5.84625">
        <ele>204</ele>
        <time>2022-06-11T22:03:40Z</time>
      </trkpt>
      <trkpt lat="43.06319" lon="5.84636">
        <ele>203</ele>
        <time>2022-06-11T22:03:41Z</time>
      </trkpt>
      <trkpt lat="43.06313" lon="5.84643">
        <ele>201</ele>
        <time>2022-06-11T22:03:43Z</time>
      </trkpt>
      <trkpt lat="43.06306" lon="5.84646">
        <ele>201</ele>
        <time>2022-06-11T22:03:44Z</time>
      </trkpt>
      <trkpt lat="43.063" lon="5.84645">
        <ele>200</ele>
        <time>2022-06-11T22:03:45Z</time>
      </trkpt>
      <trkpt lat="43.06292" lon="5.84642">
        <ele>200</ele>
        <time>2022-06-11T22:03:46Z</time>
      </trkpt>
      <trkpt lat="43.06271" lon="5.84615">
        <ele>202</ele>
        <time>2022-06-11T22:03:52Z</time>
      </trkpt>
      <trkpt lat="43.06261" lon="5.84606">
        <ele>202</ele>
        <time>2022-06-11T22:03:54Z</time>
      </trkpt>
      <trkpt lat="43.06247" lon="5.84602">
        <ele>202</ele>
        <time>2022-06-11T22:03:56Z</time>
      </trkpt>
      <trkpt lat="43.06232" lon="5.84602">
        <ele>203</ele>
        <time>2022-06-11T22:03:59Z</time>
      </trkpt>
      <trkpt lat="43.06207" lon="5.8461">
        <ele>203</ele>
        <time>2022-06-11T22:04:04Z</time>
      </trkpt>
      <trkpt lat="43.06191" lon="5.84619">
        <ele>203</ele>
        <time>2022-06-11T22:04:07Z</time>
      </trkpt>
      <trkpt lat="43.06106" lon="5.84689">
        <ele>197</ele>
        <time>2022-06-11T22:04:24Z</time>
      </trkpt>
      <trkpt lat="43.06093" lon="5.84699">
        <ele>196</ele>
        <time>2022-06-11T22:04:27Z</time>
      </trkpt>
      <trkpt lat="43.06052" lon="5.84711">
        <ele>196</ele>
        <time>2022-06-11T22:04:34Z</time>
      </trkpt>
      <trkpt lat="43.06044" lon="5.84715">
        <ele>195</ele>
        <time>2022-06-11T22:04:36Z</time>
      </trkpt>
      <trkpt lat="43.06037" lon="5.84719">
        <ele>195</ele>
        <time>2022-06-11T22:04:37Z</time>
      </trkpt>
      <trkpt lat="43.0601" lon="5.84746">
        <ele>188</ele>
        <time>2022-06-11T22:04:43Z</time>
      </trkpt>
      <trkpt lat="43.05997" lon="5.84754">
        <ele>187</ele>
        <time>2022-06-11T22:04:46Z</time>
      </trkpt>
      <trkpt lat="43.0599" lon="5.84753">
        <ele>188</ele>
        <time>2022-06-11T22:04:47Z</time>
      </trkpt>
      <trkpt lat="43.05982" lon="5.84749">
        <ele>189</ele>
        <time>2022-06-11T22:04:48Z</time>
      </trkpt>
      <trkpt lat="43.05969" lon="5.84738">
        <ele>193</ele>
        <time>2022-06-11T22:04:51Z</time>
      </trkpt>
      <trkpt lat="43.05955" lon="5.84733">
        <ele>195</ele>
        <time>2022-06-11T22:04:54Z</time>
      </trkpt>
      <trkpt lat="43.05947" lon="5.84734">
        <ele>195</ele>
        <time>2022-06-11T22:04:55Z</time>
      </trkpt>
      <trkpt lat="43.05941" lon="5.84739">
        <ele>194</ele>
        <time>2022-06-11T22:04:56Z</time>
      </trkpt>
      <trkpt lat="43.05936" lon="5.84745">
        <ele>193</ele>
        <time>2022-06-11T22:04:58Z</time>
      </trkpt>
      <trkpt lat="43.05933" lon="5.84753">
        <ele>192</ele>
        <time>2022-06-11T22:04:59Z</time>
      </trkpt>
      <trkpt lat="43.05928" lon="5.84819">
        <ele>183</ele>
        <time>2022-06-11T22:05:07Z</time>
      </trkpt>
      <trkpt lat="43.05905" lon="5.84907">
        <ele>180</ele>
        <time>2022-06-11T22:05:20Z</time>
      </trkpt>
      <trkpt lat="43.05902" lon="5.84933">
        <ele>181</ele>
        <time>2022-06-11T22:05:23Z</time>
      </trkpt>
      <trkpt lat="43.05906" lon="5.84949">
        <ele>181</ele>
        <time>2022-06-11T22:05:25Z</time>
      </trkpt>
      <trkpt lat="43.05916" lon="5.84962">
        <ele>181</ele>
        <time>2022-06-11T22:05:28Z</time>
      </trkpt>
      <trkpt lat="43.05922" lon="5.84965">
        <ele>181</ele>
        <time>2022-06-11T22:05:29Z</time>
      </trkpt>
      <trkpt lat="43.05934" lon="5.84964">
        <ele>180</ele>
        <time>2022-06-11T22:05:31Z</time>
      </trkpt>
      <trkpt lat="43.05952" lon="5.84951">
        <ele>177</ele>
        <time>2022-06-11T22:05:35Z</time>
      </trkpt>
      <trkpt lat="43.0597" lon="5.84934">
        <ele>172</ele>
        <time>2022-06-11T22:05:38Z</time>
      </trkpt>
      <trkpt lat="43.05978" lon="5.8493">
        <ele>171</ele>
        <time>2022-06-11T22:05:40Z</time>
      </trkpt>
      <trkpt lat="43.05995" lon="5.84928">
        <ele>169</ele>
        <time>2022-06-11T22:05:43Z</time>
      </trkpt>
      <trkpt lat="43.06004" lon="5.84931">
        <ele>168</ele>
        <time>2022-06-11T22:05:45Z</time>
      </trkpt>
      <trkpt lat="43.06018" lon="5.84937">
        <ele>167</ele>
        <time>2022-06-11T22:05:47Z</time>
      </trkpt>
      <trkpt lat="43.06028" lon="5.84945">
        <ele>166</ele>
        <time>2022-06-11T22:05:49Z</time>
      </trkpt>
      <trkpt lat="43.06036" lon="5.84955">
        <ele>166</ele>
        <time>2022-06-11T22:05:51Z</time>
      </trkpt>
      <trkpt lat="43.06054" lon="5.84989">
        <ele>167</ele>
        <time>2022-06-11T22:05:57Z</time>
      </trkpt>
      <trkpt lat="43.06078" lon="5.85017">
        <ele>165</ele>
        <time>2022-06-11T22:06:02Z</time>
      </trkpt>
      <trkpt lat="43.06102" lon="5.85053">
        <ele>163</ele>
        <time>2022-06-11T22:06:09Z</time>
      </trkpt>
      <trkpt lat="43.06114" lon="5.8508">
        <ele>163</ele>
        <time>2022-06-11T22:06:13Z</time>
      </trkpt>
      <trkpt lat="43.0612" lon="5.85106">
        <ele>162</ele>
        <time>2022-06-11T22:06:16Z</time>
      </trkpt>
      <trkpt lat="43.06124" lon="5.85134">
        <ele>162</ele>
        <time>2022-06-11T22:06:20Z</time>
      </trkpt>
      <trkpt lat="43.06126" lon="5.85165">
        <ele>162</ele>
        <time>2022-06-11T22:06:24Z</time>
      </trkpt>
      <trkpt lat="43.06125" lon="5.85182">
        <ele>161</ele>
        <time>2022-06-11T22:06:26Z</time>
      </trkpt>
      <trkpt lat="43.06119" lon="5.85229">
        <ele>159</ele>
        <time>2022-06-11T22:06:32Z</time>
      </trkpt>
      <trkpt lat="43.0612" lon="5.85283">
        <ele>153</ele>
        <time>2022-06-11T22:06:40Z</time>
      </trkpt>
      <trkpt lat="43.06116" lon="5.853">
        <ele>151</ele>
        <time>2022-06-11T22:06:42Z</time>
      </trkpt>
      <trkpt lat="43.06107" lon="5.85316">
        <ele>151</ele>
        <time>2022-06-11T22:06:44Z</time>
      </trkpt>
      <trkpt lat="43.06088" lon="5.8534">
        <ele>151</ele>
        <time>2022-06-11T22:06:49Z</time>
      </trkpt>
      <trkpt lat="43.06073" lon="5.85369">
        <ele>149</ele>
        <time>2022-06-11T22:06:54Z</time>
      </trkpt>
      <trkpt lat="43.06047" lon="5.85436">
        <ele>143</ele>
        <time>2022-06-11T22:07:04Z</time>
      </trkpt>
      <trkpt lat="43.06031" lon="5.85474">
        <ele>140</ele>
        <time>2022-06-11T22:07:09Z</time>
      </trkpt>
      <trkpt lat="43.06026" lon="5.85483">
        <ele>139</ele>
        <time>2022-06-11T22:07:11Z</time>
      </trkpt>
      <trkpt lat="43.06013" lon="5.855">
        <ele>138</ele>
        <time>2022-06-11T22:07:14Z</time>
      </trkpt>
      <trkpt lat="43.05977" lon="5.85523">
        <ele>140</ele>
        <time>2022-06-11T22:07:21Z</time>
      </trkpt>
      <trkpt lat="43.05971" lon="5.85529">
        <ele>141</ele>
        <time>2022-06-11T22:07:22Z</time>
      </trkpt>
      <trkpt lat="43.05953" lon="5.85558">
        <ele>142</ele>
        <time>2022-06-11T22:07:27Z</time>
      </trkpt>
      <trkpt lat="43.05881" lon="5.8573">
        <ele>145</ele>
        <time>2022-06-11T22:07:53Z</time>
      </trkpt>
      <trkpt lat="43.05875" lon="5.85751">
        <ele>143</ele>
        <time>2022-06-11T22:07:56Z</time>
      </trkpt>
      <trkpt lat="43.05873" lon="5.85774">
        <ele>143</ele>
        <time>2022-06-11T22:07:59Z</time>
      </trkpt>
      <trkpt lat="43.05885" lon="5.85855">
        <ele>140</ele>
        <time>2022-06-11T22:08:10Z</time>
      </trkpt>
      <trkpt lat="43.05887" lon="5.85905">
        <ele>139</ele>
        <time>2022-06-11T22:08:16Z</time>
      </trkpt>
      <trkpt lat="43.05887" lon="5.85957">
        <ele>140</ele>
        <time>2022-06-11T22:08:23Z</time>
      </trkpt>
      <trkpt lat="43.05881" lon="5.86079">
        <ele>135</ele>
        <time>2022-06-11T22:08:39Z</time>
      </trkpt>
      <trkpt lat="43.05883" lon="5.86104">
        <ele>130</ele>
        <time>2022-06-11T22:08:42Z</time>
      </trkpt>
      <trkpt lat="43.05886" lon="5.86116">
        <ele>128</ele>
        <time>2022-06-11T22:08:44Z</time>
      </trkpt>
      <trkpt lat="43.05891" lon="5.86126">
        <ele>126</ele>
        <time>2022-06-11T22:08:45Z</time>
      </trkpt>
      <trkpt lat="43.05901" lon="5.86139">
        <ele>125</ele>
        <time>2022-06-11T22:08:48Z</time>
      </trkpt>
      <trkpt lat="43.05922" lon="5.86147">
        <ele>128</ele>
        <time>2022-06-11T22:08:52Z</time>
      </trkpt>
      <trkpt lat="43.05972" lon="5.86162">
        <ele>129</ele>
        <time>2022-06-11T22:09:01Z</time>
      </trkpt>
      <trkpt lat="43.06033" lon="5.86199">
        <ele>121</ele>
        <time>2022-06-11T22:09:13Z</time>
      </trkpt>
      <trkpt lat="43.06061" lon="5.86224">
        <ele>115</ele>
        <time>2022-06-11T22:09:19Z</time>
      </trkpt>
      <trkpt lat="43.06086" lon="5.8625">
        <ele>112</ele>
        <time>2022-06-11T22:09:24Z</time>
      </trkpt>
      <trkpt lat="43.06116" lon="5.86307">
        <ele>116</ele>
        <time>2022-06-11T22:09:33Z</time>
      </trkpt>
      <trkpt lat="43.06144" lon="5.86443">
        <ele>107</ele>
        <time>2022-06-11T22:09:52Z</time>
      </trkpt>
      <trkpt lat="43.06169" lon="5.86482">
        <ele>106</ele>
        <time>2022-06-11T22:09:58Z</time>
      </trkpt>
      <trkpt lat="43.06304" lon="5.86518">
        <ele>113</ele>
        <time>2022-06-11T22:10:23Z</time>
      </trkpt>
      <trkpt lat="43.06368" lon="5.86525">
        <ele>113</ele>
        <time>2022-06-11T22:10:34Z</time>
      </trkpt>
      <trkpt lat="43.06422" lon="5.8655">
        <ele>108</ele>
        <time>2022-06-11T22:10:44Z</time>
      </trkpt>
      <trkpt lat="43.06539" lon="5.86624">
        <ele>101</ele>
        <time>2022-06-11T22:11:07Z</time>
      </trkpt>
      <trkpt lat="43.06565" lon="5.86647">
        <ele>99</ele>
        <time>2022-06-11T22:11:13Z</time>
      </trkpt>
      <trkpt lat="43.06615" lon="5.86683">
        <ele>92</ele>
        <time>2022-06-11T22:11:23Z</time>
      </trkpt>
      <trkpt lat="43.06669" lon="5.86731">
        <ele>85</ele>
        <time>2022-06-11T22:11:34Z</time>
      </trkpt>
      <trkpt lat="43.06691" lon="5.86766">
        <ele>85</ele>
        <time>2022-06-11T22:11:40Z</time>
      </trkpt>
      <trkpt lat="43.06702" lon="5.86778">
        <ele>86</ele>
        <time>2022-06-11T22:11:43Z</time>
      </trkpt>
      <trkpt lat="43.06717" lon="5.8678">
        <ele>85</ele>
        <time>2022-06-11T22:11:46Z</time>
      </trkpt>
      <trkpt lat="43.06724" lon="5.86778">
        <ele>84</ele>
        <time>2022-06-11T22:11:47Z</time>
      </trkpt>
      <trkpt lat="43.06732" lon="5.86773">
        <ele>83</ele>
        <time>2022-06-11T22:11:48Z</time>
      </trkpt>
      <trkpt lat="43.06738" lon="5.86766">
        <ele>82</ele>
        <time>2022-06-11T22:11:50Z</time>
      </trkpt>
      <trkpt lat="43.06742" lon="5.86758">
        <ele>81</ele>
        <time>2022-06-11T22:11:51Z</time>
      </trkpt>
      <trkpt lat="43.06745" lon="5.8674">
        <ele>79</ele>
        <time>2022-06-11T22:11:54Z</time>
      </trkpt>
      <trkpt lat="43.06741" lon="5.86691">
        <ele>75</ele>
        <time>2022-06-11T22:12:00Z</time>
      </trkpt>
      <trkpt lat="43.06741" lon="5.86681">
        <ele>74</ele>
        <time>2022-06-11T22:12:01Z</time>
      </trkpt>
      <trkpt lat="43.06743" lon="5.8667">
        <ele>72</ele>
        <time>2022-06-11T22:12:03Z</time>
      </trkpt>
      <trkpt lat="43.0675" lon="5.86651">
        <ele>73</ele>
        <time>2022-06-11T22:12:05Z</time>
      </trkpt>
      <trkpt lat="43.06761" lon="5.86638">
        <ele>74</ele>
        <time>2022-06-11T22:12:08Z</time>
      </trkpt>
      <trkpt lat="43.06796" lon="5.86613">
        <ele>72</ele>
        <time>2022-06-11T22:12:15Z</time>
      </trkpt>
      <trkpt lat="43.06808" lon="5.86601">
        <ele>71</ele>
        <time>2022-06-11T22:12:18Z</time>
      </trkpt>
      <trkpt lat="43.06835" lon="5.8655">
        <ele>71</ele>
        <time>2022-06-11T22:12:26Z</time>
      </trkpt>
      <trkpt lat="43.06864" lon="5.86507">
        <ele>71</ele>
        <time>2022-06-11T22:12:34Z</time>
      </trkpt>
      <trkpt lat="43.06883" lon="5.86488">
        <ele>71</ele>
        <time>2022-06-11T22:12:38Z</time>
      </trkpt>
      <trkpt lat="43.06899" lon="5.86477">
        <ele>70</ele>
        <time>2022-06-11T22:12:41Z</time>
      </trkpt>
      <trkpt lat="43.06919" lon="5.86468">
        <ele>69</ele>
        <time>2022-06-11T22:12:45Z</time>
      </trkpt>
      <trkpt lat="43.06962" lon="5.86456">
        <ele>63</ele>
        <time>2022-06-11T22:12:52Z</time>
      </trkpt>
      <trkpt lat="43.06975" lon="5.86449">
        <ele>61</ele>
        <time>2022-06-11T22:12:55Z</time>
      </trkpt>
      <trkpt lat="43.06988" lon="5.86438">
        <ele>60</ele>
        <time>2022-06-11T22:12:58Z</time>
      </trkpt>
      <trkpt lat="43.0703" lon="5.86389">
        <ele>62</ele>
        <time>2022-06-11T22:13:07Z</time>
      </trkpt>
      <trkpt lat="43.0704" lon="5.8638">
        <ele>62</ele>
        <time>2022-06-11T22:13:10Z</time>
      </trkpt>
      <trkpt lat="43.07049" lon="5.86375">
        <ele>62</ele>
        <time>2022-06-11T22:13:11Z</time>
      </trkpt>
      <trkpt lat="43.07057" lon="5.86374">
        <ele>61</ele>
        <time>2022-06-11T22:13:13Z</time>
      </trkpt>
      <trkpt lat="43.07069" lon="5.86381">
        <ele>59</ele>
        <time>2022-06-11T22:13:15Z</time>
      </trkpt>
      <trkpt lat="43.07077" lon="5.86388">
        <ele>57</ele>
        <time>2022-06-11T22:13:17Z</time>
      </trkpt>
      <trkpt lat="43.07082" lon="5.86398">
        <ele>56</ele>
        <time>2022-06-11T22:13:18Z</time>
      </trkpt>
      <trkpt lat="43.07086" lon="5.86411">
        <ele>54</ele>
        <time>2022-06-11T22:13:20Z</time>
      </trkpt>
      <trkpt lat="43.07086" lon="5.86423">
        <ele>54</ele>
        <time>2022-06-11T22:13:22Z</time>
      </trkpt>
      <trkpt lat="43.07084" lon="5.86436">
        <ele>54</ele>
        <time>2022-06-11T22:13:23Z</time>
      </trkpt>
      <trkpt lat="43.07063" lon="5.86484">
        <ele>54</ele>
        <time>2022-06-11T22:13:31Z</time>
      </trkpt>
      <trkpt lat="43.07059" lon="5.86503">
        <ele>53</ele>
        <time>2022-06-11T22:13:33Z</time>
      </trkpt>
      <trkpt lat="43.07058" lon="5.86524">
        <ele>52</ele>
        <time>2022-06-11T22:13:36Z</time>
      </trkpt>
      <trkpt lat="43.0706" lon="5.86546">
        <ele>51</ele>
        <time>2022-06-11T22:13:39Z</time>
      </trkpt>
      <trkpt lat="43.07084" lon="5.86673">
        <ele>50</ele>
        <time>2022-06-11T22:13:56Z</time>
      </trkpt>
      <trkpt lat="43.07095" lon="5.86714">
        <ele>50</ele>
        <time>2022-06-11T22:14:02Z</time>
      </trkpt>
      <trkpt lat="43.07141" lon="5.86817">
        <ele>48</ele>
        <time>2022-06-11T22:14:17Z</time>
      </trkpt>
      <trkpt lat="43.07169" lon="5.86894">
        <ele>41</ele>
        <time>2022-06-11T22:14:29Z</time>
      </trkpt>
      <trkpt lat="43.07179" lon="5.86934">
        <ele>36</ele>
        <time>2022-06-11T22:14:34Z</time>
      </trkpt>
      <trkpt lat="43.07188" lon="5.87002">
        <ele>29</ele>
        <time>2022-06-11T22:14:43Z</time>
      </trkpt>
      <trkpt lat="43.07193" lon="5.87066">
        <ele>26</ele>
        <time>2022-06-11T22:14:51Z</time>
      </trkpt>
      <trkpt lat="43.07189" lon="5.87108">
        <ele>25</ele>
        <time>2022-06-11T22:14:57Z</time>
      </trkpt>
      <trkpt lat="43.07179" lon="5.87149">
        <ele>24</ele>
        <time>2022-06-11T22:15:02Z</time>
      </trkpt>
      <trkpt lat="43.07178" lon="5.87156">
        <ele>24</ele>
        <time>2022-06-11T22:15:03Z</time>
      </trkpt>
      <trkpt lat="43.07158" lon="5.87176">
        <ele>24</ele>
        <time>2022-06-11T22:15:08Z</time>
      </trkpt>
      <trkpt lat="43.0715" lon="5.87181">
        <ele>24</ele>
        <time>2022-06-11T22:15:09Z</time>
      </trkpt>
      <trkpt lat="43.07146" lon="5.87187">
        <ele>24</ele>
        <time>2022-06-11T22:15:10Z</time>
      </trkpt>
      <trkpt lat="43.07144" lon="5.872">
        <ele>25</ele>
        <time>2022-06-11T22:15:12Z</time>
      </trkpt>
      <trkpt lat="43.07147" lon="5.87211">
        <ele>25</ele>
        <time>2022-06-11T22:15:14Z</time>
      </trkpt>
      <trkpt lat="43.07153" lon="5.87218">
        <ele>25</ele>
        <time>2022-06-11T22:15:15Z</time>
      </trkpt>
      <trkpt lat="43.07179" lon="5.87227">
        <ele>25</ele>
        <time>2022-06-11T22:15:20Z</time>
      </trkpt>
      <trkpt lat="43.07186" lon="5.87245">
        <ele>26</ele>
        <time>2022-06-11T22:15:23Z</time>
      </trkpt>
      <trkpt lat="43.07215" lon="5.87276">
        <ele>25</ele>
        <time>2022-06-11T22:15:29Z</time>
      </trkpt>
      <trkpt lat="43.07258" lon="5.87298">
        <ele>25</ele>
        <time>2022-06-11T22:15:37Z</time>
      </trkpt>
      <trkpt lat="43.07281" lon="5.87295">
        <ele>25</ele>
        <time>2022-06-11T22:15:41Z</time>
      </trkpt>
      <trkpt lat="43.07314" lon="5.87315">
        <ele>25</ele>
        <time>2022-06-11T22:15:48Z</time>
      </trkpt>
      <trkpt lat="43.07344" lon="5.87346">
        <ele>24</ele>
        <time>2022-06-11T22:15:54Z</time>
      </trkpt>
      <trkpt lat="43.07363" lon="5.87389">
        <ele>24</ele>
        <time>2022-06-11T22:16:01Z</time>
      </trkpt>
      <trkpt lat="43.07386" lon="5.8742">
        <ele>23</ele>
        <time>2022-06-11T22:16:07Z</time>
      </trkpt>
      <trkpt lat="43.07413" lon="5.87437">
        <ele>21</ele>
        <time>2022-06-11T22:16:12Z</time>
      </trkpt>
      <trkpt lat="43.07475" lon="5.87443">
        <ele>20</ele>
        <time>2022-06-11T22:16:23Z</time>
      </trkpt>
      <trkpt lat="43.0747" lon="5.87507">
        <ele>17</ele>
        <time>2022-06-11T22:16:31Z</time>
      </trkpt>
      <trkpt lat="43.07474" lon="5.87543">
        <ele>16</ele>
        <time>2022-06-11T22:16:36Z</time>
      </trkpt>
      <trkpt lat="43.07485" lon="5.8757">
        <ele>16</ele>
        <time>2022-06-11T22:16:40Z</time>
      </trkpt>
      <trkpt lat="43.07499" lon="5.87594">
        <ele>17</ele>
        <time>2022-06-11T22:16:44Z</time>
      </trkpt>
      <trkpt lat="43.07505" lon="5.876">
        <ele>18</ele>
        <time>2022-06-11T22:16:46Z</time>
      </trkpt>
      <trkpt lat="43.07511" lon="5.87602">
        <ele>18</ele>
        <time>2022-06-11T22:16:47Z</time>
      </trkpt>
      <trkpt lat="43.07526" lon="5.87602">
        <ele>18</ele>
        <time>2022-06-11T22:16:49Z</time>
      </trkpt>
      <trkpt lat="43.0764" lon="5.87554">
        <ele>20</ele>
        <time>2022-06-11T22:17:11Z</time>
      </trkpt>
      <trkpt lat="43.07649" lon="5.87552">
        <ele>21</ele>
        <time>2022-06-11T22:17:12Z</time>
      </trkpt>
      <trkpt lat="43.07656" lon="5.87554">
        <ele>21</ele>
        <time>2022-06-11T22:17:13Z</time>
      </trkpt>
      <trkpt lat="43.07761" lon="5.87628">
        <ele>21</ele>
        <time>2022-06-11T22:17:34Z</time>
      </trkpt>
      <trkpt lat="43.07835" lon="5.87676">
        <ele>22</ele>
        <time>2022-06-11T22:17:49Z</time>
      </trkpt>
      <trkpt lat="43.07862" lon="5.87683">
        <ele>22</ele>
        <time>2022-06-11T22:17:54Z</time>
      </trkpt>
      <trkpt lat="43.0796" lon="5.87693">
        <ele>22</ele>
        <time>2022-06-11T22:18:11Z</time>
      </trkpt>
      <trkpt lat="43.08012" lon="5.877">
        <ele>22</ele>
        <time>2022-06-11T22:18:21Z</time>
      </trkpt>
      <trkpt lat="43.0802" lon="5.87706">
        <ele>22</ele>
        <time>2022-06-11T22:18:22Z</time>
      </trkpt>
      <trkpt lat="43.08025" lon="5.87713">
        <ele>22</ele>
        <time>2022-06-11T22:18:24Z</time>
      </trkpt>
      <trkpt lat="43.0803" lon="5.87723">
        <ele>21</ele>
        <time>2022-06-11T22:18:25Z</time>
      </trkpt>
      <trkpt lat="43.08031" lon="5.87741">
        <ele>21</ele>
        <time>2022-06-11T22:18:27Z</time>
      </trkpt>
      <trkpt lat="43.08032" lon="5.87795">
        <ele>19</ele>
        <time>2022-06-11T22:18:34Z</time>
      </trkpt>
      <trkpt lat="43.08034" lon="5.87813">
        <ele>19</ele>
        <time>2022-06-11T22:18:37Z</time>
      </trkpt>
      <trkpt lat="43.08043" lon="5.87826">
        <ele>18</ele>
        <time>2022-06-11T22:18:39Z</time>
      </trkpt>
      <trkpt lat="43.0812" lon="5.8787">
        <ele>19</ele>
        <time>2022-06-11T22:18:54Z</time>
      </trkpt>
      <trkpt lat="43.08168" lon="5.87895">
        <ele>19</ele>
        <time>2022-06-11T22:19:03Z</time>
      </trkpt>
      <trkpt lat="43.08195" lon="5.87906">
        <ele>19</ele>
        <time>2022-06-11T22:19:08Z</time>
      </trkpt>
      <trkpt lat="43.08221" lon="5.87912">
        <ele>18</ele>
        <time>2022-06-11T22:19:13Z</time>
      </trkpt>
      <trkpt lat="43.08251" lon="5.87915">
        <ele>18</ele>
        <time>2022-06-11T22:19:18Z</time>
      </trkpt>
      <trkpt lat="43.08259" lon="5.87917">
        <ele>18</ele>
        <time>2022-06-11T22:19:20Z</time>
      </trkpt>
      <trkpt lat="43.08273" lon="5.8793">
        <ele>18</ele>
        <time>2022-06-11T22:19:23Z</time>
      </trkpt>
      <trkpt lat="43.08278" lon="5.87942">
        <ele>18</ele>
        <time>2022-06-11T22:19:24Z</time>
      </trkpt>
      <trkpt lat="43.08278" lon="5.87953">
        <ele>18</ele>
        <time>2022-06-11T22:19:26Z</time>
      </trkpt>
      <trkpt lat="43.08276" lon="5.87972">
        <ele>18</ele>
        <time>2022-06-11T22:19:28Z</time>
      </trkpt>
      <trkpt lat="43.08262" lon="5.88045">
        <ele>17</ele>
        <time>2022-06-11T22:19:38Z</time>
      </trkpt>
      <trkpt lat="43.08251" lon="5.88079">
        <ele>16</ele>
        <time>2022-06-11T22:19:43Z</time>
      </trkpt>
      <trkpt lat="43.08238" lon="5.88108">
        <ele>16</ele>
        <time>2022-06-11T22:19:47Z</time>
      </trkpt>
      <trkpt lat="43.08235" lon="5.88118">
        <ele>16</ele>
        <time>2022-06-11T22:19:49Z</time>
      </trkpt>
      <trkpt lat="43.08232" lon="5.88138">
        <ele>16</ele>
        <time>2022-06-11T22:19:52Z</time>
      </trkpt>
      <trkpt lat="43.08233" lon="5.88175">
        <ele>15</ele>
        <time>2022-06-11T22:19:56Z</time>
      </trkpt>
      <trkpt lat="43.08231" lon="5.88185">
        <ele>15</ele>
        <time>2022-06-11T22:19:58Z</time>
      </trkpt>
      <trkpt lat="43.08228" lon="5.88196">
        <ele>15</ele>
        <time>2022-06-11T22:19:59Z</time>
      </trkpt>
      <trkpt lat="43.08229" lon="5.88202">
        <ele>15</ele>
        <time>2022-06-11T22:20:00Z</time>
      </trkpt>
      <trkpt lat="43.08235" lon="5.88212">
        <ele>15</ele>
        <time>2022-06-11T22:20:02Z</time>
      </trkpt>
      <trkpt lat="43.0824" lon="5.88214">
        <ele>15</ele>
        <time>2022-06-11T22:20:03Z</time>
      </trkpt>
      <trkpt lat="43.08245" lon="5.88214">
        <ele>14</ele>
        <time>2022-06-11T22:20:04Z</time>
      </trkpt>
      <trkpt lat="43.0825" lon="5.88211">
        <ele>14</ele>
        <time>2022-06-11T22:20:04Z</time>
      </trkpt>
      <trkpt lat="43.08261" lon="5.88198">
        <ele>15</ele>
        <time>2022-06-11T22:20:07Z</time>
      </trkpt>
      <trkpt lat="43.08306" lon="5.88182">
        <ele>16</ele>
        <time>2022-06-11T22:20:15Z</time>
      </trkpt>
      <trkpt lat="43.08655" lon="5.88082">
        <ele>20</ele>
        <time>2022-06-11T22:21:19Z</time>
      </trkpt>
      <trkpt lat="43.08664" lon="5.88082">
        <ele>20</ele>
        <time>2022-06-11T22:21:20Z</time>
      </trkpt>
      <trkpt lat="43.08682" lon="5.88085">
        <ele>22</ele>
        <time>2022-06-11T22:21:24Z</time>
      </trkpt>
      <trkpt lat="43.08704" lon="5.88097">
        <ele>23</ele>
        <time>2022-06-11T22:21:28Z</time>
      </trkpt>
      <trkpt lat="43.08765" lon="5.88144">
        <ele>25</ele>
        <time>2022-06-11T22:21:40Z</time>
      </trkpt>
      <trkpt lat="43.08781" lon="5.88151">
        <ele>25</ele>
        <time>2022-06-11T22:21:43Z</time>
      </trkpt>
      <trkpt lat="43.0881" lon="5.88154">
        <ele>26</ele>
        <time>2022-06-11T22:21:48Z</time>
      </trkpt>
      <trkpt lat="43.08848" lon="5.88153">
        <ele>27</ele>
        <time>2022-06-11T22:21:55Z</time>
      </trkpt>
      <trkpt lat="43.08878" lon="5.88149">
        <ele>27</ele>
        <time>2022-06-11T22:22:01Z</time>
      </trkpt>
      <trkpt lat="43.09069" lon="5.88138">
        <ele>33</ele>
        <time>2022-06-11T22:22:35Z</time>
      </trkpt>
      <trkpt lat="43.09109" lon="5.88133">
        <ele>33</ele>
        <time>2022-06-11T22:22:42Z</time>
      </trkpt>
      <trkpt lat="43.09122" lon="5.88129">
        <ele>33</ele>
        <time>2022-06-11T22:22:44Z</time>
      </trkpt>
      <trkpt lat="43.09225" lon="5.88075">
        <ele>31</ele>
        <time>2022-06-11T22:23:04Z</time>
      </trkpt>
      <trkpt lat="43.09242" lon="5.88071">
        <ele>31</ele>
        <time>2022-06-11T22:23:07Z</time>
      </trkpt>
      <trkpt lat="43.09258" lon="5.8807">
        <ele>30</ele>
        <time>2022-06-11T22:23:10Z</time>
      </trkpt>
      <trkpt lat="43.09274" lon="5.88073">
        <ele>29</ele>
        <time>2022-06-11T22:23:13Z</time>
      </trkpt>
      <trkpt lat="43.09307" lon="5.88093">
        <ele>28</ele>
        <time>2022-06-11T22:23:19Z</time>
      </trkpt>
      <trkpt lat="43.09332" lon="5.88116">
        <ele>27</ele>
        <time>2022-06-11T22:23:24Z</time>
      </trkpt>
      <trkpt lat="43.09376" lon="5.88191">
        <ele>25</ele>
        <time>2022-06-11T22:23:37Z</time>
      </trkpt>
      <trkpt lat="43.09443" lon="5.88281">
        <ele>18</ele>
        <time>2022-06-11T22:23:53Z</time>
      </trkpt>
      <trkpt lat="43.09449" lon="5.88296">
        <ele>18</ele>
        <time>2022-06-11T22:23:56Z</time>
      </trkpt>
      <trkpt lat="43.09455" lon="5.8834">
        <ele>18</ele>
        <time>2022-06-11T22:24:02Z</time>
      </trkpt>
      <trkpt lat="43.09461" lon="5.88358">
        <ele>20</ele>
        <time>2022-06-11T22:24:04Z</time>
      </trkpt>
      <trkpt lat="43.09469" lon="5.88369">
        <ele>20</ele>
        <time>2022-06-11T22:24:06Z</time>
      </trkpt>
      <trkpt lat="43.09489" lon="5.88378">
        <ele>19</ele>
        <time>2022-06-11T22:24:10Z</time>
      </trkpt>
      <trkpt lat="43.09531" lon="5.88392">
        <ele>18</ele>
        <time>2022-06-11T22:24:18Z</time>
      </trkpt>
      <trkpt lat="43.09651" lon="5.88438">
        <ele>14</ele>
        <time>2022-06-11T22:24:40Z</time>
      </trkpt>
      <trkpt lat="43.09773" lon="5.8848">
        <ele>9</ele>
        <time>2022-06-11T22:25:02Z</time>
      </trkpt>
      <trkpt lat="43.09786" lon="5.88482">
        <ele>9</ele>
        <time>2022-06-11T22:25:04Z</time>
      </trkpt>
      <trkpt lat="43.09814" lon="5.88482">
        <ele>8</ele>
        <time>2022-06-11T22:25:09Z</time>
      </trkpt>
      <trkpt lat="43.09839" lon="5.88476">
        <ele>8</ele>
        <time>2022-06-11T22:25:14Z</time>
      </trkpt>
      <trkpt lat="43.09893" lon="5.88459">
        <ele>7</ele>
        <time>2022-06-11T22:25:24Z</time>
      </trkpt>
      <trkpt lat="43.09902" lon="5.88454">
        <ele>7</ele>
        <time>2022-06-11T22:25:26Z</time>
      </trkpt>
      <trkpt lat="43.09908" lon="5.88435">
        <ele>7</ele>
        <time>2022-06-11T22:25:28Z</time>
      </trkpt>
      <trkpt lat="43.09913" lon="5.88428">
        <ele>6</ele>
        <time>2022-06-11T22:25:29Z</time>
      </trkpt>
      <trkpt lat="43.09934" lon="5.88424">
        <ele>6</ele>
        <time>2022-06-11T22:25:33Z</time>
      </trkpt>
      <trkpt lat="43.10026" lon="5.88401">
        <ele>5</ele>
        <time>2022-06-11T22:25:50Z</time>
      </trkpt>
      <trkpt lat="43.10084" lon="5.88394">
        <ele>3</ele>
        <time>2022-06-11T22:26:00Z</time>
      </trkpt>
      <trkpt lat="43.10111" lon="5.88394">
        <ele>3</ele>
        <time>2022-06-11T22:26:05Z</time>
      </trkpt>
      <trkpt lat="43.10117" lon="5.88401">
        <ele>3</ele>
        <time>2022-06-11T22:26:06Z</time>
      </trkpt>
      <trkpt lat="43.10123" lon="5.884">
        <ele>2</ele>
        <time>2022-06-11T22:26:08Z</time>
      </trkpt>
      <trkpt lat="43.10127" lon="5.88395">
        <ele>2</ele>
        <time>2022-06-11T22:26:08Z</time>
      </trkpt>
      <trkpt lat="43.10129" lon="5.88387">
        <ele>2</ele>
        <time>2022-06-11T22:26:10Z</time>
      </trkpt>
      <trkpt lat="43.10119" lon="5.88366">
        <ele>2</ele>
        <time>2022-06-11T22:26:13Z</time>
      </trkpt>
      <trkpt lat="43.10115" lon="5.88331">
        <ele>2</ele>
        <time>2022-06-11T22:26:17Z</time>
      </trkpt>
      <trkpt lat="43.10112" lon="5.88319">
        <ele>3</ele>
        <time>2022-06-11T22:26:19Z</time>
      </trkpt>
      <trkpt lat="43.10089" lon="5.88256">
        <ele>3</ele>
        <time>2022-06-11T22:26:28Z</time>
      </trkpt>
      <trkpt lat="43.10084" lon="5.88226">
        <ele>4</ele>
        <time>2022-06-11T22:26:32Z</time>
      </trkpt>
      <trkpt lat="43.10087" lon="5.88219">
        <ele>4</ele>
        <time>2022-06-11T22:26:33Z</time>
      </trkpt>
      <trkpt lat="43.1023" lon="5.88132">
        <ele>5</ele>
        <time>2022-06-11T22:27:01Z</time>
      </trkpt>
      <trkpt lat="43.10235" lon="5.88133">
        <ele>5</ele>
        <time>2022-06-11T22:27:02Z</time>
      </trkpt>
      <trkpt lat="43.10243" lon="5.88141">
        <ele>4</ele>
        <time>2022-06-11T22:27:04Z</time>
      </trkpt>
      <trkpt lat="43.10263" lon="5.88171">
        <ele>3</ele>
        <time>2022-06-11T22:27:09Z</time>
      </trkpt>
      <trkpt lat="43.10268" lon="5.88177">
        <ele>3</ele>
        <time>2022-06-11T22:27:10Z</time>
      </trkpt>
      <trkpt lat="43.10275" lon="5.88181">
        <ele>3</ele>
        <time>2022-06-11T22:27:12Z</time>
      </trkpt>
      <trkpt lat="43.10282" lon="5.88178">
        <ele>3</ele>
        <time>2022-06-11T22:27:13Z</time>
      </trkpt>
      <trkpt lat="43.10409" lon="5.88096">
        <ele>3</ele>
        <time>2022-06-11T22:27:38Z</time>
      </trkpt>
      <trkpt lat="43.10415" lon="5.88084">
        <ele>3</ele>
        <time>2022-06-11T22:27:40Z</time>
      </trkpt>
      <trkpt lat="43.10415" lon="5.88069">
        <ele>3</ele>
        <time>2022-06-11T22:27:42Z</time>
      </trkpt>
      <trkpt lat="43.10401" lon="5.88022">
        <ele>4</ele>
        <time>2022-06-11T22:27:48Z</time>
      </trkpt>
      <trkpt lat="43.10396" lon="5.87991">
        <ele>4</ele>
        <time>2022-06-11T22:27:52Z</time>
      </trkpt>
      <trkpt lat="43.10397" lon="5.8798">
        <ele>4</ele>
        <time>2022-06-11T22:27:54Z</time>
      </trkpt>
      <trkpt lat="43.10404" lon="5.8796">
        <ele>4</ele>
        <time>2022-06-11T22:27:57Z</time>
      </trkpt>
      <trkpt lat="43.10417" lon="5.87945">
        <ele>5</ele>
        <time>2022-06-11T22:28:00Z</time>
      </trkpt>
      <trkpt lat="43.10528" lon="5.87895">
        <ele>3</ele>
        <time>2022-06-11T22:28:21Z</time>
      </trkpt>
      <trkpt lat="43.10585" lon="5.8787">
        <ele>3</ele>
        <time>2022-06-11T22:28:31Z</time>
      </trkpt>
      <trkpt lat="43.10657" lon="5.87848">
        <ele>3</ele>
        <time>2022-06-11T22:28:44Z</time>
      </trkpt>
      <trkpt lat="43.1068" lon="5.87836">
        <ele>3</ele>
        <time>2022-06-11T22:28:49Z</time>
      </trkpt>
      <trkpt lat="43.10699" lon="5.87825">
        <ele>3</ele>
        <time>2022-06-11T22:28:52Z</time>
      </trkpt>
      <trkpt lat="43.10727" lon="5.878">
        <ele>3</ele>
        <time>2022-06-11T22:28:58Z</time>
      </trkpt>
      <trkpt lat="43.10733" lon="5.87797">
        <ele>3</ele>
        <time>2022-06-11T22:29:00Z</time>
      </trkpt>
      <trkpt lat="43.10773" lon="5.87778">
        <ele>2</ele>
        <time>2022-06-11T22:29:07Z</time>
      </trkpt>
      <trkpt lat="43.10785" lon="5.87777">
        <ele>2</ele>
        <time>2022-06-11T22:29:09Z</time>
      </trkpt>
      <trkpt lat="43.10791" lon="5.87779">
        <ele>2</ele>
        <time>2022-06-11T22:29:10Z</time>
      </trkpt>
      <trkpt lat="43.10816" lon="5.87791">
        <ele>1</ele>
        <time>2022-06-11T22:29:15Z</time>
      </trkpt>
      <trkpt lat="43.10819" lon="5.87801">
        <ele>1</ele>
        <time>2022-06-11T22:29:16Z</time>
      </trkpt>
      <trkpt lat="43.10887" lon="5.87833">
        <ele>2</ele>
        <time>2022-06-11T22:29:29Z</time>
      </trkpt>
      <trkpt lat="43.10937" lon="5.8786">
        <ele>1</ele>
        <time>2022-06-11T22:29:39Z</time>
      </trkpt>
      <trkpt lat="43.10958" lon="5.87864">
        <ele>2</ele>
        <time>2022-06-11T22:29:43Z</time>
      </trkpt>
      <trkpt lat="43.11019" lon="5.8789">
        <ele>3</ele>
        <time>2022-06-11T22:29:54Z</time>
      </trkpt>
      <trkpt lat="43.11043" lon="5.87907">
        <ele>3</ele>
        <time>2022-06-11T22:29:59Z</time>
      </trkpt>
      <trkpt lat="43.11045" lon="5.87914">
        <ele>3</ele>
        <time>2022-06-11T22:30:00Z</time>
      </trkpt>
      <trkpt lat="43.11045" lon="5.87928">
        <ele>3</ele>
        <time>2022-06-11T22:30:01Z</time>
      </trkpt>
      <trkpt lat="43.1106" lon="5.87948">
        <ele>2</ele>
        <time>2022-06-11T22:30:05Z</time>
      </trkpt>
      <trkpt lat="43.11082" lon="5.8795">
        <ele>2</ele>
        <time>2022-06-11T22:30:09Z</time>
      </trkpt>
      <trkpt lat="43.11087" lon="5.87955">
        <ele>2</ele>
        <time>2022-06-11T22:30:10Z</time>
      </trkpt>
      <trkpt lat="43.1109" lon="5.87963">
        <ele>2</ele>
        <time>2022-06-11T22:30:11Z</time>
      </trkpt>
      <trkpt lat="43.11099" lon="5.88002">
        <ele>1</ele>
        <time>2022-06-11T22:30:17Z</time>
      </trkpt>
      <trkpt lat="43.11101" lon="5.88019">
        <ele>1</ele>
        <time>2022-06-11T22:30:19Z</time>
      </trkpt>
      <trkpt lat="43.11101" lon="5.88041">
        <ele>2</ele>
        <time>2022-06-11T22:30:22Z</time>
      </trkpt>
      <trkpt lat="43.11108" lon="5.88057">
        <ele>2</ele>
        <time>2022-06-11T22:30:24Z</time>
      </trkpt>
      <trkpt lat="43.11112" lon="5.88081">
        <ele>2</ele>
        <time>2022-06-11T22:30:27Z</time>
      </trkpt>
      <trkpt lat="43.1113" lon="5.88222">
        <ele>5</ele>
        <time>2022-06-11T22:30:46Z</time>
      </trkpt>
      <trkpt lat="43.11134" lon="5.88243">
        <ele>5</ele>
        <time>2022-06-11T22:30:49Z</time>
      </trkpt>
      <trkpt lat="43.11139" lon="5.88261">
        <ele>5</ele>
        <time>2022-06-11T22:30:51Z</time>
      </trkpt>
      <trkpt lat="43.11149" lon="5.8828">
        <ele>4</ele>
        <time>2022-06-11T22:30:54Z</time>
      </trkpt>
      <trkpt lat="43.11181" lon="5.88322">
        <ele>3</ele>
        <time>2022-06-11T22:31:02Z</time>
      </trkpt>
      <trkpt lat="43.11187" lon="5.88326">
        <ele>3</ele>
        <time>2022-06-11T22:31:03Z</time>
      </trkpt>
      <trkpt lat="43.11204" lon="5.88329">
        <ele>3</ele>
        <time>2022-06-11T22:31:07Z</time>
      </trkpt>
      <trkpt lat="43.11219" lon="5.88337">
        <ele>3</ele>
        <time>2022-06-11T22:31:09Z</time>
      </trkpt>
      <trkpt lat="43.11234" lon="5.88342">
        <ele>3</ele>
        <time>2022-06-11T22:31:12Z</time>
      </trkpt>
      <trkpt lat="43.1126" lon="5.88358">
        <ele>4</ele>
        <time>2022-06-11T22:31:17Z</time>
      </trkpt>
      <trkpt lat="43.1127" lon="5.88371">
        <ele>4</ele>
        <time>2022-06-11T22:31:20Z</time>
      </trkpt>
      <trkpt lat="43.11278" lon="5.88395">
        <ele>4</ele>
        <time>2022-06-11T22:31:23Z</time>
      </trkpt>
      <trkpt lat="43.11282" lon="5.88403">
        <ele>4</ele>
        <time>2022-06-11T22:31:24Z</time>
      </trkpt>
      <trkpt lat="43.11292" lon="5.88406">
        <ele>4</ele>
        <time>2022-06-11T22:31:26Z</time>
      </trkpt>
      <trkpt lat="43.11302" lon="5.88415">
        <ele>5</ele>
        <time>2022-06-11T22:31:28Z</time>
      </trkpt>
      <trkpt lat="43.11305" lon="5.88413">
        <ele>5</ele>
        <time>2022-06-11T22:31:29Z</time>
      </trkpt>
      <trkpt lat="43.11324" lon="5.88377">
        <ele>7</ele>
        <time>2022-06-11T22:31:35Z</time>
      </trkpt>
      <trkpt lat="43.1133" lon="5.88369">
        <ele>8</ele>
        <time>2022-06-11T22:31:36Z</time>
      </trkpt>
      <trkpt lat="43.11374" lon="5.8834">
        <ele>9</ele>
        <time>2022-06-11T22:31:45Z</time>
      </trkpt>
      <trkpt lat="43.11383" lon="5.88334">
        <ele>10</ele>
        <time>2022-06-11T22:31:47Z</time>
      </trkpt>
      <trkpt lat="43.11395" lon="5.8833">
        <ele>10</ele>
        <time>2022-06-11T22:31:49Z</time>
      </trkpt>
      <trkpt lat="43.11425" lon="5.88333">
        <ele>9</ele>
        <time>2022-06-11T22:31:54Z</time>
      </trkpt>
      <trkpt lat="43.11706" lon="5.88399">
        <ele>4</ele>
        <time>2022-06-11T22:32:45Z</time>
      </trkpt>
      <trkpt lat="43.1174" lon="5.88403">
        <ele>5</ele>
        <time>2022-06-11T22:32:51Z</time>
      </trkpt>
      <trkpt lat="43.11771" lon="5.88405">
        <ele>5</ele>
        <time>2022-06-11T22:32:56Z</time>
      </trkpt>
      <trkpt lat="43.11797" lon="5.88414">
        <ele>4</ele>
        <time>2022-06-11T22:33:01Z</time>
      </trkpt>
      <trkpt lat="43.11829" lon="5.88421">
        <ele>4</ele>
        <time>2022-06-11T22:33:07Z</time>
      </trkpt>
      <trkpt lat="43.11843" lon="5.88421">
        <ele>4</ele>
        <time>2022-06-11T22:33:10Z</time>
      </trkpt>
      <trkpt lat="43.11849" lon="5.88425">
        <ele>4</ele>
        <time>2022-06-11T22:33:11Z</time>
      </trkpt>
      <trkpt lat="43.11856" lon="5.88444">
        <ele>4</ele>
        <time>2022-06-11T22:33:13Z</time>
      </trkpt>
      <trkpt lat="43.11859" lon="5.88472">
        <ele>3</ele>
        <time>2022-06-11T22:33:17Z</time>
      </trkpt>
      <trkpt lat="43.11859" lon="5.88489">
        <ele>3</ele>
        <time>2022-06-11T22:33:19Z</time>
      </trkpt>
      <trkpt lat="43.11864" lon="5.8855">
        <ele>3</ele>
        <time>2022-06-11T22:33:27Z</time>
      </trkpt>
      <trkpt lat="43.11876" lon="5.88593">
        <ele>2</ele>
        <time>2022-06-11T22:33:33Z</time>
      </trkpt>
      <trkpt lat="43.11896" lon="5.8862">
        <ele>3</ele>
        <time>2022-06-11T22:33:38Z</time>
      </trkpt>
      <trkpt lat="43.11941" lon="5.88667">
        <ele>4</ele>
        <time>2022-06-11T22:33:48Z</time>
      </trkpt>
      <trkpt lat="43.1196" lon="5.8869">
        <ele>5</ele>
        <time>2022-06-11T22:33:53Z</time>
      </trkpt>
      <trkpt lat="43.1197" lon="5.88706">
        <ele>5</ele>
        <time>2022-06-11T22:33:56Z</time>
      </trkpt>
      <trkpt lat="43.11978" lon="5.88725">
        <ele>5</ele>
        <time>2022-06-11T22:33:58Z</time>
      </trkpt>
      <trkpt lat="43.12034" lon="5.88872">
        <ele>7</ele>
        <time>2022-06-11T22:34:20Z</time>
      </trkpt>
      <trkpt lat="43.12049" lon="5.88916">
        <ele>8</ele>
        <time>2022-06-11T22:34:26Z</time>
      </trkpt>
      <trkpt lat="43.12053" lon="5.88932">
        <ele>8</ele>
        <time>2022-06-11T22:34:28Z</time>
      </trkpt>
      <trkpt lat="43.12058" lon="5.88948">
        <ele>8</ele>
        <time>2022-06-11T22:34:31Z</time>
      </trkpt>
      <trkpt lat="43.12074" lon="5.88972">
        <ele>8</ele>
        <time>2022-06-11T22:34:35Z</time>
      </trkpt>
      <trkpt lat="43.12076" lon="5.88984">
        <ele>7</ele>
        <time>2022-06-11T22:34:37Z</time>
      </trkpt>
      <trkpt lat="43.12072" lon="5.89007">
        <ele>7</ele>
        <time>2022-06-11T22:34:40Z</time>
      </trkpt>
      <trkpt lat="43.12072" lon="5.89019">
        <ele>7</ele>
        <time>2022-06-11T22:34:41Z</time>
      </trkpt>
      <trkpt lat="43.12074" lon="5.89028">
        <ele>7</ele>
        <time>2022-06-11T22:34:42Z</time>
      </trkpt>
      <trkpt lat="43.1207" lon="5.89192">
        <ele>8</ele>
        <time>2022-06-11T22:35:04Z</time>
      </trkpt>
      <trkpt lat="43.1207" lon="5.89212">
        <ele>8</ele>
        <time>2022-06-11T22:35:06Z</time>
      </trkpt>
      <trkpt lat="43.12072" lon="5.89234">
        <ele>8</ele>
        <time>2022-06-11T22:35:09Z</time>
      </trkpt>
      <trkpt lat="43.1208" lon="5.89275">
        <ele>7</ele>
        <time>2022-06-11T22:35:15Z</time>
      </trkpt>
      <trkpt lat="43.12087" lon="5.89301">
        <ele>7</ele>
        <time>2022-06-11T22:35:18Z</time>
      </trkpt>
      <trkpt lat="43.12106" lon="5.89362">
        <ele>5</ele>
        <time>2022-06-11T22:35:27Z</time>
      </trkpt>
      <trkpt lat="43.12113" lon="5.8937">
        <ele>5</ele>
        <time>2022-06-11T22:35:29Z</time>
      </trkpt>
      <trkpt lat="43.1219" lon="5.89439">
        <ele>5</ele>
        <time>2022-06-11T22:35:45Z</time>
      </trkpt>
      <trkpt lat="43.12243" lon="5.89508">
        <ele>6</ele>
        <time>2022-06-11T22:35:58Z</time>
      </trkpt>
      <trkpt lat="43.12396" lon="5.89605">
        <ele>9</ele>
        <time>2022-06-11T22:36:28Z</time>
      </trkpt>
      <trkpt lat="43.12473" lon="5.89649">
        <ele>11</ele>
        <time>2022-06-11T22:36:43Z</time>
      </trkpt>
      <trkpt lat="43.12494" lon="5.8967">
        <ele>12</ele>
        <time>2022-06-11T22:36:47Z</time>
      </trkpt>
      <trkpt lat="43.12512" lon="5.89697">
        <ele>13</ele>
        <time>2022-06-11T22:36:52Z</time>
      </trkpt>
      <trkpt lat="43.1252" lon="5.89716">
        <ele>14</ele>
        <time>2022-06-11T22:36:55Z</time>
      </trkpt>
      <trkpt lat="43.12526" lon="5.89736">
        <ele>15</ele>
        <time>2022-06-11T22:36:58Z</time>
      </trkpt>
      <trkpt lat="43.12529" lon="5.89754">
        <ele>15</ele>
        <time>2022-06-11T22:37:00Z</time>
      </trkpt>
      <trkpt lat="43.12532" lon="5.89783">
        <ele>15</ele>
        <time>2022-06-11T22:37:04Z</time>
      </trkpt>
      <trkpt lat="43.12528" lon="5.89819">
        <ele>15</ele>
        <time>2022-06-11T22:37:09Z</time>
      </trkpt>
      <trkpt lat="43.12504" lon="5.89911">
        <ele>20</ele>
        <time>2022-06-11T22:37:21Z</time>
      </trkpt>
      <trkpt lat="43.12462" lon="5.90036">
        <ele>24</ele>
        <time>2022-06-11T22:37:39Z</time>
      </trkpt>
      <trkpt lat="43.12446" lon="5.90101">
        <ele>25</ele>
        <time>2022-06-11T22:37:48Z</time>
      </trkpt>
      <trkpt lat="43.12429" lon="5.90158">
        <ele>22</ele>
        <time>2022-06-11T22:37:56Z</time>
      </trkpt>
      <trkpt lat="43.1239" lon="5.90222">
        <ele>18</ele>
        <time>2022-06-11T22:38:07Z</time>
      </trkpt>
      <trkpt lat="43.12378" lon="5.9029">
        <ele>11</ele>
        <time>2022-06-11T22:38:16Z</time>
      </trkpt>
      <trkpt lat="43.12375" lon="5.90294">
        <ele>10</ele>
        <time>2022-06-11T22:38:17Z</time>
      </trkpt>
      <trkpt lat="43.12357" lon="5.90306">
        <ele>9</ele>
        <time>2022-06-11T22:38:20Z</time>
      </trkpt>
      <trkpt lat="43.12361" lon="5.9032">
        <ele>8</ele>
        <time>2022-06-11T22:38:22Z</time>
      </trkpt>
      <trkpt lat="43.12354" lon="5.90332">
        <ele>7</ele>
        <time>2022-06-11T22:38:24Z</time>
      </trkpt>
      <trkpt lat="43.12353" lon="5.90339">
        <ele>7</ele>
        <time>2022-06-11T22:38:25Z</time>
      </trkpt>
      <trkpt lat="43.12354" lon="5.90355">
        <ele>7</ele>
        <time>2022-06-11T22:38:27Z</time>
      </trkpt>
      <trkpt lat="43.12357" lon="5.90361">
        <ele>7</ele>
        <time>2022-06-11T22:38:28Z</time>
      </trkpt>
      <trkpt lat="43.12366" lon="5.9037">
        <ele>7</ele>
        <time>2022-06-11T22:38:30Z</time>
      </trkpt>
      <trkpt lat="43.12377" lon="5.90371">
        <ele>7</ele>
        <time>2022-06-11T22:38:32Z</time>
      </trkpt>
      <trkpt lat="43.12377" lon="5.90379">
        <ele>7</ele>
        <time>2022-06-11T22:38:33Z</time>
      </trkpt>
      <trkpt lat="43.12379" lon="5.90387">
        <ele>7</ele>
        <time>2022-06-11T22:38:34Z</time>
      </trkpt>
      <trkpt lat="43.12386" lon="5.90394">
        <ele>7</ele>
        <time>2022-06-11T22:38:36Z</time>
      </trkpt>
      <trkpt lat="43.12396" lon="5.90397">
        <ele>7</ele>
        <time>2022-06-11T22:38:38Z</time>
      </trkpt>
      <trkpt lat="43.124" lon="5.90402">
        <ele>7</ele>
        <time>2022-06-11T22:38:39Z</time>
      </trkpt>
      <trkpt lat="43.1245" lon="5.9048">
        <ele>6</ele>
        <time>2022-06-11T22:38:52Z</time>
      </trkpt>
      <trkpt lat="43.12451" lon="5.90485">
        <ele>6</ele>
        <time>2022-06-11T22:38:53Z</time>
      </trkpt>
      <trkpt lat="43.12464" lon="5.90626">
        <ele>10</ele>
        <time>2022-06-11T22:39:11Z</time>
      </trkpt>
      <trkpt lat="43.12464" lon="5.90638">
        <ele>11</ele>
        <time>2022-06-11T22:39:13Z</time>
      </trkpt>
      <trkpt lat="43.12458" lon="5.90681">
        <ele>11</ele>
        <time>2022-06-11T22:39:19Z</time>
      </trkpt>
      <trkpt lat="43.12459" lon="5.90695">
        <ele>12</ele>
        <time>2022-06-11T22:39:20Z</time>
      </trkpt>
      <trkpt lat="43.12462" lon="5.90708">
        <ele>12</ele>
        <time>2022-06-11T22:39:22Z</time>
      </trkpt>
      <trkpt lat="43.12468" lon="5.90722">
        <ele>12</ele>
        <time>2022-06-11T22:39:24Z</time>
      </trkpt>
      <trkpt lat="43.12557" lon="5.90877">
        <ele>10</ele>
        <time>2022-06-11T22:39:50Z</time>
      </trkpt>
      <trkpt lat="43.12605" lon="5.90993">
        <ele>6</ele>
        <time>2022-06-11T22:40:07Z</time>
      </trkpt>
      <trkpt lat="43.12616" lon="5.91025">
        <ele>6</ele>
        <time>2022-06-11T22:40:12Z</time>
      </trkpt>
      <trkpt lat="43.12622" lon="5.91052">
        <ele>6</ele>
        <time>2022-06-11T22:40:15Z</time>
      </trkpt>
      <trkpt lat="43.12646" lon="5.91217">
        <ele>5</ele>
        <time>2022-06-11T22:40:37Z</time>
      </trkpt>
      <trkpt lat="43.12648" lon="5.91238">
        <ele>5</ele>
        <time>2022-06-11T22:40:40Z</time>
      </trkpt>
      <trkpt lat="43.12649" lon="5.91288">
        <ele>6</ele>
        <time>2022-06-11T22:40:47Z</time>
      </trkpt>
      <trkpt lat="43.12656" lon="5.91291">
        <ele>6</ele>
        <time>2022-06-11T22:40:48Z</time>
      </trkpt>
      <trkpt lat="43.12658" lon="5.91297">
        <ele>6</ele>
        <time>2022-06-11T22:40:49Z</time>
      </trkpt>
      <trkpt lat="43.12656" lon="5.91359">
        <ele>6</ele>
        <time>2022-06-11T22:40:57Z</time>
      </trkpt>
      <trkpt lat="43.12656" lon="5.9141">
        <ele>6</ele>
        <time>2022-06-11T22:41:03Z</time>
      </trkpt>
    </trkseg>
  </trk>
</gpx>